<?xml version="1.0" encoding="UTF-8" standalone="no" ?>
<gpx xmlns="http://www.topografix.com/GPX/1/1" xmlns:xsi="http://www.w3.org/2001/XMLSchema-instance" xsi:schemaLocation="http://www.topografix.com/GPX/1/1 http://www.topografix.com/GPX/1/1/gpx.xsd" version="1.1" creator="VisuGPX - https://www.visugpx.com">
  <metadata>
    <name>[25/02/2018] Rando du Vin Chaud</name>
    <desc><![CDATA[Rando Club SpeedEure du 25 février 2018]]></desc>
  </metadata>
  <trk>
    <name><![CDATA[[25/02/2018] Rando du Vin Chaud_1]]></name>
    <trkseg>
      <trkpt lat="49.02228" lon="1.14071">
        <ele>107.199997</ele>
        <time>2018-02-25T07:47:12Z</time>
      </trkpt>
      <trkpt lat="49.02222" lon="1.14083">
        <ele>107.099998</ele>
        <time>2018-02-25T07:49:05Z</time>
      </trkpt>
      <trkpt lat="49.02213" lon="1.14091">
        <ele>107.099998</ele>
        <time>2018-02-25T07:49:12Z</time>
      </trkpt>
      <trkpt lat="49.02203" lon="1.14096">
        <ele>107</ele>
        <time>2018-02-25T07:49:17Z</time>
      </trkpt>
      <trkpt lat="49.02194" lon="1.141">
        <ele>107</ele>
        <time>2018-02-25T07:49:21Z</time>
      </trkpt>
      <trkpt lat="49.02183" lon="1.14104">
        <ele>107.199997</ele>
        <time>2018-02-25T07:49:26Z</time>
      </trkpt>
      <trkpt lat="49.02173" lon="1.14108">
        <ele>107.199997</ele>
        <time>2018-02-25T07:49:30Z</time>
      </trkpt>
      <trkpt lat="49.02162" lon="1.14112">
        <ele>107</ele>
        <time>2018-02-25T07:49:34Z</time>
      </trkpt>
      <trkpt lat="49.02151" lon="1.14117">
        <ele>106.900002</ele>
        <time>2018-02-25T07:49:38Z</time>
      </trkpt>
      <trkpt lat="49.02142" lon="1.1412">
        <ele>106.900002</ele>
        <time>2018-02-25T07:49:41Z</time>
      </trkpt>
      <trkpt lat="49.02133" lon="1.14124">
        <ele>107</ele>
        <time>2018-02-25T07:49:44Z</time>
      </trkpt>
      <trkpt lat="49.02124" lon="1.14128">
        <ele>107.099998</ele>
        <time>2018-02-25T07:49:47Z</time>
      </trkpt>
      <trkpt lat="49.02115" lon="1.14132">
        <ele>107.199997</ele>
        <time>2018-02-25T07:49:50Z</time>
      </trkpt>
      <trkpt lat="49.02105" lon="1.14135">
        <ele>107.300003</ele>
        <time>2018-02-25T07:49:53Z</time>
      </trkpt>
      <trkpt lat="49.02096" lon="1.14139">
        <ele>107.400002</ele>
        <time>2018-02-25T07:49:56Z</time>
      </trkpt>
      <trkpt lat="49.02085" lon="1.14144">
        <ele>107.599998</ele>
        <time>2018-02-25T07:50:00Z</time>
      </trkpt>
      <trkpt lat="49.02076" lon="1.14148">
        <ele>107.599998</ele>
        <time>2018-02-25T07:50:03Z</time>
      </trkpt>
      <trkpt lat="49.02067" lon="1.14151">
        <ele>107.5</ele>
        <time>2018-02-25T07:50:06Z</time>
      </trkpt>
      <trkpt lat="49.02058" lon="1.14154">
        <ele>107.5</ele>
        <time>2018-02-25T07:50:09Z</time>
      </trkpt>
      <trkpt lat="49.02048" lon="1.14158">
        <ele>107.400002</ele>
        <time>2018-02-25T07:50:12Z</time>
      </trkpt>
      <trkpt lat="49.02038" lon="1.14162">
        <ele>107.400002</ele>
        <time>2018-02-25T07:50:15Z</time>
      </trkpt>
      <trkpt lat="49.02029" lon="1.14166">
        <ele>107.699997</ele>
        <time>2018-02-25T07:50:18Z</time>
      </trkpt>
      <trkpt lat="49.02019" lon="1.1417">
        <ele>107.800003</ele>
        <time>2018-02-25T07:50:21Z</time>
      </trkpt>
      <trkpt lat="49.02009" lon="1.14173">
        <ele>107.800003</ele>
        <time>2018-02-25T07:50:24Z</time>
      </trkpt>
      <trkpt lat="49.01999" lon="1.14177">
        <ele>107.900002</ele>
        <time>2018-02-25T07:50:27Z</time>
      </trkpt>
      <trkpt lat="49.01989" lon="1.14181">
        <ele>107.900002</ele>
        <time>2018-02-25T07:50:30Z</time>
      </trkpt>
      <trkpt lat="49.0198" lon="1.14185">
        <ele>107.900002</ele>
        <time>2018-02-25T07:50:33Z</time>
      </trkpt>
      <trkpt lat="49.0197" lon="1.14188">
        <ele>108.199997</ele>
        <time>2018-02-25T07:50:36Z</time>
      </trkpt>
      <trkpt lat="49.01961" lon="1.14192">
        <ele>108.400002</ele>
        <time>2018-02-25T07:50:39Z</time>
      </trkpt>
      <trkpt lat="49.01952" lon="1.14196">
        <ele>108.800003</ele>
        <time>2018-02-25T07:50:42Z</time>
      </trkpt>
      <trkpt lat="49.01943" lon="1.14199">
        <ele>109.099998</ele>
        <time>2018-02-25T07:50:45Z</time>
      </trkpt>
      <trkpt lat="49.01934" lon="1.14204">
        <ele>109.199997</ele>
        <time>2018-02-25T07:50:48Z</time>
      </trkpt>
      <trkpt lat="49.01924" lon="1.14208">
        <ele>109.300003</ele>
        <time>2018-02-25T07:50:51Z</time>
      </trkpt>
      <trkpt lat="49.01915" lon="1.14213">
        <ele>109.400002</ele>
        <time>2018-02-25T07:50:54Z</time>
      </trkpt>
      <trkpt lat="49.01907" lon="1.14219">
        <ele>109.599998</ele>
        <time>2018-02-25T07:50:57Z</time>
      </trkpt>
      <trkpt lat="49.01897" lon="1.14225">
        <ele>109.800003</ele>
        <time>2018-02-25T07:51:00Z</time>
      </trkpt>
      <trkpt lat="49.01887" lon="1.14232">
        <ele>110.099998</ele>
        <time>2018-02-25T07:51:04Z</time>
      </trkpt>
      <trkpt lat="49.01878" lon="1.14237">
        <ele>110.300003</ele>
        <time>2018-02-25T07:51:08Z</time>
      </trkpt>
      <trkpt lat="49.01868" lon="1.14242">
        <ele>111.199997</ele>
        <time>2018-02-25T07:51:53Z</time>
      </trkpt>
      <trkpt lat="49.01859" lon="1.14248">
        <ele>111.199997</ele>
        <time>2018-02-25T07:51:56Z</time>
      </trkpt>
      <trkpt lat="49.0185" lon="1.14254">
        <ele>111.400002</ele>
        <time>2018-02-25T07:51:59Z</time>
      </trkpt>
      <trkpt lat="49.01839" lon="1.14261">
        <ele>111.699997</ele>
        <time>2018-02-25T07:52:02Z</time>
      </trkpt>
      <trkpt lat="49.01828" lon="1.14268">
        <ele>111.800003</ele>
        <time>2018-02-25T07:52:05Z</time>
      </trkpt>
      <trkpt lat="49.01816" lon="1.14275">
        <ele>112</ele>
        <time>2018-02-25T07:52:08Z</time>
      </trkpt>
      <trkpt lat="49.01805" lon="1.1428">
        <ele>112.099998</ele>
        <time>2018-02-25T07:52:11Z</time>
      </trkpt>
      <trkpt lat="49.01794" lon="1.14287">
        <ele>112.400002</ele>
        <time>2018-02-25T07:52:14Z</time>
      </trkpt>
      <trkpt lat="49.01783" lon="1.14294">
        <ele>112.900002</ele>
        <time>2018-02-25T07:52:17Z</time>
      </trkpt>
      <trkpt lat="49.01772" lon="1.143">
        <ele>113.199997</ele>
        <time>2018-02-25T07:52:20Z</time>
      </trkpt>
      <trkpt lat="49.01761" lon="1.14305">
        <ele>113.699997</ele>
        <time>2018-02-25T07:52:24Z</time>
      </trkpt>
      <trkpt lat="49.01754" lon="1.14314">
        <ele>114</ele>
        <time>2018-02-25T07:52:27Z</time>
      </trkpt>
      <trkpt lat="49.01744" lon="1.14318">
        <ele>114.5</ele>
        <time>2018-02-25T07:52:30Z</time>
      </trkpt>
      <trkpt lat="49.01732" lon="1.14316">
        <ele>115.099998</ele>
        <time>2018-02-25T07:52:34Z</time>
      </trkpt>
      <trkpt lat="49.01722" lon="1.14317">
        <ele>115</ele>
        <time>2018-02-25T07:52:37Z</time>
      </trkpt>
      <trkpt lat="49.01706" lon="1.14337">
        <ele>115.800003</ele>
        <time>2018-02-25T07:52:40Z</time>
      </trkpt>
      <trkpt lat="49.01698" lon="1.14347">
        <ele>115.900002</ele>
        <time>2018-02-25T07:52:42Z</time>
      </trkpt>
      <trkpt lat="49.01687" lon="1.14352">
        <ele>116.5</ele>
        <time>2018-02-25T07:52:45Z</time>
      </trkpt>
      <trkpt lat="49.01677" lon="1.14359">
        <ele>117.099998</ele>
        <time>2018-02-25T07:52:48Z</time>
      </trkpt>
      <trkpt lat="49.01667" lon="1.14364">
        <ele>117.699997</ele>
        <time>2018-02-25T07:52:51Z</time>
      </trkpt>
      <trkpt lat="49.01658" lon="1.1437">
        <ele>118.300003</ele>
        <time>2018-02-25T07:52:54Z</time>
      </trkpt>
      <trkpt lat="49.01648" lon="1.14376">
        <ele>119</ele>
        <time>2018-02-25T07:52:57Z</time>
      </trkpt>
      <trkpt lat="49.01638" lon="1.14381">
        <ele>119.5</ele>
        <time>2018-02-25T07:53:00Z</time>
      </trkpt>
      <trkpt lat="49.01628" lon="1.14388">
        <ele>119.900002</ele>
        <time>2018-02-25T07:53:03Z</time>
      </trkpt>
      <trkpt lat="49.01618" lon="1.14393">
        <ele>120.5</ele>
        <time>2018-02-25T07:53:06Z</time>
      </trkpt>
      <trkpt lat="49.01609" lon="1.14399">
        <ele>121.199997</ele>
        <time>2018-02-25T07:53:09Z</time>
      </trkpt>
      <trkpt lat="49.01599" lon="1.14406">
        <ele>121.5</ele>
        <time>2018-02-25T07:53:12Z</time>
      </trkpt>
      <trkpt lat="49.01589" lon="1.14411">
        <ele>122.099998</ele>
        <time>2018-02-25T07:53:15Z</time>
      </trkpt>
      <trkpt lat="49.01579" lon="1.14414">
        <ele>122.5</ele>
        <time>2018-02-25T07:53:18Z</time>
      </trkpt>
      <trkpt lat="49.01569" lon="1.14417">
        <ele>123.099998</ele>
        <time>2018-02-25T07:53:21Z</time>
      </trkpt>
      <trkpt lat="49.01558" lon="1.14418">
        <ele>123.5</ele>
        <time>2018-02-25T07:53:24Z</time>
      </trkpt>
      <trkpt lat="49.01548" lon="1.14417">
        <ele>123.800003</ele>
        <time>2018-02-25T07:53:27Z</time>
      </trkpt>
      <trkpt lat="49.01537" lon="1.14416">
        <ele>124.199997</ele>
        <time>2018-02-25T07:53:30Z</time>
      </trkpt>
      <trkpt lat="49.01528" lon="1.14415">
        <ele>124.800003</ele>
        <time>2018-02-25T07:53:33Z</time>
      </trkpt>
      <trkpt lat="49.01518" lon="1.14414">
        <ele>125.199997</ele>
        <time>2018-02-25T07:53:36Z</time>
      </trkpt>
      <trkpt lat="49.01509" lon="1.14411">
        <ele>125.599998</ele>
        <time>2018-02-25T07:53:39Z</time>
      </trkpt>
      <trkpt lat="49.015" lon="1.14408">
        <ele>126.199997</ele>
        <time>2018-02-25T07:53:42Z</time>
      </trkpt>
      <trkpt lat="49.01491" lon="1.14404">
        <ele>126.5</ele>
        <time>2018-02-25T07:53:45Z</time>
      </trkpt>
      <trkpt lat="49.01482" lon="1.14398">
        <ele>127</ele>
        <time>2018-02-25T07:53:48Z</time>
      </trkpt>
      <trkpt lat="49.01474" lon="1.14393">
        <ele>127.599998</ele>
        <time>2018-02-25T07:53:51Z</time>
      </trkpt>
      <trkpt lat="49.01463" lon="1.14385">
        <ele>128.199997</ele>
        <time>2018-02-25T07:53:55Z</time>
      </trkpt>
      <trkpt lat="49.01456" lon="1.14377">
        <ele>128.600006</ele>
        <time>2018-02-25T07:53:58Z</time>
      </trkpt>
      <trkpt lat="49.01448" lon="1.1437">
        <ele>129</ele>
        <time>2018-02-25T07:54:01Z</time>
      </trkpt>
      <trkpt lat="49.0144" lon="1.14361">
        <ele>129.600006</ele>
        <time>2018-02-25T07:54:04Z</time>
      </trkpt>
      <trkpt lat="49.01433" lon="1.14352">
        <ele>130.100006</ele>
        <time>2018-02-25T07:54:07Z</time>
      </trkpt>
      <trkpt lat="49.01426" lon="1.14342">
        <ele>130.5</ele>
        <time>2018-02-25T07:54:10Z</time>
      </trkpt>
      <trkpt lat="49.01419" lon="1.14333">
        <ele>130.800003</ele>
        <time>2018-02-25T07:54:13Z</time>
      </trkpt>
      <trkpt lat="49.01411" lon="1.14324">
        <ele>131</ele>
        <time>2018-02-25T07:54:16Z</time>
      </trkpt>
      <trkpt lat="49.01404" lon="1.14315">
        <ele>131.600006</ele>
        <time>2018-02-25T07:54:19Z</time>
      </trkpt>
      <trkpt lat="49.01397" lon="1.14305">
        <ele>131.899994</ele>
        <time>2018-02-25T07:54:22Z</time>
      </trkpt>
      <trkpt lat="49.01389" lon="1.14296">
        <ele>132.199997</ele>
        <time>2018-02-25T07:54:25Z</time>
      </trkpt>
      <trkpt lat="49.01382" lon="1.14286">
        <ele>132.800003</ele>
        <time>2018-02-25T07:54:28Z</time>
      </trkpt>
      <trkpt lat="49.01374" lon="1.14276">
        <ele>133.199997</ele>
        <time>2018-02-25T07:54:31Z</time>
      </trkpt>
      <trkpt lat="49.01366" lon="1.14267">
        <ele>133.699997</ele>
        <time>2018-02-25T07:54:34Z</time>
      </trkpt>
      <trkpt lat="49.01359" lon="1.14257">
        <ele>134</ele>
        <time>2018-02-25T07:54:37Z</time>
      </trkpt>
      <trkpt lat="49.01351" lon="1.14247">
        <ele>134.399994</ele>
        <time>2018-02-25T07:54:40Z</time>
      </trkpt>
      <trkpt lat="49.01343" lon="1.14237">
        <ele>134.800003</ele>
        <time>2018-02-25T07:54:43Z</time>
      </trkpt>
      <trkpt lat="49.01335" lon="1.14227">
        <ele>135.300003</ele>
        <time>2018-02-25T07:54:46Z</time>
      </trkpt>
      <trkpt lat="49.01327" lon="1.14218">
        <ele>135.600006</ele>
        <time>2018-02-25T07:54:49Z</time>
      </trkpt>
      <trkpt lat="49.01319" lon="1.1421">
        <ele>136</ele>
        <time>2018-02-25T07:54:52Z</time>
      </trkpt>
      <trkpt lat="49.01309" lon="1.14202">
        <ele>136.399994</ele>
        <time>2018-02-25T07:54:55Z</time>
      </trkpt>
      <trkpt lat="49.013" lon="1.14194">
        <ele>136.699997</ele>
        <time>2018-02-25T07:54:58Z</time>
      </trkpt>
      <trkpt lat="49.0129" lon="1.14188">
        <ele>137</ele>
        <time>2018-02-25T07:55:01Z</time>
      </trkpt>
      <trkpt lat="49.01281" lon="1.14181">
        <ele>137.5</ele>
        <time>2018-02-25T07:55:04Z</time>
      </trkpt>
      <trkpt lat="49.01271" lon="1.14175">
        <ele>137.800003</ele>
        <time>2018-02-25T07:55:07Z</time>
      </trkpt>
      <trkpt lat="49.01261" lon="1.1417">
        <ele>138.300003</ele>
        <time>2018-02-25T07:55:10Z</time>
      </trkpt>
      <trkpt lat="49.0125" lon="1.14165">
        <ele>138.600006</ele>
        <time>2018-02-25T07:55:13Z</time>
      </trkpt>
      <trkpt lat="49.0124" lon="1.14161">
        <ele>138.899994</ele>
        <time>2018-02-25T07:55:16Z</time>
      </trkpt>
      <trkpt lat="49.01229" lon="1.14158">
        <ele>139.300003</ele>
        <time>2018-02-25T07:55:19Z</time>
      </trkpt>
      <trkpt lat="49.01218" lon="1.14156">
        <ele>139.600006</ele>
        <time>2018-02-25T07:55:22Z</time>
      </trkpt>
      <trkpt lat="49.01207" lon="1.14155">
        <ele>140.199997</ele>
        <time>2018-02-25T07:55:25Z</time>
      </trkpt>
      <trkpt lat="49.01196" lon="1.14154">
        <ele>140.399994</ele>
        <time>2018-02-25T07:55:28Z</time>
      </trkpt>
      <trkpt lat="49.01185" lon="1.14155">
        <ele>141</ele>
        <time>2018-02-25T07:55:31Z</time>
      </trkpt>
      <trkpt lat="49.01174" lon="1.14156">
        <ele>141.399994</ele>
        <time>2018-02-25T07:55:34Z</time>
      </trkpt>
      <trkpt lat="49.01162" lon="1.14158">
        <ele>141.899994</ele>
        <time>2018-02-25T07:55:37Z</time>
      </trkpt>
      <trkpt lat="49.01152" lon="1.14161">
        <ele>142.199997</ele>
        <time>2018-02-25T07:55:40Z</time>
      </trkpt>
      <trkpt lat="49.0114" lon="1.14165">
        <ele>142.600006</ele>
        <time>2018-02-25T07:55:43Z</time>
      </trkpt>
      <trkpt lat="49.0113" lon="1.14169">
        <ele>142.899994</ele>
        <time>2018-02-25T07:55:46Z</time>
      </trkpt>
      <trkpt lat="49.01119" lon="1.14174">
        <ele>143.300003</ele>
        <time>2018-02-25T07:55:49Z</time>
      </trkpt>
      <trkpt lat="49.01109" lon="1.14178">
        <ele>143.699997</ele>
        <time>2018-02-25T07:55:52Z</time>
      </trkpt>
      <trkpt lat="49.01099" lon="1.14183">
        <ele>144.100006</ele>
        <time>2018-02-25T07:55:55Z</time>
      </trkpt>
      <trkpt lat="49.01089" lon="1.14191">
        <ele>144.199997</ele>
        <time>2018-02-25T07:55:58Z</time>
      </trkpt>
      <trkpt lat="49.01079" lon="1.14198">
        <ele>144.600006</ele>
        <time>2018-02-25T07:56:01Z</time>
      </trkpt>
      <trkpt lat="49.01068" lon="1.14207">
        <ele>145.100006</ele>
        <time>2018-02-25T07:56:04Z</time>
      </trkpt>
      <trkpt lat="49.01059" lon="1.14214">
        <ele>145.600006</ele>
        <time>2018-02-25T07:56:07Z</time>
      </trkpt>
      <trkpt lat="49.01048" lon="1.14223">
        <ele>146</ele>
        <time>2018-02-25T07:56:10Z</time>
      </trkpt>
      <trkpt lat="49.01038" lon="1.1423">
        <ele>146.300003</ele>
        <time>2018-02-25T07:56:13Z</time>
      </trkpt>
      <trkpt lat="49.01029" lon="1.14238">
        <ele>146.600006</ele>
        <time>2018-02-25T07:56:16Z</time>
      </trkpt>
      <trkpt lat="49.01019" lon="1.14245">
        <ele>147.100006</ele>
        <time>2018-02-25T07:56:19Z</time>
      </trkpt>
      <trkpt lat="49.01009" lon="1.14252">
        <ele>147.5</ele>
        <time>2018-02-25T07:56:22Z</time>
      </trkpt>
      <trkpt lat="49.00999" lon="1.14258">
        <ele>147.699997</ele>
        <time>2018-02-25T07:56:25Z</time>
      </trkpt>
      <trkpt lat="49.0099" lon="1.14264">
        <ele>148.199997</ele>
        <time>2018-02-25T07:56:28Z</time>
      </trkpt>
      <trkpt lat="49.00981" lon="1.14271">
        <ele>148.899994</ele>
        <time>2018-02-25T07:56:31Z</time>
      </trkpt>
      <trkpt lat="49.00972" lon="1.14277">
        <ele>149.399994</ele>
        <time>2018-02-25T07:56:34Z</time>
      </trkpt>
      <trkpt lat="49.00962" lon="1.14284">
        <ele>150.100006</ele>
        <time>2018-02-25T07:56:37Z</time>
      </trkpt>
      <trkpt lat="49.00953" lon="1.14289">
        <ele>150.699997</ele>
        <time>2018-02-25T07:56:40Z</time>
      </trkpt>
      <trkpt lat="49.00945" lon="1.14294">
        <ele>151.300003</ele>
        <time>2018-02-25T07:56:43Z</time>
      </trkpt>
      <trkpt lat="49.00936" lon="1.14299">
        <ele>151.800003</ele>
        <time>2018-02-25T07:56:46Z</time>
      </trkpt>
      <trkpt lat="49.00927" lon="1.14304">
        <ele>152.300003</ele>
        <time>2018-02-25T07:56:49Z</time>
      </trkpt>
      <trkpt lat="49.00918" lon="1.14308">
        <ele>152.800003</ele>
        <time>2018-02-25T07:56:52Z</time>
      </trkpt>
      <trkpt lat="49.0091" lon="1.14313">
        <ele>153.399994</ele>
        <time>2018-02-25T07:56:55Z</time>
      </trkpt>
      <trkpt lat="49.00899" lon="1.14317">
        <ele>154.100006</ele>
        <time>2018-02-25T07:56:59Z</time>
      </trkpt>
      <trkpt lat="49.00888" lon="1.14321">
        <ele>154.600006</ele>
        <time>2018-02-25T07:57:03Z</time>
      </trkpt>
      <trkpt lat="49.00877" lon="1.14324">
        <ele>155.5</ele>
        <time>2018-02-25T07:57:07Z</time>
      </trkpt>
      <trkpt lat="49.00868" lon="1.14328">
        <ele>156.100006</ele>
        <time>2018-02-25T07:57:10Z</time>
      </trkpt>
      <trkpt lat="49.00857" lon="1.1433">
        <ele>156.699997</ele>
        <time>2018-02-25T07:57:14Z</time>
      </trkpt>
      <trkpt lat="49.00846" lon="1.14332">
        <ele>157.5</ele>
        <time>2018-02-25T07:57:18Z</time>
      </trkpt>
      <trkpt lat="49.00835" lon="1.14337">
        <ele>158.199997</ele>
        <time>2018-02-25T07:57:22Z</time>
      </trkpt>
      <trkpt lat="49.00826" lon="1.1434">
        <ele>159</ele>
        <time>2018-02-25T07:57:25Z</time>
      </trkpt>
      <trkpt lat="49.00817" lon="1.1434">
        <ele>159.699997</ele>
        <time>2018-02-25T07:57:28Z</time>
      </trkpt>
      <trkpt lat="49.00805" lon="1.14337">
        <ele>160.899994</ele>
        <time>2018-02-25T07:57:32Z</time>
      </trkpt>
      <trkpt lat="49.00795" lon="1.14347">
        <ele>161.899994</ele>
        <time>2018-02-25T07:57:36Z</time>
      </trkpt>
      <trkpt lat="49.00787" lon="1.14355">
        <ele>162.300003</ele>
        <time>2018-02-25T07:57:39Z</time>
      </trkpt>
      <trkpt lat="49.00779" lon="1.14359">
        <ele>162.699997</ele>
        <time>2018-02-25T07:57:42Z</time>
      </trkpt>
      <trkpt lat="49.0077" lon="1.14364">
        <ele>163.100006</ele>
        <time>2018-02-25T07:57:45Z</time>
      </trkpt>
      <trkpt lat="49.00761" lon="1.14368">
        <ele>163.600006</ele>
        <time>2018-02-25T07:57:48Z</time>
      </trkpt>
      <trkpt lat="49.00753" lon="1.14373">
        <ele>164.100006</ele>
        <time>2018-02-25T07:57:51Z</time>
      </trkpt>
      <trkpt lat="49.00744" lon="1.14378">
        <ele>164.600006</ele>
        <time>2018-02-25T07:57:54Z</time>
      </trkpt>
      <trkpt lat="49.00736" lon="1.14383">
        <ele>165.100006</ele>
        <time>2018-02-25T07:57:57Z</time>
      </trkpt>
      <trkpt lat="49.00727" lon="1.14389">
        <ele>165.600006</ele>
        <time>2018-02-25T07:58:00Z</time>
      </trkpt>
      <trkpt lat="49.00719" lon="1.14395">
        <ele>166.100006</ele>
        <time>2018-02-25T07:58:03Z</time>
      </trkpt>
      <trkpt lat="49.00711" lon="1.14402">
        <ele>166.800003</ele>
        <time>2018-02-25T07:58:06Z</time>
      </trkpt>
      <trkpt lat="49.00702" lon="1.14408">
        <ele>167.399994</ele>
        <time>2018-02-25T07:58:09Z</time>
      </trkpt>
      <trkpt lat="49.00694" lon="1.14415">
        <ele>167.899994</ele>
        <time>2018-02-25T07:58:12Z</time>
      </trkpt>
      <trkpt lat="49.00686" lon="1.14422">
        <ele>168.5</ele>
        <time>2018-02-25T07:58:15Z</time>
      </trkpt>
      <trkpt lat="49.00677" lon="1.1443">
        <ele>169</ele>
        <time>2018-02-25T07:58:18Z</time>
      </trkpt>
      <trkpt lat="49.00669" lon="1.14437">
        <ele>169.5</ele>
        <time>2018-02-25T07:58:21Z</time>
      </trkpt>
      <trkpt lat="49.00661" lon="1.14445">
        <ele>169.699997</ele>
        <time>2018-02-25T07:58:24Z</time>
      </trkpt>
      <trkpt lat="49.0065" lon="1.14442">
        <ele>170.300003</ele>
        <time>2018-02-25T07:58:28Z</time>
      </trkpt>
      <trkpt lat="49.00642" lon="1.14429">
        <ele>170.699997</ele>
        <time>2018-02-25T07:58:32Z</time>
      </trkpt>
      <trkpt lat="49.00638" lon="1.14415">
        <ele>170.600006</ele>
        <time>2018-02-25T07:58:35Z</time>
      </trkpt>
      <trkpt lat="49.00634" lon="1.14398">
        <ele>170.600006</ele>
        <time>2018-02-25T07:58:38Z</time>
      </trkpt>
      <trkpt lat="49.0063" lon="1.1438">
        <ele>170.399994</ele>
        <time>2018-02-25T07:58:41Z</time>
      </trkpt>
      <trkpt lat="49.00626" lon="1.14361">
        <ele>170</ele>
        <time>2018-02-25T07:58:44Z</time>
      </trkpt>
      <trkpt lat="49.00621" lon="1.14343">
        <ele>169.899994</ele>
        <time>2018-02-25T07:58:47Z</time>
      </trkpt>
      <trkpt lat="49.00617" lon="1.14326">
        <ele>169.800003</ele>
        <time>2018-02-25T07:58:50Z</time>
      </trkpt>
      <trkpt lat="49.00612" lon="1.14308">
        <ele>169.699997</ele>
        <time>2018-02-25T07:58:53Z</time>
      </trkpt>
      <trkpt lat="49.00607" lon="1.14289">
        <ele>169.800003</ele>
        <time>2018-02-25T07:58:56Z</time>
      </trkpt>
      <trkpt lat="49.00602" lon="1.1427">
        <ele>169.699997</ele>
        <time>2018-02-25T07:58:59Z</time>
      </trkpt>
      <trkpt lat="49.00598" lon="1.14252">
        <ele>169.600006</ele>
        <time>2018-02-25T07:59:02Z</time>
      </trkpt>
      <trkpt lat="49.00593" lon="1.14234">
        <ele>169.5</ele>
        <time>2018-02-25T07:59:05Z</time>
      </trkpt>
      <trkpt lat="49.00588" lon="1.14216">
        <ele>169.199997</ele>
        <time>2018-02-25T07:59:08Z</time>
      </trkpt>
      <trkpt lat="49.00583" lon="1.14198">
        <ele>169.100006</ele>
        <time>2018-02-25T07:59:11Z</time>
      </trkpt>
      <trkpt lat="49.00579" lon="1.1418">
        <ele>168.899994</ele>
        <time>2018-02-25T07:59:14Z</time>
      </trkpt>
      <trkpt lat="49.00574" lon="1.14162">
        <ele>168.800003</ele>
        <time>2018-02-25T07:59:17Z</time>
      </trkpt>
      <trkpt lat="49.0057" lon="1.14144">
        <ele>169</ele>
        <time>2018-02-25T07:59:20Z</time>
      </trkpt>
      <trkpt lat="49.00565" lon="1.14127">
        <ele>169.100006</ele>
        <time>2018-02-25T07:59:23Z</time>
      </trkpt>
      <trkpt lat="49.00562" lon="1.14112">
        <ele>169.199997</ele>
        <time>2018-02-25T07:59:26Z</time>
      </trkpt>
      <trkpt lat="49.00565" lon="1.14095">
        <ele>169</ele>
        <time>2018-02-25T07:59:30Z</time>
      </trkpt>
      <trkpt lat="49.00564" lon="1.14079">
        <ele>168.800003</ele>
        <time>2018-02-25T07:59:34Z</time>
      </trkpt>
      <trkpt lat="49.00561" lon="1.14064">
        <ele>168</ele>
        <time>2018-02-25T07:59:39Z</time>
      </trkpt>
      <trkpt lat="49.00565" lon="1.14051">
        <ele>167.800003</ele>
        <time>2018-02-25T07:59:43Z</time>
      </trkpt>
      <trkpt lat="49.00575" lon="1.14045">
        <ele>167.600006</ele>
        <time>2018-02-25T07:59:49Z</time>
      </trkpt>
      <trkpt lat="49.00585" lon="1.14045">
        <ele>167.399994</ele>
        <time>2018-02-25T07:59:52Z</time>
      </trkpt>
      <trkpt lat="49.00595" lon="1.14047">
        <ele>167.300003</ele>
        <time>2018-02-25T07:59:56Z</time>
      </trkpt>
      <trkpt lat="49.00603" lon="1.14039">
        <ele>167.300003</ele>
        <time>2018-02-25T08:00:00Z</time>
      </trkpt>
      <trkpt lat="49.00611" lon="1.14029">
        <ele>166.800003</ele>
        <time>2018-02-25T08:00:04Z</time>
      </trkpt>
      <trkpt lat="49.00615" lon="1.14016">
        <ele>166.699997</ele>
        <time>2018-02-25T08:00:07Z</time>
      </trkpt>
      <trkpt lat="49.0062" lon="1.13998">
        <ele>166.5</ele>
        <time>2018-02-25T08:00:10Z</time>
      </trkpt>
      <trkpt lat="49.00628" lon="1.13982">
        <ele>166.399994</ele>
        <time>2018-02-25T08:00:13Z</time>
      </trkpt>
      <trkpt lat="49.00633" lon="1.13968">
        <ele>166.300003</ele>
        <time>2018-02-25T08:00:15Z</time>
      </trkpt>
      <trkpt lat="49.00638" lon="1.13956">
        <ele>166</ele>
        <time>2018-02-25T08:00:17Z</time>
      </trkpt>
      <trkpt lat="49.00642" lon="1.13941">
        <ele>165.600006</ele>
        <time>2018-02-25T08:00:19Z</time>
      </trkpt>
      <trkpt lat="49.00647" lon="1.13925">
        <ele>165.300003</ele>
        <time>2018-02-25T08:00:21Z</time>
      </trkpt>
      <trkpt lat="49.00652" lon="1.13911">
        <ele>164.800003</ele>
        <time>2018-02-25T08:00:23Z</time>
      </trkpt>
      <trkpt lat="49.00655" lon="1.13897">
        <ele>164.5</ele>
        <time>2018-02-25T08:00:25Z</time>
      </trkpt>
      <trkpt lat="49.00659" lon="1.13885">
        <ele>164.100006</ele>
        <time>2018-02-25T08:00:27Z</time>
      </trkpt>
      <trkpt lat="49.00664" lon="1.1387">
        <ele>164</ele>
        <time>2018-02-25T08:00:30Z</time>
      </trkpt>
      <trkpt lat="49.00673" lon="1.13874">
        <ele>163.300003</ele>
        <time>2018-02-25T08:00:34Z</time>
      </trkpt>
      <trkpt lat="49.00684" lon="1.13879">
        <ele>163</ele>
        <time>2018-02-25T08:00:39Z</time>
      </trkpt>
      <trkpt lat="49.00693" lon="1.13882">
        <ele>162.800003</ele>
        <time>2018-02-25T08:00:42Z</time>
      </trkpt>
      <trkpt lat="49.00703" lon="1.13886">
        <ele>163.199997</ele>
        <time>2018-02-25T08:00:47Z</time>
      </trkpt>
      <trkpt lat="49.00716" lon="1.13885">
        <ele>163.5</ele>
        <time>2018-02-25T08:00:50Z</time>
      </trkpt>
      <trkpt lat="49.00726" lon="1.13885">
        <ele>163.800003</ele>
        <time>2018-02-25T08:00:53Z</time>
      </trkpt>
      <trkpt lat="49.00737" lon="1.13889">
        <ele>164.100006</ele>
        <time>2018-02-25T08:00:56Z</time>
      </trkpt>
      <trkpt lat="49.00752" lon="1.13887">
        <ele>164.300003</ele>
        <time>2018-02-25T08:00:59Z</time>
      </trkpt>
      <trkpt lat="49.00764" lon="1.13884">
        <ele>164.399994</ele>
        <time>2018-02-25T08:01:02Z</time>
      </trkpt>
      <trkpt lat="49.00773" lon="1.1388">
        <ele>164.5</ele>
        <time>2018-02-25T08:01:04Z</time>
      </trkpt>
      <trkpt lat="49.00785" lon="1.13873">
        <ele>164.699997</ele>
        <time>2018-02-25T08:01:07Z</time>
      </trkpt>
      <trkpt lat="49.00797" lon="1.13867">
        <ele>164.899994</ele>
        <time>2018-02-25T08:01:10Z</time>
      </trkpt>
      <trkpt lat="49.00808" lon="1.13861">
        <ele>164.899994</ele>
        <time>2018-02-25T08:01:13Z</time>
      </trkpt>
      <trkpt lat="49.00816" lon="1.13857">
        <ele>165.199997</ele>
        <time>2018-02-25T08:01:15Z</time>
      </trkpt>
      <trkpt lat="49.00827" lon="1.13852">
        <ele>165.5</ele>
        <time>2018-02-25T08:01:18Z</time>
      </trkpt>
      <trkpt lat="49.00838" lon="1.13845">
        <ele>165.600006</ele>
        <time>2018-02-25T08:01:21Z</time>
      </trkpt>
      <trkpt lat="49.00848" lon="1.1384">
        <ele>166</ele>
        <time>2018-02-25T08:01:24Z</time>
      </trkpt>
      <trkpt lat="49.00857" lon="1.13833">
        <ele>165.899994</ele>
        <time>2018-02-25T08:01:28Z</time>
      </trkpt>
      <trkpt lat="49.00867" lon="1.13837">
        <ele>166.100006</ele>
        <time>2018-02-25T08:01:34Z</time>
      </trkpt>
      <trkpt lat="49.00874" lon="1.13826">
        <ele>166.100006</ele>
        <time>2018-02-25T08:01:40Z</time>
      </trkpt>
      <trkpt lat="49.00879" lon="1.13813">
        <ele>166.100006</ele>
        <time>2018-02-25T08:01:44Z</time>
      </trkpt>
      <trkpt lat="49.00886" lon="1.13804">
        <ele>166.300003</ele>
        <time>2018-02-25T08:01:47Z</time>
      </trkpt>
      <trkpt lat="49.0089" lon="1.13791">
        <ele>166.600006</ele>
        <time>2018-02-25T08:01:51Z</time>
      </trkpt>
      <trkpt lat="49.00891" lon="1.13775">
        <ele>166.800003</ele>
        <time>2018-02-25T08:01:55Z</time>
      </trkpt>
      <trkpt lat="49.00899" lon="1.13763">
        <ele>166.899994</ele>
        <time>2018-02-25T08:01:59Z</time>
      </trkpt>
      <trkpt lat="49.0091" lon="1.13759">
        <ele>167.100006</ele>
        <time>2018-02-25T08:02:03Z</time>
      </trkpt>
      <trkpt lat="49.00921" lon="1.13761">
        <ele>166.899994</ele>
        <time>2018-02-25T08:02:07Z</time>
      </trkpt>
      <trkpt lat="49.00931" lon="1.13762">
        <ele>167.100006</ele>
        <time>2018-02-25T08:02:10Z</time>
      </trkpt>
      <trkpt lat="49.00941" lon="1.13759">
        <ele>167.100006</ele>
        <time>2018-02-25T08:02:14Z</time>
      </trkpt>
      <trkpt lat="49.0095" lon="1.13757">
        <ele>167</ele>
        <time>2018-02-25T08:02:17Z</time>
      </trkpt>
      <trkpt lat="49.0096" lon="1.1375">
        <ele>167.100006</ele>
        <time>2018-02-25T08:02:20Z</time>
      </trkpt>
      <trkpt lat="49.00971" lon="1.13749">
        <ele>167.199997</ele>
        <time>2018-02-25T08:02:23Z</time>
      </trkpt>
      <trkpt lat="49.0098" lon="1.13748">
        <ele>167.399994</ele>
        <time>2018-02-25T08:02:26Z</time>
      </trkpt>
      <trkpt lat="49.00992" lon="1.1375">
        <ele>167.300003</ele>
        <time>2018-02-25T08:02:30Z</time>
      </trkpt>
      <trkpt lat="49.01002" lon="1.13745">
        <ele>167.300003</ele>
        <time>2018-02-25T08:02:33Z</time>
      </trkpt>
      <trkpt lat="49.01011" lon="1.13743">
        <ele>167.100006</ele>
        <time>2018-02-25T08:02:36Z</time>
      </trkpt>
      <trkpt lat="49.0102" lon="1.13741">
        <ele>167</ele>
        <time>2018-02-25T08:02:40Z</time>
      </trkpt>
      <trkpt lat="49.01029" lon="1.13737">
        <ele>167.199997</ele>
        <time>2018-02-25T08:02:52Z</time>
      </trkpt>
      <trkpt lat="49.01039" lon="1.13737">
        <ele>167.300003</ele>
        <time>2018-02-25T08:02:59Z</time>
      </trkpt>
      <trkpt lat="49.01043" lon="1.13751">
        <ele>166.899994</ele>
        <time>2018-02-25T08:03:09Z</time>
      </trkpt>
      <trkpt lat="49.01047" lon="1.13766">
        <ele>166.800003</ele>
        <time>2018-02-25T08:03:12Z</time>
      </trkpt>
      <trkpt lat="49.0105" lon="1.13783">
        <ele>166.800003</ele>
        <time>2018-02-25T08:03:15Z</time>
      </trkpt>
      <trkpt lat="49.01045" lon="1.13797">
        <ele>166.600006</ele>
        <time>2018-02-25T08:03:18Z</time>
      </trkpt>
      <trkpt lat="49.01035" lon="1.13803">
        <ele>166.600006</ele>
        <time>2018-02-25T08:03:21Z</time>
      </trkpt>
      <trkpt lat="49.01024" lon="1.1381">
        <ele>166.199997</ele>
        <time>2018-02-25T08:03:24Z</time>
      </trkpt>
      <trkpt lat="49.01012" lon="1.13818">
        <ele>166</ele>
        <time>2018-02-25T08:03:27Z</time>
      </trkpt>
      <trkpt lat="49.01" lon="1.13825">
        <ele>165.699997</ele>
        <time>2018-02-25T08:03:30Z</time>
      </trkpt>
      <trkpt lat="49.00987" lon="1.13833">
        <ele>165.699997</ele>
        <time>2018-02-25T08:03:33Z</time>
      </trkpt>
      <trkpt lat="49.00976" lon="1.1384">
        <ele>165.5</ele>
        <time>2018-02-25T08:03:36Z</time>
      </trkpt>
      <trkpt lat="49.00963" lon="1.13847">
        <ele>165.300003</ele>
        <time>2018-02-25T08:03:39Z</time>
      </trkpt>
      <trkpt lat="49.00955" lon="1.13852">
        <ele>165.100006</ele>
        <time>2018-02-25T08:03:41Z</time>
      </trkpt>
      <trkpt lat="49.00942" lon="1.13858">
        <ele>165.100006</ele>
        <time>2018-02-25T08:03:44Z</time>
      </trkpt>
      <trkpt lat="49.00931" lon="1.13866">
        <ele>164.699997</ele>
        <time>2018-02-25T08:03:47Z</time>
      </trkpt>
      <trkpt lat="49.00919" lon="1.13873">
        <ele>164.800003</ele>
        <time>2018-02-25T08:03:50Z</time>
      </trkpt>
      <trkpt lat="49.0091" lon="1.13879">
        <ele>164.699997</ele>
        <time>2018-02-25T08:03:53Z</time>
      </trkpt>
      <trkpt lat="49.00915" lon="1.13893">
        <ele>163.5</ele>
        <time>2018-02-25T08:04:00Z</time>
      </trkpt>
      <trkpt lat="49.00922" lon="1.13905">
        <ele>160.899994</ele>
        <time>2018-02-25T08:04:07Z</time>
      </trkpt>
      <trkpt lat="49.0093" lon="1.1391">
        <ele>158.600006</ele>
        <time>2018-02-25T08:04:17Z</time>
      </trkpt>
      <trkpt lat="49.00938" lon="1.13903">
        <ele>158.399994</ele>
        <time>2018-02-25T08:04:42Z</time>
      </trkpt>
      <trkpt lat="49.0094" lon="1.13888">
        <ele>160.699997</ele>
        <time>2018-02-25T08:04:49Z</time>
      </trkpt>
      <trkpt lat="49.00941" lon="1.13874">
        <ele>162.699997</ele>
        <time>2018-02-25T08:05:00Z</time>
      </trkpt>
      <trkpt lat="49.00949" lon="1.13864">
        <ele>164.300003</ele>
        <time>2018-02-25T08:05:13Z</time>
      </trkpt>
      <trkpt lat="49.00961" lon="1.13858">
        <ele>164.5</ele>
        <time>2018-02-25T08:05:17Z</time>
      </trkpt>
      <trkpt lat="49.00971" lon="1.13852">
        <ele>164.5</ele>
        <time>2018-02-25T08:05:20Z</time>
      </trkpt>
      <trkpt lat="49.00981" lon="1.13846">
        <ele>164.399994</ele>
        <time>2018-02-25T08:05:23Z</time>
      </trkpt>
      <trkpt lat="49.00991" lon="1.1384">
        <ele>164.5</ele>
        <time>2018-02-25T08:05:26Z</time>
      </trkpt>
      <trkpt lat="49.01002" lon="1.13834">
        <ele>164.800003</ele>
        <time>2018-02-25T08:05:29Z</time>
      </trkpt>
      <trkpt lat="49.01012" lon="1.13828">
        <ele>164.800003</ele>
        <time>2018-02-25T08:05:32Z</time>
      </trkpt>
      <trkpt lat="49.01022" lon="1.1382">
        <ele>165</ele>
        <time>2018-02-25T08:05:35Z</time>
      </trkpt>
      <trkpt lat="49.01033" lon="1.13812">
        <ele>165.199997</ele>
        <time>2018-02-25T08:05:38Z</time>
      </trkpt>
      <trkpt lat="49.01044" lon="1.13806">
        <ele>165.5</ele>
        <time>2018-02-25T08:05:41Z</time>
      </trkpt>
      <trkpt lat="49.01054" lon="1.13803">
        <ele>165.800003</ele>
        <time>2018-02-25T08:05:44Z</time>
      </trkpt>
      <trkpt lat="49.0106" lon="1.13818">
        <ele>165.600006</ele>
        <time>2018-02-25T08:05:48Z</time>
      </trkpt>
      <trkpt lat="49.01066" lon="1.13837">
        <ele>165.5</ele>
        <time>2018-02-25T08:05:51Z</time>
      </trkpt>
      <trkpt lat="49.01069" lon="1.1385">
        <ele>165.300003</ele>
        <time>2018-02-25T08:05:53Z</time>
      </trkpt>
      <trkpt lat="49.01072" lon="1.13863">
        <ele>165.100006</ele>
        <time>2018-02-25T08:05:55Z</time>
      </trkpt>
      <trkpt lat="49.01076" lon="1.13879">
        <ele>164.800003</ele>
        <time>2018-02-25T08:05:58Z</time>
      </trkpt>
      <trkpt lat="49.01081" lon="1.13895">
        <ele>164.300003</ele>
        <time>2018-02-25T08:06:01Z</time>
      </trkpt>
      <trkpt lat="49.01086" lon="1.13911">
        <ele>164.100006</ele>
        <time>2018-02-25T08:06:04Z</time>
      </trkpt>
      <trkpt lat="49.01089" lon="1.13925">
        <ele>163.899994</ele>
        <time>2018-02-25T08:06:06Z</time>
      </trkpt>
      <trkpt lat="49.01091" lon="1.13939">
        <ele>163.600006</ele>
        <time>2018-02-25T08:06:08Z</time>
      </trkpt>
      <trkpt lat="49.01095" lon="1.13953">
        <ele>163.199997</ele>
        <time>2018-02-25T08:06:10Z</time>
      </trkpt>
      <trkpt lat="49.01099" lon="1.13966">
        <ele>162.899994</ele>
        <time>2018-02-25T08:06:12Z</time>
      </trkpt>
      <trkpt lat="49.01104" lon="1.13977">
        <ele>162.5</ele>
        <time>2018-02-25T08:06:14Z</time>
      </trkpt>
      <trkpt lat="49.01116" lon="1.13985">
        <ele>162.100006</ele>
        <time>2018-02-25T08:06:17Z</time>
      </trkpt>
      <trkpt lat="49.01129" lon="1.1399">
        <ele>162.300003</ele>
        <time>2018-02-25T08:06:20Z</time>
      </trkpt>
      <trkpt lat="49.01138" lon="1.13996">
        <ele>162.300003</ele>
        <time>2018-02-25T08:06:23Z</time>
      </trkpt>
      <trkpt lat="49.01149" lon="1.14003">
        <ele>162.100006</ele>
        <time>2018-02-25T08:06:26Z</time>
      </trkpt>
      <trkpt lat="49.01163" lon="1.14008">
        <ele>161.800003</ele>
        <time>2018-02-25T08:06:29Z</time>
      </trkpt>
      <trkpt lat="49.01175" lon="1.14012">
        <ele>161.600006</ele>
        <time>2018-02-25T08:06:31Z</time>
      </trkpt>
      <trkpt lat="49.01185" lon="1.14017">
        <ele>161.399994</ele>
        <time>2018-02-25T08:06:33Z</time>
      </trkpt>
      <trkpt lat="49.01195" lon="1.14019">
        <ele>161</ele>
        <time>2018-02-25T08:06:35Z</time>
      </trkpt>
      <trkpt lat="49.01207" lon="1.14025">
        <ele>160.5</ele>
        <time>2018-02-25T08:06:38Z</time>
      </trkpt>
      <trkpt lat="49.01216" lon="1.14029">
        <ele>160.199997</ele>
        <time>2018-02-25T08:06:40Z</time>
      </trkpt>
      <trkpt lat="49.01228" lon="1.14036">
        <ele>159.899994</ele>
        <time>2018-02-25T08:06:43Z</time>
      </trkpt>
      <trkpt lat="49.01236" lon="1.14046">
        <ele>160.100006</ele>
        <time>2018-02-25T08:06:45Z</time>
      </trkpt>
      <trkpt lat="49.01243" lon="1.14054">
        <ele>160</ele>
        <time>2018-02-25T08:06:47Z</time>
      </trkpt>
      <trkpt lat="49.01254" lon="1.14061">
        <ele>159.800003</ele>
        <time>2018-02-25T08:06:49Z</time>
      </trkpt>
      <trkpt lat="49.01263" lon="1.14064">
        <ele>159.399994</ele>
        <time>2018-02-25T08:06:51Z</time>
      </trkpt>
      <trkpt lat="49.01277" lon="1.14068">
        <ele>159.300003</ele>
        <time>2018-02-25T08:06:54Z</time>
      </trkpt>
      <trkpt lat="49.01289" lon="1.14071">
        <ele>159.600006</ele>
        <time>2018-02-25T08:06:57Z</time>
      </trkpt>
      <trkpt lat="49.01299" lon="1.14078">
        <ele>159.600006</ele>
        <time>2018-02-25T08:07:00Z</time>
      </trkpt>
      <trkpt lat="49.01308" lon="1.14082">
        <ele>159.899994</ele>
        <time>2018-02-25T08:07:03Z</time>
      </trkpt>
      <trkpt lat="49.01318" lon="1.14092">
        <ele>159.899994</ele>
        <time>2018-02-25T08:07:06Z</time>
      </trkpt>
      <trkpt lat="49.01321" lon="1.14106">
        <ele>159.800003</ele>
        <time>2018-02-25T08:07:09Z</time>
      </trkpt>
      <trkpt lat="49.01319" lon="1.14121">
        <ele>159.300003</ele>
        <time>2018-02-25T08:07:12Z</time>
      </trkpt>
      <trkpt lat="49.0132" lon="1.14134">
        <ele>158</ele>
        <time>2018-02-25T08:07:16Z</time>
      </trkpt>
      <trkpt lat="49.01323" lon="1.14149">
        <ele>154.800003</ele>
        <time>2018-02-25T08:07:23Z</time>
      </trkpt>
      <trkpt lat="49.0133" lon="1.14159">
        <ele>152.899994</ele>
        <time>2018-02-25T08:07:26Z</time>
      </trkpt>
      <trkpt lat="49.01338" lon="1.14168">
        <ele>151.5</ele>
        <time>2018-02-25T08:07:28Z</time>
      </trkpt>
      <trkpt lat="49.01346" lon="1.14177">
        <ele>150.399994</ele>
        <time>2018-02-25T08:07:31Z</time>
      </trkpt>
      <trkpt lat="49.01352" lon="1.14188">
        <ele>150</ele>
        <time>2018-02-25T08:08:58Z</time>
      </trkpt>
      <trkpt lat="49.01359" lon="1.14198">
        <ele>150.100006</ele>
        <time>2018-02-25T08:09:06Z</time>
      </trkpt>
      <trkpt lat="49.01367" lon="1.14208">
        <ele>150.699997</ele>
        <time>2018-02-25T08:09:11Z</time>
      </trkpt>
      <trkpt lat="49.01375" lon="1.14218">
        <ele>150.899994</ele>
        <time>2018-02-25T08:09:15Z</time>
      </trkpt>
      <trkpt lat="49.01386" lon="1.14223">
        <ele>151.600006</ele>
        <time>2018-02-25T08:09:19Z</time>
      </trkpt>
      <trkpt lat="49.01396" lon="1.14225">
        <ele>152.100006</ele>
        <time>2018-02-25T08:09:23Z</time>
      </trkpt>
      <trkpt lat="49.01405" lon="1.14233">
        <ele>152.399994</ele>
        <time>2018-02-25T08:09:27Z</time>
      </trkpt>
      <trkpt lat="49.01414" lon="1.14243">
        <ele>152.600006</ele>
        <time>2018-02-25T08:09:31Z</time>
      </trkpt>
      <trkpt lat="49.01422" lon="1.14253">
        <ele>151.699997</ele>
        <time>2018-02-25T08:09:37Z</time>
      </trkpt>
      <trkpt lat="49.0143" lon="1.14262">
        <ele>151.100006</ele>
        <time>2018-02-25T08:09:41Z</time>
      </trkpt>
      <trkpt lat="49.01442" lon="1.14267">
        <ele>150.600006</ele>
        <time>2018-02-25T08:09:45Z</time>
      </trkpt>
      <trkpt lat="49.01451" lon="1.14265">
        <ele>150.100006</ele>
        <time>2018-02-25T08:09:50Z</time>
      </trkpt>
      <trkpt lat="49.01453" lon="1.1425">
        <ele>150.300003</ele>
        <time>2018-02-25T08:09:55Z</time>
      </trkpt>
      <trkpt lat="49.01459" lon="1.14237">
        <ele>150.899994</ele>
        <time>2018-02-25T08:09:59Z</time>
      </trkpt>
      <trkpt lat="49.01463" lon="1.14221">
        <ele>151.399994</ele>
        <time>2018-02-25T08:10:03Z</time>
      </trkpt>
      <trkpt lat="49.01467" lon="1.14206">
        <ele>152.100006</ele>
        <time>2018-02-25T08:10:07Z</time>
      </trkpt>
      <trkpt lat="49.01471" lon="1.14192">
        <ele>153.300003</ele>
        <time>2018-02-25T08:10:11Z</time>
      </trkpt>
      <trkpt lat="49.01475" lon="1.14175">
        <ele>154.199997</ele>
        <time>2018-02-25T08:10:16Z</time>
      </trkpt>
      <trkpt lat="49.01478" lon="1.1416">
        <ele>154.800003</ele>
        <time>2018-02-25T08:10:20Z</time>
      </trkpt>
      <trkpt lat="49.01482" lon="1.14147">
        <ele>155.199997</ele>
        <time>2018-02-25T08:10:23Z</time>
      </trkpt>
      <trkpt lat="49.01486" lon="1.14134">
        <ele>155.399994</ele>
        <time>2018-02-25T08:10:26Z</time>
      </trkpt>
      <trkpt lat="49.0149" lon="1.14121">
        <ele>155.600006</ele>
        <time>2018-02-25T08:10:29Z</time>
      </trkpt>
      <trkpt lat="49.01495" lon="1.14108">
        <ele>156</ele>
        <time>2018-02-25T08:10:32Z</time>
      </trkpt>
      <trkpt lat="49.01497" lon="1.14094">
        <ele>156.100006</ele>
        <time>2018-02-25T08:10:35Z</time>
      </trkpt>
      <trkpt lat="49.01497" lon="1.14076">
        <ele>156.300003</ele>
        <time>2018-02-25T08:10:39Z</time>
      </trkpt>
      <trkpt lat="49.01496" lon="1.14062">
        <ele>156.600006</ele>
        <time>2018-02-25T08:10:42Z</time>
      </trkpt>
      <trkpt lat="49.01495" lon="1.14048">
        <ele>156.899994</ele>
        <time>2018-02-25T08:10:45Z</time>
      </trkpt>
      <trkpt lat="49.01503" lon="1.14041">
        <ele>157.300003</ele>
        <time>2018-02-25T08:10:51Z</time>
      </trkpt>
      <trkpt lat="49.01512" lon="1.14051">
        <ele>157.300003</ele>
        <time>2018-02-25T08:10:55Z</time>
      </trkpt>
      <trkpt lat="49.01516" lon="1.14063">
        <ele>157</ele>
        <time>2018-02-25T08:10:58Z</time>
      </trkpt>
      <trkpt lat="49.01519" lon="1.14079">
        <ele>156.699997</ele>
        <time>2018-02-25T08:11:02Z</time>
      </trkpt>
      <trkpt lat="49.01522" lon="1.14095">
        <ele>155.899994</ele>
        <time>2018-02-25T08:11:06Z</time>
      </trkpt>
      <trkpt lat="49.01528" lon="1.1411">
        <ele>155.199997</ele>
        <time>2018-02-25T08:11:10Z</time>
      </trkpt>
      <trkpt lat="49.01533" lon="1.14122">
        <ele>154.600006</ele>
        <time>2018-02-25T08:11:13Z</time>
      </trkpt>
      <trkpt lat="49.01538" lon="1.14135">
        <ele>154.300003</ele>
        <time>2018-02-25T08:11:16Z</time>
      </trkpt>
      <trkpt lat="49.01545" lon="1.14146">
        <ele>154</ele>
        <time>2018-02-25T08:11:20Z</time>
      </trkpt>
      <trkpt lat="49.01554" lon="1.14147">
        <ele>153.600006</ele>
        <time>2018-02-25T08:11:23Z</time>
      </trkpt>
      <trkpt lat="49.01564" lon="1.14151">
        <ele>152.300003</ele>
        <time>2018-02-25T08:11:28Z</time>
      </trkpt>
      <trkpt lat="49.01572" lon="1.14164">
        <ele>151.300003</ele>
        <time>2018-02-25T08:11:33Z</time>
      </trkpt>
      <trkpt lat="49.01577" lon="1.14178">
        <ele>150.899994</ele>
        <time>2018-02-25T08:11:36Z</time>
      </trkpt>
      <trkpt lat="49.01583" lon="1.14193">
        <ele>150.399994</ele>
        <time>2018-02-25T08:11:39Z</time>
      </trkpt>
      <trkpt lat="49.01595" lon="1.14186">
        <ele>148.699997</ele>
        <time>2018-02-25T08:11:43Z</time>
      </trkpt>
      <trkpt lat="49.01599" lon="1.14171">
        <ele>148.100006</ele>
        <time>2018-02-25T08:11:46Z</time>
      </trkpt>
      <trkpt lat="49.01601" lon="1.14155">
        <ele>147.800003</ele>
        <time>2018-02-25T08:11:49Z</time>
      </trkpt>
      <trkpt lat="49.01608" lon="1.14141">
        <ele>147.899994</ele>
        <time>2018-02-25T08:11:53Z</time>
      </trkpt>
      <trkpt lat="49.01614" lon="1.1413">
        <ele>148</ele>
        <time>2018-02-25T08:11:56Z</time>
      </trkpt>
      <trkpt lat="49.01612" lon="1.14115">
        <ele>148.100006</ele>
        <time>2018-02-25T08:11:59Z</time>
      </trkpt>
      <trkpt lat="49.01608" lon="1.14101">
        <ele>148.199997</ele>
        <time>2018-02-25T08:12:02Z</time>
      </trkpt>
      <trkpt lat="49.01597" lon="1.14099">
        <ele>148.800003</ele>
        <time>2018-02-25T08:12:06Z</time>
      </trkpt>
      <trkpt lat="49.01587" lon="1.14097">
        <ele>149.199997</ele>
        <time>2018-02-25T08:12:09Z</time>
      </trkpt>
      <trkpt lat="49.01577" lon="1.14094">
        <ele>150</ele>
        <time>2018-02-25T08:12:12Z</time>
      </trkpt>
      <trkpt lat="49.01566" lon="1.14091">
        <ele>151.199997</ele>
        <time>2018-02-25T08:12:15Z</time>
      </trkpt>
      <trkpt lat="49.01556" lon="1.14087">
        <ele>152</ele>
        <time>2018-02-25T08:12:18Z</time>
      </trkpt>
      <trkpt lat="49.01545" lon="1.14081">
        <ele>153.100006</ele>
        <time>2018-02-25T08:12:22Z</time>
      </trkpt>
      <trkpt lat="49.01537" lon="1.14073">
        <ele>154</ele>
        <time>2018-02-25T08:12:27Z</time>
      </trkpt>
      <trkpt lat="49.01539" lon="1.14057">
        <ele>154.399994</ele>
        <time>2018-02-25T08:12:33Z</time>
      </trkpt>
      <trkpt lat="49.01545" lon="1.14043">
        <ele>154.600006</ele>
        <time>2018-02-25T08:12:37Z</time>
      </trkpt>
      <trkpt lat="49.01549" lon="1.14029">
        <ele>154.600006</ele>
        <time>2018-02-25T08:12:40Z</time>
      </trkpt>
      <trkpt lat="49.01554" lon="1.14015">
        <ele>154.600006</ele>
        <time>2018-02-25T08:12:43Z</time>
      </trkpt>
      <trkpt lat="49.01558" lon="1.13999">
        <ele>154.600006</ele>
        <time>2018-02-25T08:12:46Z</time>
      </trkpt>
      <trkpt lat="49.01562" lon="1.13982">
        <ele>154.199997</ele>
        <time>2018-02-25T08:12:49Z</time>
      </trkpt>
      <trkpt lat="49.01565" lon="1.13965">
        <ele>153.600006</ele>
        <time>2018-02-25T08:12:52Z</time>
      </trkpt>
      <trkpt lat="49.0156" lon="1.13949">
        <ele>152.800003</ele>
        <time>2018-02-25T08:12:55Z</time>
      </trkpt>
      <trkpt lat="49.01556" lon="1.13931">
        <ele>152.600006</ele>
        <time>2018-02-25T08:12:58Z</time>
      </trkpt>
      <trkpt lat="49.01551" lon="1.13916">
        <ele>152.800003</ele>
        <time>2018-02-25T08:13:01Z</time>
      </trkpt>
      <trkpt lat="49.01548" lon="1.13902">
        <ele>153.300003</ele>
        <time>2018-02-25T08:13:04Z</time>
      </trkpt>
      <trkpt lat="49.01544" lon="1.13889">
        <ele>153.300003</ele>
        <time>2018-02-25T08:13:07Z</time>
      </trkpt>
      <trkpt lat="49.0154" lon="1.13875">
        <ele>154</ele>
        <time>2018-02-25T08:13:10Z</time>
      </trkpt>
      <trkpt lat="49.01536" lon="1.13857">
        <ele>154.600006</ele>
        <time>2018-02-25T08:13:13Z</time>
      </trkpt>
      <trkpt lat="49.0153" lon="1.13841">
        <ele>154.800003</ele>
        <time>2018-02-25T08:13:16Z</time>
      </trkpt>
      <trkpt lat="49.01526" lon="1.13823">
        <ele>154.800003</ele>
        <time>2018-02-25T08:13:19Z</time>
      </trkpt>
      <trkpt lat="49.01521" lon="1.13807">
        <ele>154.800003</ele>
        <time>2018-02-25T08:13:22Z</time>
      </trkpt>
      <trkpt lat="49.01516" lon="1.1379">
        <ele>155</ele>
        <time>2018-02-25T08:13:25Z</time>
      </trkpt>
      <trkpt lat="49.01512" lon="1.13773">
        <ele>155.199997</ele>
        <time>2018-02-25T08:13:28Z</time>
      </trkpt>
      <trkpt lat="49.01508" lon="1.13758">
        <ele>155.199997</ele>
        <time>2018-02-25T08:13:31Z</time>
      </trkpt>
      <trkpt lat="49.01502" lon="1.13742">
        <ele>155.199997</ele>
        <time>2018-02-25T08:13:34Z</time>
      </trkpt>
      <trkpt lat="49.01494" lon="1.13729">
        <ele>155.100006</ele>
        <time>2018-02-25T08:13:37Z</time>
      </trkpt>
      <trkpt lat="49.01486" lon="1.13718">
        <ele>155.399994</ele>
        <time>2018-02-25T08:13:40Z</time>
      </trkpt>
      <trkpt lat="49.01479" lon="1.13708">
        <ele>156</ele>
        <time>2018-02-25T08:13:43Z</time>
      </trkpt>
      <trkpt lat="49.01473" lon="1.13698">
        <ele>156</ele>
        <time>2018-02-25T08:13:46Z</time>
      </trkpt>
      <trkpt lat="49.01465" lon="1.13687">
        <ele>156.600006</ele>
        <time>2018-02-25T08:13:49Z</time>
      </trkpt>
      <trkpt lat="49.01457" lon="1.13674">
        <ele>156.899994</ele>
        <time>2018-02-25T08:13:52Z</time>
      </trkpt>
      <trkpt lat="49.01451" lon="1.13661">
        <ele>157.300003</ele>
        <time>2018-02-25T08:13:55Z</time>
      </trkpt>
      <trkpt lat="49.01443" lon="1.1365">
        <ele>157.600006</ele>
        <time>2018-02-25T08:13:59Z</time>
      </trkpt>
      <trkpt lat="49.01434" lon="1.13646">
        <ele>158.699997</ele>
        <time>2018-02-25T08:14:07Z</time>
      </trkpt>
      <trkpt lat="49.01428" lon="1.13635">
        <ele>159.199997</ele>
        <time>2018-02-25T08:14:20Z</time>
      </trkpt>
      <trkpt lat="49.01425" lon="1.13618">
        <ele>159.300003</ele>
        <time>2018-02-25T08:14:25Z</time>
      </trkpt>
      <trkpt lat="49.01423" lon="1.13605">
        <ele>159.100006</ele>
        <time>2018-02-25T08:14:28Z</time>
      </trkpt>
      <trkpt lat="49.0143" lon="1.13594">
        <ele>158.5</ele>
        <time>2018-02-25T08:14:32Z</time>
      </trkpt>
      <trkpt lat="49.01424" lon="1.13583">
        <ele>158.5</ele>
        <time>2018-02-25T08:14:39Z</time>
      </trkpt>
      <trkpt lat="49.01416" lon="1.13579">
        <ele>158.699997</ele>
        <time>2018-02-25T08:14:43Z</time>
      </trkpt>
      <trkpt lat="49.01407" lon="1.13569">
        <ele>158.800003</ele>
        <time>2018-02-25T08:14:47Z</time>
      </trkpt>
      <trkpt lat="49.01399" lon="1.1356">
        <ele>159.5</ele>
        <time>2018-02-25T08:14:51Z</time>
      </trkpt>
      <trkpt lat="49.01399" lon="1.13546">
        <ele>160.199997</ele>
        <time>2018-02-25T08:14:55Z</time>
      </trkpt>
      <trkpt lat="49.01394" lon="1.13532">
        <ele>160.600006</ele>
        <time>2018-02-25T08:14:59Z</time>
      </trkpt>
      <trkpt lat="49.0139" lon="1.13518">
        <ele>161.100006</ele>
        <time>2018-02-25T08:15:03Z</time>
      </trkpt>
      <trkpt lat="49.01384" lon="1.13503">
        <ele>161.399994</ele>
        <time>2018-02-25T08:15:07Z</time>
      </trkpt>
      <trkpt lat="49.0138" lon="1.13488">
        <ele>161.600006</ele>
        <time>2018-02-25T08:15:11Z</time>
      </trkpt>
      <trkpt lat="49.01375" lon="1.13474">
        <ele>162.100006</ele>
        <time>2018-02-25T08:15:15Z</time>
      </trkpt>
      <trkpt lat="49.0137" lon="1.13459">
        <ele>162.199997</ele>
        <time>2018-02-25T08:15:19Z</time>
      </trkpt>
      <trkpt lat="49.01365" lon="1.13445">
        <ele>162.300003</ele>
        <time>2018-02-25T08:15:22Z</time>
      </trkpt>
      <trkpt lat="49.01361" lon="1.13431">
        <ele>162.300003</ele>
        <time>2018-02-25T08:15:25Z</time>
      </trkpt>
      <trkpt lat="49.01356" lon="1.13416">
        <ele>162.300003</ele>
        <time>2018-02-25T08:15:28Z</time>
      </trkpt>
      <trkpt lat="49.0135" lon="1.13402">
        <ele>162.300003</ele>
        <time>2018-02-25T08:15:31Z</time>
      </trkpt>
      <trkpt lat="49.01345" lon="1.13388">
        <ele>162.300003</ele>
        <time>2018-02-25T08:15:34Z</time>
      </trkpt>
      <trkpt lat="49.01335" lon="1.13383">
        <ele>162.600006</ele>
        <time>2018-02-25T08:15:39Z</time>
      </trkpt>
      <trkpt lat="49.01326" lon="1.13379">
        <ele>162.600006</ele>
        <time>2018-02-25T08:17:00Z</time>
      </trkpt>
      <trkpt lat="49.01317" lon="1.13386">
        <ele>162.399994</ele>
        <time>2018-02-25T08:17:34Z</time>
      </trkpt>
      <trkpt lat="49.01307" lon="1.13383">
        <ele>162.399994</ele>
        <time>2018-02-25T08:17:38Z</time>
      </trkpt>
      <trkpt lat="49.01297" lon="1.13379">
        <ele>162.399994</ele>
        <time>2018-02-25T08:17:41Z</time>
      </trkpt>
      <trkpt lat="49.01288" lon="1.13374">
        <ele>162.300003</ele>
        <time>2018-02-25T08:17:44Z</time>
      </trkpt>
      <trkpt lat="49.01281" lon="1.13364">
        <ele>162.600006</ele>
        <time>2018-02-25T08:17:48Z</time>
      </trkpt>
      <trkpt lat="49.01277" lon="1.13349">
        <ele>162.800003</ele>
        <time>2018-02-25T08:17:52Z</time>
      </trkpt>
      <trkpt lat="49.01267" lon="1.13354">
        <ele>162.899994</ele>
        <time>2018-02-25T08:17:57Z</time>
      </trkpt>
      <trkpt lat="49.01258" lon="1.13365">
        <ele>163.199997</ele>
        <time>2018-02-25T08:18:01Z</time>
      </trkpt>
      <trkpt lat="49.01258" lon="1.13382">
        <ele>163.699997</ele>
        <time>2018-02-25T08:18:07Z</time>
      </trkpt>
      <trkpt lat="49.01256" lon="1.13401">
        <ele>163.800003</ele>
        <time>2018-02-25T08:18:11Z</time>
      </trkpt>
      <trkpt lat="49.01254" lon="1.13418">
        <ele>164.199997</ele>
        <time>2018-02-25T08:18:15Z</time>
      </trkpt>
      <trkpt lat="49.01246" lon="1.13426">
        <ele>164.5</ele>
        <time>2018-02-25T08:18:18Z</time>
      </trkpt>
      <trkpt lat="49.01235" lon="1.13431">
        <ele>164.699997</ele>
        <time>2018-02-25T08:18:21Z</time>
      </trkpt>
      <trkpt lat="49.01227" lon="1.13421">
        <ele>165.199997</ele>
        <time>2018-02-25T08:18:25Z</time>
      </trkpt>
      <trkpt lat="49.01224" lon="1.13406">
        <ele>165.399994</ele>
        <time>2018-02-25T08:18:29Z</time>
      </trkpt>
      <trkpt lat="49.01219" lon="1.13391">
        <ele>165.399994</ele>
        <time>2018-02-25T08:18:32Z</time>
      </trkpt>
      <trkpt lat="49.01215" lon="1.13377">
        <ele>165.399994</ele>
        <time>2018-02-25T08:18:35Z</time>
      </trkpt>
      <trkpt lat="49.01211" lon="1.13363">
        <ele>165.399994</ele>
        <time>2018-02-25T08:18:38Z</time>
      </trkpt>
      <trkpt lat="49.01207" lon="1.13349">
        <ele>165.399994</ele>
        <time>2018-02-25T08:18:41Z</time>
      </trkpt>
      <trkpt lat="49.01203" lon="1.13333">
        <ele>165.399994</ele>
        <time>2018-02-25T08:18:44Z</time>
      </trkpt>
      <trkpt lat="49.012" lon="1.13317">
        <ele>165.5</ele>
        <time>2018-02-25T08:18:47Z</time>
      </trkpt>
      <trkpt lat="49.01195" lon="1.13302">
        <ele>165.5</ele>
        <time>2018-02-25T08:18:50Z</time>
      </trkpt>
      <trkpt lat="49.0119" lon="1.13285">
        <ele>165.399994</ele>
        <time>2018-02-25T08:18:53Z</time>
      </trkpt>
      <trkpt lat="49.01187" lon="1.1327">
        <ele>165.199997</ele>
        <time>2018-02-25T08:18:56Z</time>
      </trkpt>
      <trkpt lat="49.01186" lon="1.13254">
        <ele>165.199997</ele>
        <time>2018-02-25T08:18:59Z</time>
      </trkpt>
      <trkpt lat="49.01183" lon="1.13239">
        <ele>165.100006</ele>
        <time>2018-02-25T08:19:04Z</time>
      </trkpt>
      <trkpt lat="49.01172" lon="1.13232">
        <ele>165.100006</ele>
        <time>2018-02-25T08:19:08Z</time>
      </trkpt>
      <trkpt lat="49.01169" lon="1.13216">
        <ele>165.199997</ele>
        <time>2018-02-25T08:19:12Z</time>
      </trkpt>
      <trkpt lat="49.01176" lon="1.13202">
        <ele>165</ele>
        <time>2018-02-25T08:19:16Z</time>
      </trkpt>
      <trkpt lat="49.01176" lon="1.13187">
        <ele>165</ele>
        <time>2018-02-25T08:19:19Z</time>
      </trkpt>
      <trkpt lat="49.01172" lon="1.13171">
        <ele>165.100006</ele>
        <time>2018-02-25T08:19:23Z</time>
      </trkpt>
      <trkpt lat="49.01165" lon="1.13161">
        <ele>164.899994</ele>
        <time>2018-02-25T08:19:26Z</time>
      </trkpt>
      <trkpt lat="49.01158" lon="1.13151">
        <ele>164.800003</ele>
        <time>2018-02-25T08:19:29Z</time>
      </trkpt>
      <trkpt lat="49.01155" lon="1.13138">
        <ele>164.899994</ele>
        <time>2018-02-25T08:19:32Z</time>
      </trkpt>
      <trkpt lat="49.01148" lon="1.13126">
        <ele>164.600006</ele>
        <time>2018-02-25T08:19:35Z</time>
      </trkpt>
      <trkpt lat="49.01144" lon="1.13113">
        <ele>163.899994</ele>
        <time>2018-02-25T08:19:40Z</time>
      </trkpt>
      <trkpt lat="49.01152" lon="1.13104">
        <ele>163.600006</ele>
        <time>2018-02-25T08:19:44Z</time>
      </trkpt>
      <trkpt lat="49.01158" lon="1.1309">
        <ele>164</ele>
        <time>2018-02-25T08:19:48Z</time>
      </trkpt>
      <trkpt lat="49.01166" lon="1.13078">
        <ele>164.300003</ele>
        <time>2018-02-25T08:19:52Z</time>
      </trkpt>
      <trkpt lat="49.01175" lon="1.13067">
        <ele>164.399994</ele>
        <time>2018-02-25T08:19:55Z</time>
      </trkpt>
      <trkpt lat="49.01183" lon="1.13053">
        <ele>164.5</ele>
        <time>2018-02-25T08:19:58Z</time>
      </trkpt>
      <trkpt lat="49.01194" lon="1.1305">
        <ele>164.600006</ele>
        <time>2018-02-25T08:20:01Z</time>
      </trkpt>
      <trkpt lat="49.01202" lon="1.13056">
        <ele>164.399994</ele>
        <time>2018-02-25T08:20:03Z</time>
      </trkpt>
      <trkpt lat="49.01209" lon="1.13064">
        <ele>163.899994</ele>
        <time>2018-02-25T08:20:05Z</time>
      </trkpt>
      <trkpt lat="49.01218" lon="1.13075">
        <ele>163.600006</ele>
        <time>2018-02-25T08:20:07Z</time>
      </trkpt>
      <trkpt lat="49.01226" lon="1.13085">
        <ele>163.199997</ele>
        <time>2018-02-25T08:20:09Z</time>
      </trkpt>
      <trkpt lat="49.01234" lon="1.13093">
        <ele>163</ele>
        <time>2018-02-25T08:20:11Z</time>
      </trkpt>
      <trkpt lat="49.01241" lon="1.13103">
        <ele>162.899994</ele>
        <time>2018-02-25T08:20:13Z</time>
      </trkpt>
      <trkpt lat="49.0125" lon="1.13117">
        <ele>163</ele>
        <time>2018-02-25T08:20:16Z</time>
      </trkpt>
      <trkpt lat="49.01256" lon="1.13131">
        <ele>163.199997</ele>
        <time>2018-02-25T08:20:19Z</time>
      </trkpt>
      <trkpt lat="49.01262" lon="1.13145">
        <ele>163.600006</ele>
        <time>2018-02-25T08:20:22Z</time>
      </trkpt>
      <trkpt lat="49.01268" lon="1.1316">
        <ele>163.600006</ele>
        <time>2018-02-25T08:20:25Z</time>
      </trkpt>
      <trkpt lat="49.01274" lon="1.13175">
        <ele>163.699997</ele>
        <time>2018-02-25T08:20:28Z</time>
      </trkpt>
      <trkpt lat="49.01279" lon="1.13192">
        <ele>163.600006</ele>
        <time>2018-02-25T08:20:31Z</time>
      </trkpt>
      <trkpt lat="49.01288" lon="1.132">
        <ele>163.399994</ele>
        <time>2018-02-25T08:20:34Z</time>
      </trkpt>
      <trkpt lat="49.01297" lon="1.13196">
        <ele>163.399994</ele>
        <time>2018-02-25T08:20:37Z</time>
      </trkpt>
      <trkpt lat="49.01308" lon="1.13192">
        <ele>163.600006</ele>
        <time>2018-02-25T08:20:40Z</time>
      </trkpt>
      <trkpt lat="49.01315" lon="1.132">
        <ele>164</ele>
        <time>2018-02-25T08:20:43Z</time>
      </trkpt>
      <trkpt lat="49.0132" lon="1.13216">
        <ele>164.199997</ele>
        <time>2018-02-25T08:20:47Z</time>
      </trkpt>
      <trkpt lat="49.01325" lon="1.13233">
        <ele>164.5</ele>
        <time>2018-02-25T08:20:50Z</time>
      </trkpt>
      <trkpt lat="49.01333" lon="1.13247">
        <ele>164.600006</ele>
        <time>2018-02-25T08:20:53Z</time>
      </trkpt>
      <trkpt lat="49.01342" lon="1.1326">
        <ele>164.899994</ele>
        <time>2018-02-25T08:20:56Z</time>
      </trkpt>
      <trkpt lat="49.01351" lon="1.13273">
        <ele>165</ele>
        <time>2018-02-25T08:20:59Z</time>
      </trkpt>
      <trkpt lat="49.01361" lon="1.13287">
        <ele>165.100006</ele>
        <time>2018-02-25T08:21:02Z</time>
      </trkpt>
      <trkpt lat="49.0137" lon="1.133">
        <ele>164.800003</ele>
        <time>2018-02-25T08:21:05Z</time>
      </trkpt>
      <trkpt lat="49.01379" lon="1.13313">
        <ele>164.800003</ele>
        <time>2018-02-25T08:21:08Z</time>
      </trkpt>
      <trkpt lat="49.01389" lon="1.13325">
        <ele>164.5</ele>
        <time>2018-02-25T08:21:11Z</time>
      </trkpt>
      <trkpt lat="49.01397" lon="1.13336">
        <ele>164.399994</ele>
        <time>2018-02-25T08:21:13Z</time>
      </trkpt>
      <trkpt lat="49.01404" lon="1.13346">
        <ele>164.100006</ele>
        <time>2018-02-25T08:21:15Z</time>
      </trkpt>
      <trkpt lat="49.01412" lon="1.13359">
        <ele>163.699997</ele>
        <time>2018-02-25T08:21:17Z</time>
      </trkpt>
      <trkpt lat="49.0142" lon="1.13373">
        <ele>163.5</ele>
        <time>2018-02-25T08:21:19Z</time>
      </trkpt>
      <trkpt lat="49.01427" lon="1.13386">
        <ele>162.899994</ele>
        <time>2018-02-25T08:21:21Z</time>
      </trkpt>
      <trkpt lat="49.01435" lon="1.13399">
        <ele>162.600006</ele>
        <time>2018-02-25T08:21:23Z</time>
      </trkpt>
      <trkpt lat="49.0144" lon="1.13411">
        <ele>162.100006</ele>
        <time>2018-02-25T08:21:25Z</time>
      </trkpt>
      <trkpt lat="49.01448" lon="1.13422">
        <ele>161.699997</ele>
        <time>2018-02-25T08:21:27Z</time>
      </trkpt>
      <trkpt lat="49.01456" lon="1.13434">
        <ele>161</ele>
        <time>2018-02-25T08:21:29Z</time>
      </trkpt>
      <trkpt lat="49.01465" lon="1.13451">
        <ele>160.199997</ele>
        <time>2018-02-25T08:21:31Z</time>
      </trkpt>
      <trkpt lat="49.01473" lon="1.13461">
        <ele>159</ele>
        <time>2018-02-25T08:21:34Z</time>
      </trkpt>
      <trkpt lat="49.01478" lon="1.13444">
        <ele>156.300003</ele>
        <time>2018-02-25T08:21:40Z</time>
      </trkpt>
      <trkpt lat="49.01479" lon="1.13427">
        <ele>155.699997</ele>
        <time>2018-02-25T08:21:43Z</time>
      </trkpt>
      <trkpt lat="49.01478" lon="1.13409">
        <ele>155.199997</ele>
        <time>2018-02-25T08:21:46Z</time>
      </trkpt>
      <trkpt lat="49.01486" lon="1.13404">
        <ele>154.300003</ele>
        <time>2018-02-25T08:21:52Z</time>
      </trkpt>
      <trkpt lat="49.01499" lon="1.1341">
        <ele>153.5</ele>
        <time>2018-02-25T08:21:55Z</time>
      </trkpt>
      <trkpt lat="49.01508" lon="1.13417">
        <ele>152.5</ele>
        <time>2018-02-25T08:21:58Z</time>
      </trkpt>
      <trkpt lat="49.01512" lon="1.13403">
        <ele>149.899994</ele>
        <time>2018-02-25T08:22:04Z</time>
      </trkpt>
      <trkpt lat="49.01512" lon="1.13387">
        <ele>149.399994</ele>
        <time>2018-02-25T08:22:08Z</time>
      </trkpt>
      <trkpt lat="49.01513" lon="1.13371">
        <ele>149.199997</ele>
        <time>2018-02-25T08:22:11Z</time>
      </trkpt>
      <trkpt lat="49.0151" lon="1.13357">
        <ele>148.899994</ele>
        <time>2018-02-25T08:22:14Z</time>
      </trkpt>
      <trkpt lat="49.01508" lon="1.13343">
        <ele>148.899994</ele>
        <time>2018-02-25T08:22:17Z</time>
      </trkpt>
      <trkpt lat="49.01507" lon="1.13327">
        <ele>149.100006</ele>
        <time>2018-02-25T08:22:20Z</time>
      </trkpt>
      <trkpt lat="49.01506" lon="1.1331">
        <ele>149.100006</ele>
        <time>2018-02-25T08:22:23Z</time>
      </trkpt>
      <trkpt lat="49.01507" lon="1.13292">
        <ele>148.800003</ele>
        <time>2018-02-25T08:22:26Z</time>
      </trkpt>
      <trkpt lat="49.01504" lon="1.13276">
        <ele>148.5</ele>
        <time>2018-02-25T08:22:28Z</time>
      </trkpt>
      <trkpt lat="49.01501" lon="1.13261">
        <ele>148.199997</ele>
        <time>2018-02-25T08:22:30Z</time>
      </trkpt>
      <trkpt lat="49.01499" lon="1.13246">
        <ele>147.899994</ele>
        <time>2018-02-25T08:22:32Z</time>
      </trkpt>
      <trkpt lat="49.01495" lon="1.13231">
        <ele>147.300003</ele>
        <time>2018-02-25T08:22:34Z</time>
      </trkpt>
      <trkpt lat="49.01495" lon="1.13215">
        <ele>146.699997</ele>
        <time>2018-02-25T08:22:36Z</time>
      </trkpt>
      <trkpt lat="49.01496" lon="1.132">
        <ele>146.399994</ele>
        <time>2018-02-25T08:22:38Z</time>
      </trkpt>
      <trkpt lat="49.01496" lon="1.13186">
        <ele>146.5</ele>
        <time>2018-02-25T08:22:40Z</time>
      </trkpt>
      <trkpt lat="49.01497" lon="1.13167">
        <ele>146</ele>
        <time>2018-02-25T08:22:42Z</time>
      </trkpt>
      <trkpt lat="49.01498" lon="1.13149">
        <ele>144.800003</ele>
        <time>2018-02-25T08:22:44Z</time>
      </trkpt>
      <trkpt lat="49.01497" lon="1.1313">
        <ele>143.600006</ele>
        <time>2018-02-25T08:22:46Z</time>
      </trkpt>
      <trkpt lat="49.01497" lon="1.13116">
        <ele>143</ele>
        <time>2018-02-25T08:22:48Z</time>
      </trkpt>
      <trkpt lat="49.01493" lon="1.13096">
        <ele>141.5</ele>
        <time>2018-02-25T08:22:51Z</time>
      </trkpt>
      <trkpt lat="49.0149" lon="1.13083">
        <ele>140.800003</ele>
        <time>2018-02-25T08:22:53Z</time>
      </trkpt>
      <trkpt lat="49.01486" lon="1.13069">
        <ele>139.399994</ele>
        <time>2018-02-25T08:22:56Z</time>
      </trkpt>
      <trkpt lat="49.01478" lon="1.13049">
        <ele>137.199997</ele>
        <time>2018-02-25T08:22:59Z</time>
      </trkpt>
      <trkpt lat="49.01474" lon="1.13034">
        <ele>135.600006</ele>
        <time>2018-02-25T08:23:01Z</time>
      </trkpt>
      <trkpt lat="49.01472" lon="1.13015">
        <ele>133.600006</ele>
        <time>2018-02-25T08:23:03Z</time>
      </trkpt>
      <trkpt lat="49.0147" lon="1.12997">
        <ele>132.5</ele>
        <time>2018-02-25T08:23:06Z</time>
      </trkpt>
      <trkpt lat="49.01461" lon="1.12989">
        <ele>132.300003</ele>
        <time>2018-02-25T08:23:11Z</time>
      </trkpt>
      <trkpt lat="49.0145" lon="1.12985">
        <ele>132.800003</ele>
        <time>2018-02-25T08:23:15Z</time>
      </trkpt>
      <trkpt lat="49.0144" lon="1.12981">
        <ele>133.399994</ele>
        <time>2018-02-25T08:23:19Z</time>
      </trkpt>
      <trkpt lat="49.01431" lon="1.12979">
        <ele>134.5</ele>
        <time>2018-02-25T08:23:23Z</time>
      </trkpt>
      <trkpt lat="49.01421" lon="1.12977">
        <ele>135.5</ele>
        <time>2018-02-25T08:23:27Z</time>
      </trkpt>
      <trkpt lat="49.01411" lon="1.12974">
        <ele>137.100006</ele>
        <time>2018-02-25T08:23:31Z</time>
      </trkpt>
      <trkpt lat="49.01401" lon="1.12973">
        <ele>138.199997</ele>
        <time>2018-02-25T08:23:35Z</time>
      </trkpt>
      <trkpt lat="49.01392" lon="1.12972">
        <ele>139.399994</ele>
        <time>2018-02-25T08:23:39Z</time>
      </trkpt>
      <trkpt lat="49.01382" lon="1.12971">
        <ele>140.399994</ele>
        <time>2018-02-25T08:23:43Z</time>
      </trkpt>
      <trkpt lat="49.01372" lon="1.12969">
        <ele>142</ele>
        <time>2018-02-25T08:23:48Z</time>
      </trkpt>
      <trkpt lat="49.0136" lon="1.1297">
        <ele>143.399994</ele>
        <time>2018-02-25T08:23:53Z</time>
      </trkpt>
      <trkpt lat="49.01351" lon="1.12968">
        <ele>144.699997</ele>
        <time>2018-02-25T08:23:57Z</time>
      </trkpt>
      <trkpt lat="49.01342" lon="1.12967">
        <ele>146.100006</ele>
        <time>2018-02-25T08:24:01Z</time>
      </trkpt>
      <trkpt lat="49.01333" lon="1.12967">
        <ele>147.600006</ele>
        <time>2018-02-25T08:24:06Z</time>
      </trkpt>
      <trkpt lat="49.01322" lon="1.12971">
        <ele>149.399994</ele>
        <time>2018-02-25T08:24:12Z</time>
      </trkpt>
      <trkpt lat="49.01312" lon="1.12976">
        <ele>151.100006</ele>
        <time>2018-02-25T08:24:18Z</time>
      </trkpt>
      <trkpt lat="49.01303" lon="1.12982">
        <ele>152.5</ele>
        <time>2018-02-25T08:24:23Z</time>
      </trkpt>
      <trkpt lat="49.01296" lon="1.12991">
        <ele>153.5</ele>
        <time>2018-02-25T08:24:27Z</time>
      </trkpt>
      <trkpt lat="49.01289" lon="1.13">
        <ele>155.199997</ele>
        <time>2018-02-25T08:24:33Z</time>
      </trkpt>
      <trkpt lat="49.01279" lon="1.13007">
        <ele>157</ele>
        <time>2018-02-25T08:24:39Z</time>
      </trkpt>
      <trkpt lat="49.01273" lon="1.12995">
        <ele>159.5</ele>
        <time>2018-02-25T08:24:46Z</time>
      </trkpt>
      <trkpt lat="49.01269" lon="1.1298">
        <ele>161.199997</ele>
        <time>2018-02-25T08:24:52Z</time>
      </trkpt>
      <trkpt lat="49.01265" lon="1.12966">
        <ele>162.399994</ele>
        <time>2018-02-25T08:24:57Z</time>
      </trkpt>
      <trkpt lat="49.0126" lon="1.12953">
        <ele>163.199997</ele>
        <time>2018-02-25T08:25:01Z</time>
      </trkpt>
      <trkpt lat="49.01251" lon="1.12947">
        <ele>164.100006</ele>
        <time>2018-02-25T08:25:06Z</time>
      </trkpt>
      <trkpt lat="49.01261" lon="1.12946">
        <ele>164.399994</ele>
        <time>2018-02-25T08:25:36Z</time>
      </trkpt>
      <trkpt lat="49.01269" lon="1.12937">
        <ele>164.399994</ele>
        <time>2018-02-25T08:26:46Z</time>
      </trkpt>
      <trkpt lat="49.01275" lon="1.12927">
        <ele>164.300003</ele>
        <time>2018-02-25T08:26:50Z</time>
      </trkpt>
      <trkpt lat="49.01284" lon="1.12915">
        <ele>164.199997</ele>
        <time>2018-02-25T08:26:54Z</time>
      </trkpt>
      <trkpt lat="49.01292" lon="1.12905">
        <ele>164.300003</ele>
        <time>2018-02-25T08:26:57Z</time>
      </trkpt>
      <trkpt lat="49.01299" lon="1.12896">
        <ele>164.300003</ele>
        <time>2018-02-25T08:27:00Z</time>
      </trkpt>
      <trkpt lat="49.01307" lon="1.12886">
        <ele>164.199997</ele>
        <time>2018-02-25T08:27:03Z</time>
      </trkpt>
      <trkpt lat="49.01316" lon="1.12874">
        <ele>164.199997</ele>
        <time>2018-02-25T08:27:06Z</time>
      </trkpt>
      <trkpt lat="49.01323" lon="1.12865">
        <ele>164.199997</ele>
        <time>2018-02-25T08:27:08Z</time>
      </trkpt>
      <trkpt lat="49.01333" lon="1.12851">
        <ele>164.199997</ele>
        <time>2018-02-25T08:27:11Z</time>
      </trkpt>
      <trkpt lat="49.01339" lon="1.12841">
        <ele>164</ele>
        <time>2018-02-25T08:27:13Z</time>
      </trkpt>
      <trkpt lat="49.01346" lon="1.12832">
        <ele>163.800003</ele>
        <time>2018-02-25T08:27:15Z</time>
      </trkpt>
      <trkpt lat="49.01354" lon="1.12823">
        <ele>163.600006</ele>
        <time>2018-02-25T08:27:17Z</time>
      </trkpt>
      <trkpt lat="49.0136" lon="1.12814">
        <ele>163.399994</ele>
        <time>2018-02-25T08:27:19Z</time>
      </trkpt>
      <trkpt lat="49.01369" lon="1.12802">
        <ele>163.199997</ele>
        <time>2018-02-25T08:27:21Z</time>
      </trkpt>
      <trkpt lat="49.01377" lon="1.1279">
        <ele>162.399994</ele>
        <time>2018-02-25T08:27:23Z</time>
      </trkpt>
      <trkpt lat="49.01387" lon="1.12777">
        <ele>161.300003</ele>
        <time>2018-02-25T08:27:25Z</time>
      </trkpt>
      <trkpt lat="49.01397" lon="1.12766">
        <ele>160.300003</ele>
        <time>2018-02-25T08:27:27Z</time>
      </trkpt>
      <trkpt lat="49.01407" lon="1.12752">
        <ele>158.899994</ele>
        <time>2018-02-25T08:27:29Z</time>
      </trkpt>
      <trkpt lat="49.01417" lon="1.12751">
        <ele>156.800003</ele>
        <time>2018-02-25T08:27:32Z</time>
      </trkpt>
      <trkpt lat="49.01425" lon="1.12763">
        <ele>154.300003</ele>
        <time>2018-02-25T08:27:36Z</time>
      </trkpt>
      <trkpt lat="49.0143" lon="1.12776">
        <ele>152.800003</ele>
        <time>2018-02-25T08:27:40Z</time>
      </trkpt>
      <trkpt lat="49.01434" lon="1.12793">
        <ele>151.899994</ele>
        <time>2018-02-25T08:27:43Z</time>
      </trkpt>
      <trkpt lat="49.01437" lon="1.12807">
        <ele>151.199997</ele>
        <time>2018-02-25T08:27:46Z</time>
      </trkpt>
      <trkpt lat="49.01439" lon="1.12821">
        <ele>150.399994</ele>
        <time>2018-02-25T08:27:49Z</time>
      </trkpt>
      <trkpt lat="49.01444" lon="1.12838">
        <ele>149.600006</ele>
        <time>2018-02-25T08:27:52Z</time>
      </trkpt>
      <trkpt lat="49.01447" lon="1.12856">
        <ele>148.899994</ele>
        <time>2018-02-25T08:27:55Z</time>
      </trkpt>
      <trkpt lat="49.01449" lon="1.12874">
        <ele>148</ele>
        <time>2018-02-25T08:27:58Z</time>
      </trkpt>
      <trkpt lat="49.01451" lon="1.12888">
        <ele>146.800003</ele>
        <time>2018-02-25T08:28:01Z</time>
      </trkpt>
      <trkpt lat="49.01453" lon="1.12905">
        <ele>145.100006</ele>
        <time>2018-02-25T08:28:04Z</time>
      </trkpt>
      <trkpt lat="49.01457" lon="1.12922">
        <ele>143.800003</ele>
        <time>2018-02-25T08:28:07Z</time>
      </trkpt>
      <trkpt lat="49.01463" lon="1.12934">
        <ele>142.699997</ele>
        <time>2018-02-25T08:28:11Z</time>
      </trkpt>
      <trkpt lat="49.01471" lon="1.12945">
        <ele>140.899994</ele>
        <time>2018-02-25T08:28:17Z</time>
      </trkpt>
      <trkpt lat="49.01474" lon="1.12959">
        <ele>138.5</ele>
        <time>2018-02-25T08:28:38Z</time>
      </trkpt>
      <trkpt lat="49.01469" lon="1.12972">
        <ele>135.399994</ele>
        <time>2018-02-25T08:28:45Z</time>
      </trkpt>
      <trkpt lat="49.01479" lon="1.12978">
        <ele>133.699997</ele>
        <time>2018-02-25T08:28:49Z</time>
      </trkpt>
      <trkpt lat="49.01488" lon="1.12981">
        <ele>132.399994</ele>
        <time>2018-02-25T08:28:52Z</time>
      </trkpt>
      <trkpt lat="49.01498" lon="1.12976">
        <ele>130.699997</ele>
        <time>2018-02-25T08:28:55Z</time>
      </trkpt>
      <trkpt lat="49.015" lon="1.12962">
        <ele>130.199997</ele>
        <time>2018-02-25T08:29:00Z</time>
      </trkpt>
      <trkpt lat="49.01501" lon="1.12946">
        <ele>130</ele>
        <time>2018-02-25T08:29:03Z</time>
      </trkpt>
      <trkpt lat="49.01501" lon="1.12929">
        <ele>129.699997</ele>
        <time>2018-02-25T08:29:05Z</time>
      </trkpt>
      <trkpt lat="49.01502" lon="1.12911">
        <ele>128.399994</ele>
        <time>2018-02-25T08:29:08Z</time>
      </trkpt>
      <trkpt lat="49.01503" lon="1.12892">
        <ele>127</ele>
        <time>2018-02-25T08:29:11Z</time>
      </trkpt>
      <trkpt lat="49.01503" lon="1.12877">
        <ele>126.199997</ele>
        <time>2018-02-25T08:29:13Z</time>
      </trkpt>
      <trkpt lat="49.01502" lon="1.12861">
        <ele>125.199997</ele>
        <time>2018-02-25T08:29:16Z</time>
      </trkpt>
      <trkpt lat="49.01501" lon="1.12846">
        <ele>124.5</ele>
        <time>2018-02-25T08:29:19Z</time>
      </trkpt>
      <trkpt lat="49.015" lon="1.12832">
        <ele>124.300003</ele>
        <time>2018-02-25T08:29:22Z</time>
      </trkpt>
      <trkpt lat="49.01499" lon="1.12817">
        <ele>124.099998</ele>
        <time>2018-02-25T08:29:25Z</time>
      </trkpt>
      <trkpt lat="49.01499" lon="1.12803">
        <ele>124.099998</ele>
        <time>2018-02-25T08:29:28Z</time>
      </trkpt>
      <trkpt lat="49.01502" lon="1.1279">
        <ele>124.099998</ele>
        <time>2018-02-25T08:29:31Z</time>
      </trkpt>
      <trkpt lat="49.01504" lon="1.12772">
        <ele>123.699997</ele>
        <time>2018-02-25T08:29:35Z</time>
      </trkpt>
      <trkpt lat="49.01502" lon="1.12759">
        <ele>123.400002</ele>
        <time>2018-02-25T08:29:38Z</time>
      </trkpt>
      <trkpt lat="49.01501" lon="1.12745">
        <ele>123.199997</ele>
        <time>2018-02-25T08:29:41Z</time>
      </trkpt>
      <trkpt lat="49.01499" lon="1.1273">
        <ele>123.099998</ele>
        <time>2018-02-25T08:29:44Z</time>
      </trkpt>
      <trkpt lat="49.01497" lon="1.12713">
        <ele>123.099998</ele>
        <time>2018-02-25T08:29:48Z</time>
      </trkpt>
      <trkpt lat="49.01494" lon="1.12696">
        <ele>123.5</ele>
        <time>2018-02-25T08:29:52Z</time>
      </trkpt>
      <trkpt lat="49.01491" lon="1.12682">
        <ele>123.800003</ele>
        <time>2018-02-25T08:29:55Z</time>
      </trkpt>
      <trkpt lat="49.0149" lon="1.12667">
        <ele>124.099998</ele>
        <time>2018-02-25T08:29:58Z</time>
      </trkpt>
      <trkpt lat="49.01488" lon="1.12651">
        <ele>124</ele>
        <time>2018-02-25T08:30:01Z</time>
      </trkpt>
      <trkpt lat="49.01485" lon="1.12635">
        <ele>124.300003</ele>
        <time>2018-02-25T08:30:04Z</time>
      </trkpt>
      <trkpt lat="49.01484" lon="1.12618">
        <ele>124.300003</ele>
        <time>2018-02-25T08:30:07Z</time>
      </trkpt>
      <trkpt lat="49.01481" lon="1.12603">
        <ele>124.300003</ele>
        <time>2018-02-25T08:30:10Z</time>
      </trkpt>
      <trkpt lat="49.01479" lon="1.12589">
        <ele>124.300003</ele>
        <time>2018-02-25T08:30:13Z</time>
      </trkpt>
      <trkpt lat="49.01477" lon="1.12572">
        <ele>124.599998</ele>
        <time>2018-02-25T08:30:17Z</time>
      </trkpt>
      <trkpt lat="49.01471" lon="1.1256">
        <ele>125.300003</ele>
        <time>2018-02-25T08:30:21Z</time>
      </trkpt>
      <trkpt lat="49.01463" lon="1.12552">
        <ele>126.900002</ele>
        <time>2018-02-25T08:30:26Z</time>
      </trkpt>
      <trkpt lat="49.01457" lon="1.1254">
        <ele>128.699997</ele>
        <time>2018-02-25T08:30:31Z</time>
      </trkpt>
      <trkpt lat="49.01451" lon="1.12529">
        <ele>130</ele>
        <time>2018-02-25T08:30:36Z</time>
      </trkpt>
      <trkpt lat="49.01445" lon="1.12515">
        <ele>130.699997</ele>
        <time>2018-02-25T08:30:41Z</time>
      </trkpt>
      <trkpt lat="49.01442" lon="1.12501">
        <ele>132.5</ele>
        <time>2018-02-25T08:30:47Z</time>
      </trkpt>
      <trkpt lat="49.01438" lon="1.12487">
        <ele>134.300003</ele>
        <time>2018-02-25T08:30:53Z</time>
      </trkpt>
      <trkpt lat="49.01433" lon="1.12473">
        <ele>136.600006</ele>
        <time>2018-02-25T08:31:00Z</time>
      </trkpt>
      <trkpt lat="49.01427" lon="1.12462">
        <ele>138.800003</ele>
        <time>2018-02-25T08:31:06Z</time>
      </trkpt>
      <trkpt lat="49.01422" lon="1.12449">
        <ele>141.300003</ele>
        <time>2018-02-25T08:31:13Z</time>
      </trkpt>
      <trkpt lat="49.01415" lon="1.1244">
        <ele>142.899994</ele>
        <time>2018-02-25T08:31:19Z</time>
      </trkpt>
      <trkpt lat="49.01407" lon="1.12434">
        <ele>144.199997</ele>
        <time>2018-02-25T08:31:25Z</time>
      </trkpt>
      <trkpt lat="49.014" lon="1.12423">
        <ele>146.399994</ele>
        <time>2018-02-25T08:31:32Z</time>
      </trkpt>
      <trkpt lat="49.01396" lon="1.12409">
        <ele>148</ele>
        <time>2018-02-25T08:31:39Z</time>
      </trkpt>
      <trkpt lat="49.0139" lon="1.124">
        <ele>149.199997</ele>
        <time>2018-02-25T08:31:45Z</time>
      </trkpt>
      <trkpt lat="49.01381" lon="1.12392">
        <ele>150.699997</ele>
        <time>2018-02-25T08:31:51Z</time>
      </trkpt>
      <trkpt lat="49.01372" lon="1.12384">
        <ele>152.699997</ele>
        <time>2018-02-25T08:31:58Z</time>
      </trkpt>
      <trkpt lat="49.01365" lon="1.12375">
        <ele>154.699997</ele>
        <time>2018-02-25T08:32:05Z</time>
      </trkpt>
      <trkpt lat="49.01356" lon="1.12366">
        <ele>156.899994</ele>
        <time>2018-02-25T08:32:12Z</time>
      </trkpt>
      <trkpt lat="49.01348" lon="1.12356">
        <ele>159.199997</ele>
        <time>2018-02-25T08:32:19Z</time>
      </trkpt>
      <trkpt lat="49.01339" lon="1.12349">
        <ele>160.899994</ele>
        <time>2018-02-25T08:32:25Z</time>
      </trkpt>
      <trkpt lat="49.01335" lon="1.12335">
        <ele>162.600006</ele>
        <time>2018-02-25T08:32:32Z</time>
      </trkpt>
      <trkpt lat="49.01335" lon="1.12351">
        <ele>163.5</ele>
        <time>2018-02-25T08:32:42Z</time>
      </trkpt>
      <trkpt lat="49.01339" lon="1.12364">
        <ele>162.399994</ele>
        <time>2018-02-25T08:32:48Z</time>
      </trkpt>
      <trkpt lat="49.01346" lon="1.12354">
        <ele>160.899994</ele>
        <time>2018-02-25T08:32:56Z</time>
      </trkpt>
      <trkpt lat="49.01337" lon="1.12349">
        <ele>161.199997</ele>
        <time>2018-02-25T08:33:03Z</time>
      </trkpt>
      <trkpt lat="49.01332" lon="1.1236">
        <ele>161.699997</ele>
        <time>2018-02-25T08:34:57Z</time>
      </trkpt>
      <trkpt lat="49.01323" lon="1.1237">
        <ele>161.699997</ele>
        <time>2018-02-25T08:35:02Z</time>
      </trkpt>
      <trkpt lat="49.01312" lon="1.12375">
        <ele>162.600006</ele>
        <time>2018-02-25T08:35:06Z</time>
      </trkpt>
      <trkpt lat="49.01302" lon="1.12381">
        <ele>162.899994</ele>
        <time>2018-02-25T08:35:10Z</time>
      </trkpt>
      <trkpt lat="49.01292" lon="1.12385">
        <ele>163.300003</ele>
        <time>2018-02-25T08:35:14Z</time>
      </trkpt>
      <trkpt lat="49.01281" lon="1.1239">
        <ele>164</ele>
        <time>2018-02-25T08:35:19Z</time>
      </trkpt>
      <trkpt lat="49.01272" lon="1.12397">
        <ele>164.600006</ele>
        <time>2018-02-25T08:35:22Z</time>
      </trkpt>
      <trkpt lat="49.01264" lon="1.12403">
        <ele>165.100006</ele>
        <time>2018-02-25T08:35:25Z</time>
      </trkpt>
      <trkpt lat="49.01255" lon="1.12408">
        <ele>165.600006</ele>
        <time>2018-02-25T08:35:28Z</time>
      </trkpt>
      <trkpt lat="49.01246" lon="1.12413">
        <ele>166</ele>
        <time>2018-02-25T08:35:31Z</time>
      </trkpt>
      <trkpt lat="49.01237" lon="1.12417">
        <ele>166.399994</ele>
        <time>2018-02-25T08:35:34Z</time>
      </trkpt>
      <trkpt lat="49.01228" lon="1.12421">
        <ele>167.100006</ele>
        <time>2018-02-25T08:35:38Z</time>
      </trkpt>
      <trkpt lat="49.0122" lon="1.12426">
        <ele>167.5</ele>
        <time>2018-02-25T08:35:41Z</time>
      </trkpt>
      <trkpt lat="49.0121" lon="1.1243">
        <ele>167.699997</ele>
        <time>2018-02-25T08:35:44Z</time>
      </trkpt>
      <trkpt lat="49.01201" lon="1.12436">
        <ele>168.199997</ele>
        <time>2018-02-25T08:35:47Z</time>
      </trkpt>
      <trkpt lat="49.01192" lon="1.12442">
        <ele>168.5</ele>
        <time>2018-02-25T08:35:50Z</time>
      </trkpt>
      <trkpt lat="49.01184" lon="1.12448">
        <ele>169</ele>
        <time>2018-02-25T08:35:53Z</time>
      </trkpt>
      <trkpt lat="49.01172" lon="1.12453">
        <ele>169.199997</ele>
        <time>2018-02-25T08:35:57Z</time>
      </trkpt>
      <trkpt lat="49.01162" lon="1.12458">
        <ele>169.199997</ele>
        <time>2018-02-25T08:36:00Z</time>
      </trkpt>
      <trkpt lat="49.01153" lon="1.12463">
        <ele>169.300003</ele>
        <time>2018-02-25T08:36:03Z</time>
      </trkpt>
      <trkpt lat="49.01144" lon="1.1247">
        <ele>169.600006</ele>
        <time>2018-02-25T08:36:07Z</time>
      </trkpt>
      <trkpt lat="49.01145" lon="1.1249">
        <ele>169.899994</ele>
        <time>2018-02-25T08:36:12Z</time>
      </trkpt>
      <trkpt lat="49.01147" lon="1.12508">
        <ele>170</ele>
        <time>2018-02-25T08:36:15Z</time>
      </trkpt>
      <trkpt lat="49.0115" lon="1.12524">
        <ele>170</ele>
        <time>2018-02-25T08:36:18Z</time>
      </trkpt>
      <trkpt lat="49.01154" lon="1.12541">
        <ele>170.100006</ele>
        <time>2018-02-25T08:36:21Z</time>
      </trkpt>
      <trkpt lat="49.01158" lon="1.12558">
        <ele>170.199997</ele>
        <time>2018-02-25T08:36:24Z</time>
      </trkpt>
      <trkpt lat="49.01162" lon="1.12575">
        <ele>170.199997</ele>
        <time>2018-02-25T08:36:27Z</time>
      </trkpt>
      <trkpt lat="49.01166" lon="1.1259">
        <ele>170.5</ele>
        <time>2018-02-25T08:36:30Z</time>
      </trkpt>
      <trkpt lat="49.01172" lon="1.12608">
        <ele>170.699997</ele>
        <time>2018-02-25T08:36:33Z</time>
      </trkpt>
      <trkpt lat="49.01176" lon="1.12625">
        <ele>170.800003</ele>
        <time>2018-02-25T08:36:36Z</time>
      </trkpt>
      <trkpt lat="49.01182" lon="1.12643">
        <ele>170.699997</ele>
        <time>2018-02-25T08:36:39Z</time>
      </trkpt>
      <trkpt lat="49.01187" lon="1.12659">
        <ele>170.899994</ele>
        <time>2018-02-25T08:36:42Z</time>
      </trkpt>
      <trkpt lat="49.01192" lon="1.12678">
        <ele>170.600006</ele>
        <time>2018-02-25T08:36:45Z</time>
      </trkpt>
      <trkpt lat="49.01196" lon="1.12696">
        <ele>170.399994</ele>
        <time>2018-02-25T08:36:48Z</time>
      </trkpt>
      <trkpt lat="49.01199" lon="1.12715">
        <ele>170.300003</ele>
        <time>2018-02-25T08:36:51Z</time>
      </trkpt>
      <trkpt lat="49.01205" lon="1.1273">
        <ele>170.699997</ele>
        <time>2018-02-25T08:36:54Z</time>
      </trkpt>
      <trkpt lat="49.01211" lon="1.1275">
        <ele>170.399994</ele>
        <time>2018-02-25T08:36:57Z</time>
      </trkpt>
      <trkpt lat="49.01217" lon="1.1276">
        <ele>170.100006</ele>
        <time>2018-02-25T08:36:59Z</time>
      </trkpt>
      <trkpt lat="49.01217" lon="1.12779">
        <ele>169.300003</ele>
        <time>2018-02-25T08:37:01Z</time>
      </trkpt>
      <trkpt lat="49.01219" lon="1.12793">
        <ele>168.5</ele>
        <time>2018-02-25T08:37:03Z</time>
      </trkpt>
      <trkpt lat="49.01211" lon="1.12801">
        <ele>167.699997</ele>
        <time>2018-02-25T08:37:07Z</time>
      </trkpt>
      <trkpt lat="49.012" lon="1.12808">
        <ele>167.899994</ele>
        <time>2018-02-25T08:37:10Z</time>
      </trkpt>
      <trkpt lat="49.01192" lon="1.12815">
        <ele>167.899994</ele>
        <time>2018-02-25T08:37:12Z</time>
      </trkpt>
      <trkpt lat="49.01184" lon="1.12827">
        <ele>168</ele>
        <time>2018-02-25T08:37:15Z</time>
      </trkpt>
      <trkpt lat="49.01178" lon="1.12838">
        <ele>168.199997</ele>
        <time>2018-02-25T08:37:18Z</time>
      </trkpt>
      <trkpt lat="49.01171" lon="1.1285">
        <ele>168.399994</ele>
        <time>2018-02-25T08:37:21Z</time>
      </trkpt>
      <trkpt lat="49.01163" lon="1.12864">
        <ele>168.800003</ele>
        <time>2018-02-25T08:37:24Z</time>
      </trkpt>
      <trkpt lat="49.01155" lon="1.12879">
        <ele>168.699997</ele>
        <time>2018-02-25T08:37:27Z</time>
      </trkpt>
      <trkpt lat="49.01147" lon="1.12896">
        <ele>168.699997</ele>
        <time>2018-02-25T08:37:30Z</time>
      </trkpt>
      <trkpt lat="49.01137" lon="1.12907">
        <ele>168.899994</ele>
        <time>2018-02-25T08:37:33Z</time>
      </trkpt>
      <trkpt lat="49.01128" lon="1.12908">
        <ele>169.199997</ele>
        <time>2018-02-25T08:37:37Z</time>
      </trkpt>
      <trkpt lat="49.01119" lon="1.12904">
        <ele>169.399994</ele>
        <time>2018-02-25T08:37:40Z</time>
      </trkpt>
      <trkpt lat="49.01111" lon="1.12896">
        <ele>169.399994</ele>
        <time>2018-02-25T08:37:43Z</time>
      </trkpt>
      <trkpt lat="49.01103" lon="1.12886">
        <ele>169.300003</ele>
        <time>2018-02-25T08:37:46Z</time>
      </trkpt>
      <trkpt lat="49.01095" lon="1.12877">
        <ele>169.600006</ele>
        <time>2018-02-25T08:37:49Z</time>
      </trkpt>
      <trkpt lat="49.01086" lon="1.12864">
        <ele>170</ele>
        <time>2018-02-25T08:37:52Z</time>
      </trkpt>
      <trkpt lat="49.01078" lon="1.12852">
        <ele>170.300003</ele>
        <time>2018-02-25T08:37:55Z</time>
      </trkpt>
      <trkpt lat="49.01069" lon="1.1284">
        <ele>170.600006</ele>
        <time>2018-02-25T08:37:58Z</time>
      </trkpt>
      <trkpt lat="49.01061" lon="1.1283">
        <ele>170.699997</ele>
        <time>2018-02-25T08:38:01Z</time>
      </trkpt>
      <trkpt lat="49.01056" lon="1.12818">
        <ele>170.899994</ele>
        <time>2018-02-25T08:38:04Z</time>
      </trkpt>
      <trkpt lat="49.01059" lon="1.12805">
        <ele>171.100006</ele>
        <time>2018-02-25T08:38:08Z</time>
      </trkpt>
      <trkpt lat="49.01061" lon="1.12791">
        <ele>171.199997</ele>
        <time>2018-02-25T08:38:11Z</time>
      </trkpt>
      <trkpt lat="49.01068" lon="1.12774">
        <ele>171.199997</ele>
        <time>2018-02-25T08:38:15Z</time>
      </trkpt>
      <trkpt lat="49.01073" lon="1.12763">
        <ele>170.800003</ele>
        <time>2018-02-25T08:38:20Z</time>
      </trkpt>
      <trkpt lat="49.01081" lon="1.1275">
        <ele>170.399994</ele>
        <time>2018-02-25T08:38:26Z</time>
      </trkpt>
      <trkpt lat="49.01086" lon="1.12734">
        <ele>169.899994</ele>
        <time>2018-02-25T08:38:30Z</time>
      </trkpt>
      <trkpt lat="49.01086" lon="1.12717">
        <ele>170</ele>
        <time>2018-02-25T08:38:34Z</time>
      </trkpt>
      <trkpt lat="49.01086" lon="1.12703">
        <ele>170.199997</ele>
        <time>2018-02-25T08:38:37Z</time>
      </trkpt>
      <trkpt lat="49.01086" lon="1.12685">
        <ele>170.399994</ele>
        <time>2018-02-25T08:38:41Z</time>
      </trkpt>
      <trkpt lat="49.01088" lon="1.1267">
        <ele>170.600006</ele>
        <time>2018-02-25T08:38:44Z</time>
      </trkpt>
      <trkpt lat="49.01088" lon="1.12655">
        <ele>170.800003</ele>
        <time>2018-02-25T08:38:48Z</time>
      </trkpt>
      <trkpt lat="49.0109" lon="1.1264">
        <ele>171</ele>
        <time>2018-02-25T08:38:52Z</time>
      </trkpt>
      <trkpt lat="49.01091" lon="1.12625">
        <ele>170.800003</ele>
        <time>2018-02-25T08:38:57Z</time>
      </trkpt>
      <trkpt lat="49.01089" lon="1.12608">
        <ele>170.699997</ele>
        <time>2018-02-25T08:39:01Z</time>
      </trkpt>
      <trkpt lat="49.01091" lon="1.12594">
        <ele>170.600006</ele>
        <time>2018-02-25T08:39:06Z</time>
      </trkpt>
      <trkpt lat="49.01092" lon="1.12578">
        <ele>170.5</ele>
        <time>2018-02-25T08:39:09Z</time>
      </trkpt>
      <trkpt lat="49.01095" lon="1.12564">
        <ele>170.199997</ele>
        <time>2018-02-25T08:39:12Z</time>
      </trkpt>
      <trkpt lat="49.01091" lon="1.12549">
        <ele>169.699997</ele>
        <time>2018-02-25T08:39:15Z</time>
      </trkpt>
      <trkpt lat="49.01089" lon="1.12534">
        <ele>169.600006</ele>
        <time>2018-02-25T08:39:19Z</time>
      </trkpt>
      <trkpt lat="49.01087" lon="1.12519">
        <ele>169.699997</ele>
        <time>2018-02-25T08:39:22Z</time>
      </trkpt>
      <trkpt lat="49.0108" lon="1.1251">
        <ele>169.600006</ele>
        <time>2018-02-25T08:39:27Z</time>
      </trkpt>
      <trkpt lat="49.0107" lon="1.12516">
        <ele>169.5</ele>
        <time>2018-02-25T08:39:34Z</time>
      </trkpt>
      <trkpt lat="49.0107" lon="1.12531">
        <ele>169.800003</ele>
        <time>2018-02-25T08:39:39Z</time>
      </trkpt>
      <trkpt lat="49.01071" lon="1.12546">
        <ele>170.100006</ele>
        <time>2018-02-25T08:39:44Z</time>
      </trkpt>
      <trkpt lat="49.01071" lon="1.12562">
        <ele>170.199997</ele>
        <time>2018-02-25T08:39:48Z</time>
      </trkpt>
      <trkpt lat="49.0107" lon="1.1258">
        <ele>170.199997</ele>
        <time>2018-02-25T08:39:53Z</time>
      </trkpt>
      <trkpt lat="49.01066" lon="1.12593">
        <ele>170.300003</ele>
        <time>2018-02-25T08:39:56Z</time>
      </trkpt>
      <trkpt lat="49.01061" lon="1.12607">
        <ele>170.5</ele>
        <time>2018-02-25T08:39:58Z</time>
      </trkpt>
      <trkpt lat="49.01053" lon="1.12617">
        <ele>170.600006</ele>
        <time>2018-02-25T08:40:01Z</time>
      </trkpt>
      <trkpt lat="49.01043" lon="1.12616">
        <ele>171</ele>
        <time>2018-02-25T08:40:05Z</time>
      </trkpt>
      <trkpt lat="49.01034" lon="1.12624">
        <ele>171.300003</ele>
        <time>2018-02-25T08:40:09Z</time>
      </trkpt>
      <trkpt lat="49.01027" lon="1.12642">
        <ele>171.899994</ele>
        <time>2018-02-25T08:40:13Z</time>
      </trkpt>
      <trkpt lat="49.01023" lon="1.12655">
        <ele>172</ele>
        <time>2018-02-25T08:40:16Z</time>
      </trkpt>
      <trkpt lat="49.01019" lon="1.12667">
        <ele>172.199997</ele>
        <time>2018-02-25T08:40:18Z</time>
      </trkpt>
      <trkpt lat="49.01013" lon="1.12684">
        <ele>172.5</ele>
        <time>2018-02-25T08:40:21Z</time>
      </trkpt>
      <trkpt lat="49.01008" lon="1.12701">
        <ele>172.600006</ele>
        <time>2018-02-25T08:40:24Z</time>
      </trkpt>
      <trkpt lat="49.01004" lon="1.1272">
        <ele>172.5</ele>
        <time>2018-02-25T08:40:27Z</time>
      </trkpt>
      <trkpt lat="49.00999" lon="1.12736">
        <ele>172.399994</ele>
        <time>2018-02-25T08:40:30Z</time>
      </trkpt>
      <trkpt lat="49.00991" lon="1.12745">
        <ele>171.699997</ele>
        <time>2018-02-25T08:40:34Z</time>
      </trkpt>
      <trkpt lat="49.00979" lon="1.12743">
        <ele>171.399994</ele>
        <time>2018-02-25T08:40:39Z</time>
      </trkpt>
      <trkpt lat="49.00967" lon="1.1274">
        <ele>171.399994</ele>
        <time>2018-02-25T08:40:43Z</time>
      </trkpt>
      <trkpt lat="49.00955" lon="1.1274">
        <ele>171.699997</ele>
        <time>2018-02-25T08:40:47Z</time>
      </trkpt>
      <trkpt lat="49.00946" lon="1.12742">
        <ele>171.800003</ele>
        <time>2018-02-25T08:40:51Z</time>
      </trkpt>
      <trkpt lat="49.00936" lon="1.12745">
        <ele>172.199997</ele>
        <time>2018-02-25T08:40:55Z</time>
      </trkpt>
      <trkpt lat="49.00925" lon="1.12745">
        <ele>172.800003</ele>
        <time>2018-02-25T08:41:00Z</time>
      </trkpt>
      <trkpt lat="49.00914" lon="1.12744">
        <ele>172.800003</ele>
        <time>2018-02-25T08:41:04Z</time>
      </trkpt>
      <trkpt lat="49.00903" lon="1.12745">
        <ele>173.100006</ele>
        <time>2018-02-25T08:41:08Z</time>
      </trkpt>
      <trkpt lat="49.00894" lon="1.12747">
        <ele>173.199997</ele>
        <time>2018-02-25T08:41:20Z</time>
      </trkpt>
      <trkpt lat="49.00884" lon="1.12746">
        <ele>173.199997</ele>
        <time>2018-02-25T08:41:27Z</time>
      </trkpt>
      <trkpt lat="49.00874" lon="1.1275">
        <ele>173.199997</ele>
        <time>2018-02-25T08:41:33Z</time>
      </trkpt>
      <trkpt lat="49.00876" lon="1.12764">
        <ele>173.300003</ele>
        <time>2018-02-25T08:41:38Z</time>
      </trkpt>
      <trkpt lat="49.00879" lon="1.12778">
        <ele>173.199997</ele>
        <time>2018-02-25T08:41:42Z</time>
      </trkpt>
      <trkpt lat="49.00882" lon="1.12794">
        <ele>172.899994</ele>
        <time>2018-02-25T08:41:46Z</time>
      </trkpt>
      <trkpt lat="49.00873" lon="1.12801">
        <ele>172.5</ele>
        <time>2018-02-25T08:41:56Z</time>
      </trkpt>
      <trkpt lat="49.00863" lon="1.12798">
        <ele>172.699997</ele>
        <time>2018-02-25T08:42:00Z</time>
      </trkpt>
      <trkpt lat="49.00854" lon="1.12796">
        <ele>173.100006</ele>
        <time>2018-02-25T08:42:13Z</time>
      </trkpt>
      <trkpt lat="49.00844" lon="1.12791">
        <ele>173.100006</ele>
        <time>2018-02-25T08:42:17Z</time>
      </trkpt>
      <trkpt lat="49.00834" lon="1.12787">
        <ele>173.399994</ele>
        <time>2018-02-25T08:42:21Z</time>
      </trkpt>
      <trkpt lat="49.00824" lon="1.12781">
        <ele>173.300003</ele>
        <time>2018-02-25T08:42:26Z</time>
      </trkpt>
      <trkpt lat="49.00815" lon="1.12776">
        <ele>173.5</ele>
        <time>2018-02-25T08:42:31Z</time>
      </trkpt>
      <trkpt lat="49.00804" lon="1.12772">
        <ele>173.399994</ele>
        <time>2018-02-25T08:42:36Z</time>
      </trkpt>
      <trkpt lat="49.008" lon="1.1276">
        <ele>173.199997</ele>
        <time>2018-02-25T08:42:47Z</time>
      </trkpt>
      <trkpt lat="49.00804" lon="1.12746">
        <ele>173.5</ele>
        <time>2018-02-25T08:42:51Z</time>
      </trkpt>
      <trkpt lat="49.00809" lon="1.12731">
        <ele>174.100006</ele>
        <time>2018-02-25T08:42:55Z</time>
      </trkpt>
      <trkpt lat="49.00815" lon="1.12715">
        <ele>174.300003</ele>
        <time>2018-02-25T08:42:59Z</time>
      </trkpt>
      <trkpt lat="49.00819" lon="1.12702">
        <ele>174.600006</ele>
        <time>2018-02-25T08:43:02Z</time>
      </trkpt>
      <trkpt lat="49.00824" lon="1.1269">
        <ele>174.600006</ele>
        <time>2018-02-25T08:43:05Z</time>
      </trkpt>
      <trkpt lat="49.00829" lon="1.12678">
        <ele>174.699997</ele>
        <time>2018-02-25T08:43:08Z</time>
      </trkpt>
      <trkpt lat="49.00833" lon="1.12665">
        <ele>174.699997</ele>
        <time>2018-02-25T08:43:11Z</time>
      </trkpt>
      <trkpt lat="49.00836" lon="1.12652">
        <ele>175</ele>
        <time>2018-02-25T08:43:15Z</time>
      </trkpt>
      <trkpt lat="49.00846" lon="1.12645">
        <ele>174.899994</ele>
        <time>2018-02-25T08:43:20Z</time>
      </trkpt>
      <trkpt lat="49.00855" lon="1.12642">
        <ele>175.100006</ele>
        <time>2018-02-25T08:43:23Z</time>
      </trkpt>
      <trkpt lat="49.00864" lon="1.12637">
        <ele>175.199997</ele>
        <time>2018-02-25T08:43:26Z</time>
      </trkpt>
      <trkpt lat="49.00873" lon="1.12631">
        <ele>175.199997</ele>
        <time>2018-02-25T08:43:29Z</time>
      </trkpt>
      <trkpt lat="49.00883" lon="1.12623">
        <ele>174.899994</ele>
        <time>2018-02-25T08:43:32Z</time>
      </trkpt>
      <trkpt lat="49.00893" lon="1.12617">
        <ele>174.600006</ele>
        <time>2018-02-25T08:43:35Z</time>
      </trkpt>
      <trkpt lat="49.00895" lon="1.12603">
        <ele>174.100006</ele>
        <time>2018-02-25T08:43:39Z</time>
      </trkpt>
      <trkpt lat="49.00889" lon="1.12593">
        <ele>174.100006</ele>
        <time>2018-02-25T08:43:43Z</time>
      </trkpt>
      <trkpt lat="49.00883" lon="1.12582">
        <ele>174.199997</ele>
        <time>2018-02-25T08:43:46Z</time>
      </trkpt>
      <trkpt lat="49.00877" lon="1.12571">
        <ele>174.399994</ele>
        <time>2018-02-25T08:43:49Z</time>
      </trkpt>
      <trkpt lat="49.00872" lon="1.12558">
        <ele>174.600006</ele>
        <time>2018-02-25T08:43:53Z</time>
      </trkpt>
      <trkpt lat="49.00877" lon="1.12542">
        <ele>174.800003</ele>
        <time>2018-02-25T08:43:57Z</time>
      </trkpt>
      <trkpt lat="49.00881" lon="1.12527">
        <ele>174.899994</ele>
        <time>2018-02-25T08:44:00Z</time>
      </trkpt>
      <trkpt lat="49.00886" lon="1.12515">
        <ele>174.800003</ele>
        <time>2018-02-25T08:44:03Z</time>
      </trkpt>
      <trkpt lat="49.00891" lon="1.12501">
        <ele>174.699997</ele>
        <time>2018-02-25T08:44:06Z</time>
      </trkpt>
      <trkpt lat="49.00895" lon="1.12487">
        <ele>174.300003</ele>
        <time>2018-02-25T08:44:09Z</time>
      </trkpt>
      <trkpt lat="49.00901" lon="1.12473">
        <ele>173.899994</ele>
        <time>2018-02-25T08:44:12Z</time>
      </trkpt>
      <trkpt lat="49.00906" lon="1.12459">
        <ele>173.600006</ele>
        <time>2018-02-25T08:44:15Z</time>
      </trkpt>
      <trkpt lat="49.00912" lon="1.12444">
        <ele>173.399994</ele>
        <time>2018-02-25T08:44:18Z</time>
      </trkpt>
      <trkpt lat="49.00918" lon="1.1243">
        <ele>173</ele>
        <time>2018-02-25T08:44:21Z</time>
      </trkpt>
      <trkpt lat="49.00923" lon="1.12414">
        <ele>172.800003</ele>
        <time>2018-02-25T08:44:24Z</time>
      </trkpt>
      <trkpt lat="49.00928" lon="1.12398">
        <ele>172.199997</ele>
        <time>2018-02-25T08:44:27Z</time>
      </trkpt>
      <trkpt lat="49.00934" lon="1.12382">
        <ele>172.100006</ele>
        <time>2018-02-25T08:44:30Z</time>
      </trkpt>
      <trkpt lat="49.00939" lon="1.12365">
        <ele>171.699997</ele>
        <time>2018-02-25T08:44:33Z</time>
      </trkpt>
      <trkpt lat="49.00945" lon="1.1235">
        <ele>171.399994</ele>
        <time>2018-02-25T08:44:36Z</time>
      </trkpt>
      <trkpt lat="49.00948" lon="1.12336">
        <ele>171</ele>
        <time>2018-02-25T08:44:38Z</time>
      </trkpt>
      <trkpt lat="49.00952" lon="1.12323">
        <ele>170.699997</ele>
        <time>2018-02-25T08:44:40Z</time>
      </trkpt>
      <trkpt lat="49.00958" lon="1.12307">
        <ele>169.899994</ele>
        <time>2018-02-25T08:44:43Z</time>
      </trkpt>
      <trkpt lat="49.00961" lon="1.12293">
        <ele>169.100006</ele>
        <time>2018-02-25T08:44:49Z</time>
      </trkpt>
      <trkpt lat="49.00964" lon="1.1228">
        <ele>168.899994</ele>
        <time>2018-02-25T08:44:53Z</time>
      </trkpt>
      <trkpt lat="49.0097" lon="1.12265">
        <ele>168.800003</ele>
        <time>2018-02-25T08:44:57Z</time>
      </trkpt>
      <trkpt lat="49.00974" lon="1.12249">
        <ele>168.800003</ele>
        <time>2018-02-25T08:45:01Z</time>
      </trkpt>
      <trkpt lat="49.00979" lon="1.12236">
        <ele>168.600006</ele>
        <time>2018-02-25T08:45:04Z</time>
      </trkpt>
      <trkpt lat="49.00985" lon="1.12224">
        <ele>168.5</ele>
        <time>2018-02-25T08:45:07Z</time>
      </trkpt>
      <trkpt lat="49.00991" lon="1.12212">
        <ele>168.600006</ele>
        <time>2018-02-25T08:45:10Z</time>
      </trkpt>
      <trkpt lat="49.00996" lon="1.12197">
        <ele>168.800003</ele>
        <time>2018-02-25T08:45:13Z</time>
      </trkpt>
      <trkpt lat="49.01001" lon="1.12185">
        <ele>168.600006</ele>
        <time>2018-02-25T08:45:17Z</time>
      </trkpt>
      <trkpt lat="49.01006" lon="1.12198">
        <ele>168</ele>
        <time>2018-02-25T08:45:26Z</time>
      </trkpt>
      <trkpt lat="49.01012" lon="1.1221">
        <ele>167.199997</ele>
        <time>2018-02-25T08:45:34Z</time>
      </trkpt>
      <trkpt lat="49.01016" lon="1.12223">
        <ele>167</ele>
        <time>2018-02-25T08:45:39Z</time>
      </trkpt>
      <trkpt lat="49.01018" lon="1.12237">
        <ele>167</ele>
        <time>2018-02-25T08:45:44Z</time>
      </trkpt>
      <trkpt lat="49.01022" lon="1.12251">
        <ele>167</ele>
        <time>2018-02-25T08:45:48Z</time>
      </trkpt>
      <trkpt lat="49.01027" lon="1.12264">
        <ele>167</ele>
        <time>2018-02-25T08:45:52Z</time>
      </trkpt>
      <trkpt lat="49.01029" lon="1.12281">
        <ele>167.300003</ele>
        <time>2018-02-25T08:45:56Z</time>
      </trkpt>
      <trkpt lat="49.01032" lon="1.12296">
        <ele>167.399994</ele>
        <time>2018-02-25T08:46:00Z</time>
      </trkpt>
      <trkpt lat="49.01036" lon="1.12311">
        <ele>167.399994</ele>
        <time>2018-02-25T08:46:04Z</time>
      </trkpt>
      <trkpt lat="49.01039" lon="1.12324">
        <ele>167.5</ele>
        <time>2018-02-25T08:46:07Z</time>
      </trkpt>
      <trkpt lat="49.01042" lon="1.12339">
        <ele>167.699997</ele>
        <time>2018-02-25T08:46:10Z</time>
      </trkpt>
      <trkpt lat="49.0105" lon="1.12347">
        <ele>167.600006</ele>
        <time>2018-02-25T08:46:16Z</time>
      </trkpt>
      <trkpt lat="49.01054" lon="1.12332">
        <ele>167.5</ele>
        <time>2018-02-25T08:46:20Z</time>
      </trkpt>
      <trkpt lat="49.01056" lon="1.12318">
        <ele>167.5</ele>
        <time>2018-02-25T08:46:23Z</time>
      </trkpt>
      <trkpt lat="49.01058" lon="1.12304">
        <ele>167.699997</ele>
        <time>2018-02-25T08:46:26Z</time>
      </trkpt>
      <trkpt lat="49.0106" lon="1.1229">
        <ele>167.899994</ele>
        <time>2018-02-25T08:46:29Z</time>
      </trkpt>
      <trkpt lat="49.01061" lon="1.12277">
        <ele>167.600006</ele>
        <time>2018-02-25T08:46:32Z</time>
      </trkpt>
      <trkpt lat="49.01067" lon="1.12262">
        <ele>167.5</ele>
        <time>2018-02-25T08:46:35Z</time>
      </trkpt>
      <trkpt lat="49.01073" lon="1.12251">
        <ele>167.300003</ele>
        <time>2018-02-25T08:46:37Z</time>
      </trkpt>
      <trkpt lat="49.01081" lon="1.12237">
        <ele>167.100006</ele>
        <time>2018-02-25T08:46:40Z</time>
      </trkpt>
      <trkpt lat="49.01088" lon="1.12223">
        <ele>166.800003</ele>
        <time>2018-02-25T08:46:43Z</time>
      </trkpt>
      <trkpt lat="49.01093" lon="1.1221">
        <ele>166.699997</ele>
        <time>2018-02-25T08:46:46Z</time>
      </trkpt>
      <trkpt lat="49.01098" lon="1.12197">
        <ele>166.600006</ele>
        <time>2018-02-25T08:46:49Z</time>
      </trkpt>
      <trkpt lat="49.01102" lon="1.12178">
        <ele>166.800003</ele>
        <time>2018-02-25T08:46:52Z</time>
      </trkpt>
      <trkpt lat="49.01104" lon="1.12162">
        <ele>167</ele>
        <time>2018-02-25T08:46:55Z</time>
      </trkpt>
      <trkpt lat="49.01098" lon="1.12151">
        <ele>166.600006</ele>
        <time>2018-02-25T08:46:58Z</time>
      </trkpt>
      <trkpt lat="49.01103" lon="1.12141">
        <ele>166.300003</ele>
        <time>2018-02-25T08:47:03Z</time>
      </trkpt>
      <trkpt lat="49.01114" lon="1.12131">
        <ele>165.899994</ele>
        <time>2018-02-25T08:47:07Z</time>
      </trkpt>
      <trkpt lat="49.01126" lon="1.12127">
        <ele>166</ele>
        <time>2018-02-25T08:47:11Z</time>
      </trkpt>
      <trkpt lat="49.01138" lon="1.12121">
        <ele>166.199997</ele>
        <time>2018-02-25T08:47:15Z</time>
      </trkpt>
      <trkpt lat="49.01146" lon="1.12115">
        <ele>166.5</ele>
        <time>2018-02-25T08:47:18Z</time>
      </trkpt>
      <trkpt lat="49.01154" lon="1.12108">
        <ele>166.800003</ele>
        <time>2018-02-25T08:47:21Z</time>
      </trkpt>
      <trkpt lat="49.01164" lon="1.12103">
        <ele>166.699997</ele>
        <time>2018-02-25T08:47:24Z</time>
      </trkpt>
      <trkpt lat="49.01174" lon="1.12096">
        <ele>166.899994</ele>
        <time>2018-02-25T08:47:27Z</time>
      </trkpt>
      <trkpt lat="49.01185" lon="1.1209">
        <ele>167.100006</ele>
        <time>2018-02-25T08:47:30Z</time>
      </trkpt>
      <trkpt lat="49.01195" lon="1.12082">
        <ele>167.100006</ele>
        <time>2018-02-25T08:47:33Z</time>
      </trkpt>
      <trkpt lat="49.01201" lon="1.12071">
        <ele>167</ele>
        <time>2018-02-25T08:47:35Z</time>
      </trkpt>
      <trkpt lat="49.01211" lon="1.12066">
        <ele>166.600006</ele>
        <time>2018-02-25T08:47:38Z</time>
      </trkpt>
      <trkpt lat="49.01223" lon="1.12055">
        <ele>166.100006</ele>
        <time>2018-02-25T08:47:41Z</time>
      </trkpt>
      <trkpt lat="49.01231" lon="1.12046">
        <ele>165.300003</ele>
        <time>2018-02-25T08:47:44Z</time>
      </trkpt>
      <trkpt lat="49.0124" lon="1.12054">
        <ele>163.800003</ele>
        <time>2018-02-25T08:47:49Z</time>
      </trkpt>
      <trkpt lat="49.01246" lon="1.12069">
        <ele>163.5</ele>
        <time>2018-02-25T08:47:53Z</time>
      </trkpt>
      <trkpt lat="49.01248" lon="1.12085">
        <ele>163.699997</ele>
        <time>2018-02-25T08:47:57Z</time>
      </trkpt>
      <trkpt lat="49.01244" lon="1.121">
        <ele>164.600006</ele>
        <time>2018-02-25T08:48:01Z</time>
      </trkpt>
      <trkpt lat="49.0124" lon="1.12114">
        <ele>165.399994</ele>
        <time>2018-02-25T08:48:05Z</time>
      </trkpt>
      <trkpt lat="49.01236" lon="1.12129">
        <ele>166.199997</ele>
        <time>2018-02-25T08:48:09Z</time>
      </trkpt>
      <trkpt lat="49.01231" lon="1.12143">
        <ele>166.899994</ele>
        <time>2018-02-25T08:48:12Z</time>
      </trkpt>
      <trkpt lat="49.01227" lon="1.12156">
        <ele>167.300003</ele>
        <time>2018-02-25T08:48:15Z</time>
      </trkpt>
      <trkpt lat="49.01222" lon="1.12172">
        <ele>167.899994</ele>
        <time>2018-02-25T08:48:19Z</time>
      </trkpt>
      <trkpt lat="49.01218" lon="1.12185">
        <ele>168.399994</ele>
        <time>2018-02-25T08:48:23Z</time>
      </trkpt>
      <trkpt lat="49.01213" lon="1.122">
        <ele>168.899994</ele>
        <time>2018-02-25T08:48:27Z</time>
      </trkpt>
      <trkpt lat="49.01211" lon="1.12214">
        <ele>169.100006</ele>
        <time>2018-02-25T08:48:32Z</time>
      </trkpt>
      <trkpt lat="49.01215" lon="1.122">
        <ele>169</ele>
        <time>2018-02-25T08:48:39Z</time>
      </trkpt>
      <trkpt lat="49.0122" lon="1.12188">
        <ele>168.800003</ele>
        <time>2018-02-25T08:48:43Z</time>
      </trkpt>
      <trkpt lat="49.01224" lon="1.12175">
        <ele>168.800003</ele>
        <time>2018-02-25T08:48:46Z</time>
      </trkpt>
      <trkpt lat="49.0123" lon="1.12162">
        <ele>168.899994</ele>
        <time>2018-02-25T08:48:49Z</time>
      </trkpt>
      <trkpt lat="49.01235" lon="1.12147">
        <ele>168.300003</ele>
        <time>2018-02-25T08:48:54Z</time>
      </trkpt>
      <trkpt lat="49.01239" lon="1.12135">
        <ele>167.899994</ele>
        <time>2018-02-25T08:48:58Z</time>
      </trkpt>
      <trkpt lat="49.01232" lon="1.1215">
        <ele>167.399994</ele>
        <time>2018-02-25T08:49:06Z</time>
      </trkpt>
      <trkpt lat="49.01226" lon="1.12165">
        <ele>167.899994</ele>
        <time>2018-02-25T08:49:10Z</time>
      </trkpt>
      <trkpt lat="49.01221" lon="1.12177">
        <ele>168.300003</ele>
        <time>2018-02-25T08:49:13Z</time>
      </trkpt>
      <trkpt lat="49.01217" lon="1.12191">
        <ele>169</ele>
        <time>2018-02-25T08:49:17Z</time>
      </trkpt>
      <trkpt lat="49.01212" lon="1.12203">
        <ele>169.199997</ele>
        <time>2018-02-25T08:49:21Z</time>
      </trkpt>
      <trkpt lat="49.01209" lon="1.12216">
        <ele>169.100006</ele>
        <time>2018-02-25T08:49:26Z</time>
      </trkpt>
      <trkpt lat="49.01215" lon="1.12205">
        <ele>169</ele>
        <time>2018-02-25T08:49:37Z</time>
      </trkpt>
      <trkpt lat="49.01218" lon="1.12221">
        <ele>168.5</ele>
        <time>2018-02-25T08:51:46Z</time>
      </trkpt>
      <trkpt lat="49.01226" lon="1.1223">
        <ele>168.699997</ele>
        <time>2018-02-25T08:51:49Z</time>
      </trkpt>
      <trkpt lat="49.01235" lon="1.12238">
        <ele>168.5</ele>
        <time>2018-02-25T08:51:52Z</time>
      </trkpt>
      <trkpt lat="49.01247" lon="1.12247">
        <ele>168.300003</ele>
        <time>2018-02-25T08:51:55Z</time>
      </trkpt>
      <trkpt lat="49.01257" lon="1.12254">
        <ele>167.800003</ele>
        <time>2018-02-25T08:51:58Z</time>
      </trkpt>
      <trkpt lat="49.01268" lon="1.12262">
        <ele>167.300003</ele>
        <time>2018-02-25T08:52:01Z</time>
      </trkpt>
      <trkpt lat="49.01277" lon="1.12269">
        <ele>167.100006</ele>
        <time>2018-02-25T08:52:03Z</time>
      </trkpt>
      <trkpt lat="49.01287" lon="1.12273">
        <ele>166.300003</ele>
        <time>2018-02-25T08:52:06Z</time>
      </trkpt>
      <trkpt lat="49.01294" lon="1.12263">
        <ele>165.699997</ele>
        <time>2018-02-25T08:52:10Z</time>
      </trkpt>
      <trkpt lat="49.01303" lon="1.12254">
        <ele>165.199997</ele>
        <time>2018-02-25T08:52:14Z</time>
      </trkpt>
      <trkpt lat="49.01312" lon="1.12246">
        <ele>164.899994</ele>
        <time>2018-02-25T08:52:17Z</time>
      </trkpt>
      <trkpt lat="49.01319" lon="1.12235">
        <ele>164.300003</ele>
        <time>2018-02-25T08:52:20Z</time>
      </trkpt>
      <trkpt lat="49.01327" lon="1.12222">
        <ele>163.399994</ele>
        <time>2018-02-25T08:52:24Z</time>
      </trkpt>
      <trkpt lat="49.01334" lon="1.12209">
        <ele>162.699997</ele>
        <time>2018-02-25T08:52:27Z</time>
      </trkpt>
      <trkpt lat="49.01337" lon="1.12196">
        <ele>162.100006</ele>
        <time>2018-02-25T08:52:30Z</time>
      </trkpt>
      <trkpt lat="49.01334" lon="1.12182">
        <ele>161.300003</ele>
        <time>2018-02-25T08:52:33Z</time>
      </trkpt>
      <trkpt lat="49.01328" lon="1.12167">
        <ele>161.300003</ele>
        <time>2018-02-25T08:52:36Z</time>
      </trkpt>
      <trkpt lat="49.01324" lon="1.12154">
        <ele>161.5</ele>
        <time>2018-02-25T08:52:39Z</time>
      </trkpt>
      <trkpt lat="49.01322" lon="1.12138">
        <ele>161.899994</ele>
        <time>2018-02-25T08:52:42Z</time>
      </trkpt>
      <trkpt lat="49.0132" lon="1.1212">
        <ele>161.899994</ele>
        <time>2018-02-25T08:52:45Z</time>
      </trkpt>
      <trkpt lat="49.01319" lon="1.12106">
        <ele>161.899994</ele>
        <time>2018-02-25T08:52:47Z</time>
      </trkpt>
      <trkpt lat="49.01317" lon="1.12091">
        <ele>161.399994</ele>
        <time>2018-02-25T08:52:50Z</time>
      </trkpt>
      <trkpt lat="49.0131" lon="1.12081">
        <ele>160.800003</ele>
        <time>2018-02-25T08:52:53Z</time>
      </trkpt>
      <trkpt lat="49.013" lon="1.1207">
        <ele>160</ele>
        <time>2018-02-25T08:52:56Z</time>
      </trkpt>
      <trkpt lat="49.0129" lon="1.12059">
        <ele>159.399994</ele>
        <time>2018-02-25T08:52:59Z</time>
      </trkpt>
      <trkpt lat="49.01287" lon="1.12044">
        <ele>159.399994</ele>
        <time>2018-02-25T08:53:03Z</time>
      </trkpt>
      <trkpt lat="49.01296" lon="1.12034">
        <ele>159.199997</ele>
        <time>2018-02-25T08:53:06Z</time>
      </trkpt>
      <trkpt lat="49.01304" lon="1.12029">
        <ele>158.600006</ele>
        <time>2018-02-25T08:53:08Z</time>
      </trkpt>
      <trkpt lat="49.013" lon="1.12017">
        <ele>155.800003</ele>
        <time>2018-02-25T08:53:17Z</time>
      </trkpt>
      <trkpt lat="49.01289" lon="1.12013">
        <ele>156.399994</ele>
        <time>2018-02-25T08:53:21Z</time>
      </trkpt>
      <trkpt lat="49.01279" lon="1.1201">
        <ele>157.399994</ele>
        <time>2018-02-25T08:53:25Z</time>
      </trkpt>
      <trkpt lat="49.01268" lon="1.12008">
        <ele>158.100006</ele>
        <time>2018-02-25T08:53:29Z</time>
      </trkpt>
      <trkpt lat="49.01256" lon="1.12008">
        <ele>158.800003</ele>
        <time>2018-02-25T08:53:33Z</time>
      </trkpt>
      <trkpt lat="49.01247" lon="1.12003">
        <ele>159.5</ele>
        <time>2018-02-25T08:53:37Z</time>
      </trkpt>
      <trkpt lat="49.01236" lon="1.12002">
        <ele>160.300003</ele>
        <time>2018-02-25T08:53:41Z</time>
      </trkpt>
      <trkpt lat="49.01228" lon="1.11991">
        <ele>160.699997</ele>
        <time>2018-02-25T08:53:44Z</time>
      </trkpt>
      <trkpt lat="49.01217" lon="1.11987">
        <ele>160.300003</ele>
        <time>2018-02-25T08:53:47Z</time>
      </trkpt>
      <trkpt lat="49.01206" lon="1.11983">
        <ele>160.100006</ele>
        <time>2018-02-25T08:53:50Z</time>
      </trkpt>
      <trkpt lat="49.01196" lon="1.11984">
        <ele>159.899994</ele>
        <time>2018-02-25T08:53:53Z</time>
      </trkpt>
      <trkpt lat="49.01185" lon="1.11985">
        <ele>159.899994</ele>
        <time>2018-02-25T08:53:56Z</time>
      </trkpt>
      <trkpt lat="49.01174" lon="1.11987">
        <ele>160</ele>
        <time>2018-02-25T08:53:59Z</time>
      </trkpt>
      <trkpt lat="49.01161" lon="1.11988">
        <ele>159.699997</ele>
        <time>2018-02-25T08:54:02Z</time>
      </trkpt>
      <trkpt lat="49.01152" lon="1.11991">
        <ele>159.5</ele>
        <time>2018-02-25T08:54:04Z</time>
      </trkpt>
      <trkpt lat="49.01143" lon="1.11995">
        <ele>159.199997</ele>
        <time>2018-02-25T08:54:06Z</time>
      </trkpt>
      <trkpt lat="49.01134" lon="1.11987">
        <ele>158.600006</ele>
        <time>2018-02-25T08:54:08Z</time>
      </trkpt>
      <trkpt lat="49.01127" lon="1.11976">
        <ele>158.199997</ele>
        <time>2018-02-25T08:54:10Z</time>
      </trkpt>
      <trkpt lat="49.01121" lon="1.11962">
        <ele>159.199997</ele>
        <time>2018-02-25T08:54:13Z</time>
      </trkpt>
      <trkpt lat="49.01116" lon="1.11946">
        <ele>160.100006</ele>
        <time>2018-02-25T08:54:16Z</time>
      </trkpt>
      <trkpt lat="49.0111" lon="1.11931">
        <ele>160.699997</ele>
        <time>2018-02-25T08:54:19Z</time>
      </trkpt>
      <trkpt lat="49.01097" lon="1.11926">
        <ele>161.199997</ele>
        <time>2018-02-25T08:54:22Z</time>
      </trkpt>
      <trkpt lat="49.01085" lon="1.11923">
        <ele>162</ele>
        <time>2018-02-25T08:54:25Z</time>
      </trkpt>
      <trkpt lat="49.01075" lon="1.11915">
        <ele>162.600006</ele>
        <time>2018-02-25T08:54:28Z</time>
      </trkpt>
      <trkpt lat="49.01063" lon="1.11914">
        <ele>162.899994</ele>
        <time>2018-02-25T08:54:31Z</time>
      </trkpt>
      <trkpt lat="49.0105" lon="1.11909">
        <ele>163.399994</ele>
        <time>2018-02-25T08:54:34Z</time>
      </trkpt>
      <trkpt lat="49.01041" lon="1.11906">
        <ele>163.600006</ele>
        <time>2018-02-25T08:54:36Z</time>
      </trkpt>
      <trkpt lat="49.0103" lon="1.11903">
        <ele>162.899994</ele>
        <time>2018-02-25T08:54:39Z</time>
      </trkpt>
      <trkpt lat="49.01022" lon="1.11896">
        <ele>163.300003</ele>
        <time>2018-02-25T08:54:43Z</time>
      </trkpt>
      <trkpt lat="49.01011" lon="1.11892">
        <ele>163</ele>
        <time>2018-02-25T08:54:47Z</time>
      </trkpt>
      <trkpt lat="49.01" lon="1.11889">
        <ele>163.399994</ele>
        <time>2018-02-25T08:54:51Z</time>
      </trkpt>
      <trkpt lat="49.0099" lon="1.11889">
        <ele>163.600006</ele>
        <time>2018-02-25T08:54:54Z</time>
      </trkpt>
      <trkpt lat="49.00979" lon="1.11888">
        <ele>164.899994</ele>
        <time>2018-02-25T08:54:58Z</time>
      </trkpt>
      <trkpt lat="49.0097" lon="1.11885">
        <ele>166</ele>
        <time>2018-02-25T08:55:01Z</time>
      </trkpt>
      <trkpt lat="49.00962" lon="1.11875">
        <ele>166.800003</ele>
        <time>2018-02-25T08:55:04Z</time>
      </trkpt>
      <trkpt lat="49.00953" lon="1.11871">
        <ele>167.199997</ele>
        <time>2018-02-25T08:55:07Z</time>
      </trkpt>
      <trkpt lat="49.00942" lon="1.11867">
        <ele>167.899994</ele>
        <time>2018-02-25T08:55:11Z</time>
      </trkpt>
      <trkpt lat="49.00933" lon="1.11864">
        <ele>168.100006</ele>
        <time>2018-02-25T08:55:15Z</time>
      </trkpt>
      <trkpt lat="49.00922" lon="1.11857">
        <ele>168</ele>
        <time>2018-02-25T08:55:25Z</time>
      </trkpt>
      <trkpt lat="49.00911" lon="1.11855">
        <ele>167.899994</ele>
        <time>2018-02-25T08:55:29Z</time>
      </trkpt>
      <trkpt lat="49.00901" lon="1.11852">
        <ele>168</ele>
        <time>2018-02-25T08:55:32Z</time>
      </trkpt>
      <trkpt lat="49.00892" lon="1.11848">
        <ele>168.399994</ele>
        <time>2018-02-25T08:55:35Z</time>
      </trkpt>
      <trkpt lat="49.00882" lon="1.11844">
        <ele>168.5</ele>
        <time>2018-02-25T08:55:38Z</time>
      </trkpt>
      <trkpt lat="49.00871" lon="1.1184">
        <ele>168.5</ele>
        <time>2018-02-25T08:55:41Z</time>
      </trkpt>
      <trkpt lat="49.00861" lon="1.11835">
        <ele>168.600006</ele>
        <time>2018-02-25T08:55:44Z</time>
      </trkpt>
      <trkpt lat="49.00852" lon="1.11827">
        <ele>168.699997</ele>
        <time>2018-02-25T08:55:47Z</time>
      </trkpt>
      <trkpt lat="49.00843" lon="1.11818">
        <ele>168.600006</ele>
        <time>2018-02-25T08:55:50Z</time>
      </trkpt>
      <trkpt lat="49.00832" lon="1.1181">
        <ele>168.5</ele>
        <time>2018-02-25T08:55:53Z</time>
      </trkpt>
      <trkpt lat="49.00821" lon="1.11805">
        <ele>168.300003</ele>
        <time>2018-02-25T08:55:56Z</time>
      </trkpt>
      <trkpt lat="49.0081" lon="1.11799">
        <ele>168.100006</ele>
        <time>2018-02-25T08:55:59Z</time>
      </trkpt>
      <trkpt lat="49.00801" lon="1.11795">
        <ele>168</ele>
        <time>2018-02-25T08:56:01Z</time>
      </trkpt>
      <trkpt lat="49.0079" lon="1.11795">
        <ele>167.600006</ele>
        <time>2018-02-25T08:56:04Z</time>
      </trkpt>
      <trkpt lat="49.00781" lon="1.11796">
        <ele>167.5</ele>
        <time>2018-02-25T08:56:06Z</time>
      </trkpt>
      <trkpt lat="49.00771" lon="1.11792">
        <ele>167.199997</ele>
        <time>2018-02-25T08:56:08Z</time>
      </trkpt>
      <trkpt lat="49.0076" lon="1.1178">
        <ele>166.600006</ele>
        <time>2018-02-25T08:56:10Z</time>
      </trkpt>
      <trkpt lat="49.00749" lon="1.11773">
        <ele>165.800003</ele>
        <time>2018-02-25T08:56:12Z</time>
      </trkpt>
      <trkpt lat="49.00738" lon="1.11771">
        <ele>165.100006</ele>
        <time>2018-02-25T08:56:14Z</time>
      </trkpt>
      <trkpt lat="49.00727" lon="1.11766">
        <ele>164.699997</ele>
        <time>2018-02-25T08:56:16Z</time>
      </trkpt>
      <trkpt lat="49.0072" lon="1.11758">
        <ele>164.899994</ele>
        <time>2018-02-25T08:56:19Z</time>
      </trkpt>
      <trkpt lat="49.00711" lon="1.11755">
        <ele>165</ele>
        <time>2018-02-25T08:56:21Z</time>
      </trkpt>
      <trkpt lat="49.00701" lon="1.11754">
        <ele>165</ele>
        <time>2018-02-25T08:56:23Z</time>
      </trkpt>
      <trkpt lat="49.00692" lon="1.11752">
        <ele>165</ele>
        <time>2018-02-25T08:56:25Z</time>
      </trkpt>
      <trkpt lat="49.00683" lon="1.11753">
        <ele>164.899994</ele>
        <time>2018-02-25T08:56:27Z</time>
      </trkpt>
      <trkpt lat="49.00675" lon="1.11747">
        <ele>164.800003</ele>
        <time>2018-02-25T08:56:29Z</time>
      </trkpt>
      <trkpt lat="49.00663" lon="1.11745">
        <ele>164.899994</ele>
        <time>2018-02-25T08:56:32Z</time>
      </trkpt>
      <trkpt lat="49.00653" lon="1.11744">
        <ele>165.399994</ele>
        <time>2018-02-25T08:56:34Z</time>
      </trkpt>
      <trkpt lat="49.00643" lon="1.11739">
        <ele>166.199997</ele>
        <time>2018-02-25T08:56:37Z</time>
      </trkpt>
      <trkpt lat="49.0064" lon="1.11726">
        <ele>167.199997</ele>
        <time>2018-02-25T08:56:46Z</time>
      </trkpt>
      <trkpt lat="49.00637" lon="1.11712">
        <ele>167.199997</ele>
        <time>2018-02-25T08:56:54Z</time>
      </trkpt>
      <trkpt lat="49.00633" lon="1.11699">
        <ele>167.399994</ele>
        <time>2018-02-25T08:56:59Z</time>
      </trkpt>
      <trkpt lat="49.0063" lon="1.11685">
        <ele>167.100006</ele>
        <time>2018-02-25T08:57:03Z</time>
      </trkpt>
      <trkpt lat="49.00626" lon="1.1167">
        <ele>165.800003</ele>
        <time>2018-02-25T08:57:07Z</time>
      </trkpt>
      <trkpt lat="49.00622" lon="1.11654">
        <ele>164.699997</ele>
        <time>2018-02-25T08:57:10Z</time>
      </trkpt>
      <trkpt lat="49.00619" lon="1.1164">
        <ele>162.800003</ele>
        <time>2018-02-25T08:57:13Z</time>
      </trkpt>
      <trkpt lat="49.00613" lon="1.11627">
        <ele>160.5</ele>
        <time>2018-02-25T08:57:16Z</time>
      </trkpt>
      <trkpt lat="49.00602" lon="1.11622">
        <ele>158.100006</ele>
        <time>2018-02-25T08:57:19Z</time>
      </trkpt>
      <trkpt lat="49.00591" lon="1.11616">
        <ele>156.699997</ele>
        <time>2018-02-25T08:57:22Z</time>
      </trkpt>
      <trkpt lat="49.0058" lon="1.11611">
        <ele>156.300003</ele>
        <time>2018-02-25T08:57:25Z</time>
      </trkpt>
      <trkpt lat="49.0057" lon="1.11607">
        <ele>156.600006</ele>
        <time>2018-02-25T08:57:28Z</time>
      </trkpt>
      <trkpt lat="49.00561" lon="1.11602">
        <ele>157.600006</ele>
        <time>2018-02-25T08:57:31Z</time>
      </trkpt>
      <trkpt lat="49.0055" lon="1.11599">
        <ele>159</ele>
        <time>2018-02-25T08:57:35Z</time>
      </trkpt>
      <trkpt lat="49.0054" lon="1.11596">
        <ele>160.199997</ele>
        <time>2018-02-25T08:57:38Z</time>
      </trkpt>
      <trkpt lat="49.00531" lon="1.11601">
        <ele>161.399994</ele>
        <time>2018-02-25T08:57:41Z</time>
      </trkpt>
      <trkpt lat="49.00528" lon="1.11618">
        <ele>162.699997</ele>
        <time>2018-02-25T08:57:45Z</time>
      </trkpt>
      <trkpt lat="49.00526" lon="1.11634">
        <ele>163.699997</ele>
        <time>2018-02-25T08:57:49Z</time>
      </trkpt>
      <trkpt lat="49.00524" lon="1.11653">
        <ele>164.699997</ele>
        <time>2018-02-25T08:57:53Z</time>
      </trkpt>
      <trkpt lat="49.00523" lon="1.11669">
        <ele>165.199997</ele>
        <time>2018-02-25T08:57:57Z</time>
      </trkpt>
      <trkpt lat="49.00521" lon="1.11688">
        <ele>165.800003</ele>
        <time>2018-02-25T08:58:01Z</time>
      </trkpt>
      <trkpt lat="49.00519" lon="1.11705">
        <ele>165.899994</ele>
        <time>2018-02-25T08:58:05Z</time>
      </trkpt>
      <trkpt lat="49.00517" lon="1.11719">
        <ele>166.100006</ele>
        <time>2018-02-25T08:58:08Z</time>
      </trkpt>
      <trkpt lat="49.00515" lon="1.11734">
        <ele>166.199997</ele>
        <time>2018-02-25T08:58:11Z</time>
      </trkpt>
      <trkpt lat="49.00513" lon="1.1175">
        <ele>166.399994</ele>
        <time>2018-02-25T08:58:15Z</time>
      </trkpt>
      <trkpt lat="49.00524" lon="1.11752">
        <ele>166.899994</ele>
        <time>2018-02-25T08:58:22Z</time>
      </trkpt>
      <trkpt lat="49.00531" lon="1.11762">
        <ele>167.800003</ele>
        <time>2018-02-25T08:58:28Z</time>
      </trkpt>
      <trkpt lat="49.00539" lon="1.11769">
        <ele>168.300003</ele>
        <time>2018-02-25T08:58:32Z</time>
      </trkpt>
      <trkpt lat="49.0055" lon="1.11776">
        <ele>169</ele>
        <time>2018-02-25T08:58:37Z</time>
      </trkpt>
      <trkpt lat="49.00559" lon="1.11783">
        <ele>169.600006</ele>
        <time>2018-02-25T08:58:41Z</time>
      </trkpt>
      <trkpt lat="49.00569" lon="1.1179">
        <ele>170.100006</ele>
        <time>2018-02-25T08:58:45Z</time>
      </trkpt>
      <trkpt lat="49.00579" lon="1.11796">
        <ele>170.399994</ele>
        <time>2018-02-25T08:58:49Z</time>
      </trkpt>
      <trkpt lat="49.00589" lon="1.11802">
        <ele>170.5</ele>
        <time>2018-02-25T08:58:53Z</time>
      </trkpt>
      <trkpt lat="49.00599" lon="1.11808">
        <ele>170.5</ele>
        <time>2018-02-25T08:58:57Z</time>
      </trkpt>
      <trkpt lat="49.0061" lon="1.11815">
        <ele>170.300003</ele>
        <time>2018-02-25T08:59:01Z</time>
      </trkpt>
      <trkpt lat="49.0062" lon="1.11823">
        <ele>170</ele>
        <time>2018-02-25T08:59:05Z</time>
      </trkpt>
      <trkpt lat="49.00629" lon="1.11829">
        <ele>169.800003</ele>
        <time>2018-02-25T08:59:08Z</time>
      </trkpt>
      <trkpt lat="49.00638" lon="1.11836">
        <ele>169.600006</ele>
        <time>2018-02-25T08:59:11Z</time>
      </trkpt>
      <trkpt lat="49.00647" lon="1.11843">
        <ele>169.399994</ele>
        <time>2018-02-25T08:59:14Z</time>
      </trkpt>
      <trkpt lat="49.00656" lon="1.11849">
        <ele>169.300003</ele>
        <time>2018-02-25T08:59:17Z</time>
      </trkpt>
      <trkpt lat="49.00666" lon="1.11856">
        <ele>169.399994</ele>
        <time>2018-02-25T08:59:21Z</time>
      </trkpt>
      <trkpt lat="49.0067" lon="1.11871">
        <ele>169.399994</ele>
        <time>2018-02-25T08:59:26Z</time>
      </trkpt>
      <trkpt lat="49.00674" lon="1.11884">
        <ele>169.399994</ele>
        <time>2018-02-25T08:59:29Z</time>
      </trkpt>
      <trkpt lat="49.00677" lon="1.11898">
        <ele>169.5</ele>
        <time>2018-02-25T08:59:32Z</time>
      </trkpt>
      <trkpt lat="49.00681" lon="1.11913">
        <ele>169.800003</ele>
        <time>2018-02-25T08:59:35Z</time>
      </trkpt>
      <trkpt lat="49.00684" lon="1.11927">
        <ele>170.100006</ele>
        <time>2018-02-25T08:59:38Z</time>
      </trkpt>
      <trkpt lat="49.00687" lon="1.11942">
        <ele>170.100006</ele>
        <time>2018-02-25T08:59:41Z</time>
      </trkpt>
      <trkpt lat="49.0069" lon="1.11956">
        <ele>170</ele>
        <time>2018-02-25T08:59:44Z</time>
      </trkpt>
      <trkpt lat="49.00693" lon="1.1197">
        <ele>169.800003</ele>
        <time>2018-02-25T08:59:47Z</time>
      </trkpt>
      <trkpt lat="49.00692" lon="1.11986">
        <ele>169.699997</ele>
        <time>2018-02-25T08:59:51Z</time>
      </trkpt>
      <trkpt lat="49.00685" lon="1.11999">
        <ele>169.100006</ele>
        <time>2018-02-25T08:59:55Z</time>
      </trkpt>
      <trkpt lat="49.00678" lon="1.12007">
        <ele>168.699997</ele>
        <time>2018-02-25T08:59:58Z</time>
      </trkpt>
      <trkpt lat="49.00669" lon="1.12017">
        <ele>168.800003</ele>
        <time>2018-02-25T09:00:02Z</time>
      </trkpt>
      <trkpt lat="49.00663" lon="1.1203">
        <ele>168.899994</ele>
        <time>2018-02-25T09:00:05Z</time>
      </trkpt>
      <trkpt lat="49.00659" lon="1.12044">
        <ele>169</ele>
        <time>2018-02-25T09:00:07Z</time>
      </trkpt>
      <trkpt lat="49.00655" lon="1.1206">
        <ele>168.899994</ele>
        <time>2018-02-25T09:00:10Z</time>
      </trkpt>
      <trkpt lat="49.00649" lon="1.12071">
        <ele>168.600006</ele>
        <time>2018-02-25T09:00:13Z</time>
      </trkpt>
      <trkpt lat="49.00642" lon="1.12083">
        <ele>167.899994</ele>
        <time>2018-02-25T09:00:16Z</time>
      </trkpt>
      <trkpt lat="49.00634" lon="1.12091">
        <ele>167.899994</ele>
        <time>2018-02-25T09:00:19Z</time>
      </trkpt>
      <trkpt lat="49.00628" lon="1.12103">
        <ele>167.899994</ele>
        <time>2018-02-25T09:00:23Z</time>
      </trkpt>
      <trkpt lat="49.00622" lon="1.12119">
        <ele>167.800003</ele>
        <time>2018-02-25T09:00:26Z</time>
      </trkpt>
      <trkpt lat="49.00616" lon="1.12132">
        <ele>167.800003</ele>
        <time>2018-02-25T09:00:29Z</time>
      </trkpt>
      <trkpt lat="49.00609" lon="1.12146">
        <ele>167.600006</ele>
        <time>2018-02-25T09:00:32Z</time>
      </trkpt>
      <trkpt lat="49.00602" lon="1.12158">
        <ele>167.5</ele>
        <time>2018-02-25T09:00:35Z</time>
      </trkpt>
      <trkpt lat="49.00596" lon="1.12172">
        <ele>167.600006</ele>
        <time>2018-02-25T09:00:37Z</time>
      </trkpt>
      <trkpt lat="49.00588" lon="1.12179">
        <ele>167.600006</ele>
        <time>2018-02-25T09:00:40Z</time>
      </trkpt>
      <trkpt lat="49.00577" lon="1.12177">
        <ele>167.199997</ele>
        <time>2018-02-25T09:00:43Z</time>
      </trkpt>
      <trkpt lat="49.00568" lon="1.1218">
        <ele>167</ele>
        <time>2018-02-25T09:00:46Z</time>
      </trkpt>
      <trkpt lat="49.00561" lon="1.12193">
        <ele>166.899994</ele>
        <time>2018-02-25T09:00:50Z</time>
      </trkpt>
      <trkpt lat="49.00554" lon="1.1221">
        <ele>166.899994</ele>
        <time>2018-02-25T09:00:54Z</time>
      </trkpt>
      <trkpt lat="49.00552" lon="1.12226">
        <ele>166.600006</ele>
        <time>2018-02-25T09:00:58Z</time>
      </trkpt>
      <trkpt lat="49.00558" lon="1.1224">
        <ele>166.600006</ele>
        <time>2018-02-25T09:01:03Z</time>
      </trkpt>
      <trkpt lat="49.00564" lon="1.1225">
        <ele>166.800003</ele>
        <time>2018-02-25T09:01:06Z</time>
      </trkpt>
      <trkpt lat="49.0057" lon="1.12264">
        <ele>167.199997</ele>
        <time>2018-02-25T09:01:09Z</time>
      </trkpt>
      <trkpt lat="49.00578" lon="1.12278">
        <ele>167.699997</ele>
        <time>2018-02-25T09:01:12Z</time>
      </trkpt>
      <trkpt lat="49.00586" lon="1.12292">
        <ele>168.100006</ele>
        <time>2018-02-25T09:01:15Z</time>
      </trkpt>
      <trkpt lat="49.00593" lon="1.12304">
        <ele>168.300003</ele>
        <time>2018-02-25T09:01:18Z</time>
      </trkpt>
      <trkpt lat="49.00599" lon="1.12319">
        <ele>168.300003</ele>
        <time>2018-02-25T09:01:21Z</time>
      </trkpt>
      <trkpt lat="49.00602" lon="1.12335">
        <ele>168.699997</ele>
        <time>2018-02-25T09:01:24Z</time>
      </trkpt>
      <trkpt lat="49.00606" lon="1.12353">
        <ele>168.899994</ele>
        <time>2018-02-25T09:01:27Z</time>
      </trkpt>
      <trkpt lat="49.00608" lon="1.12367">
        <ele>169.100006</ele>
        <time>2018-02-25T09:01:29Z</time>
      </trkpt>
      <trkpt lat="49.00611" lon="1.12381">
        <ele>169.100006</ele>
        <time>2018-02-25T09:01:31Z</time>
      </trkpt>
      <trkpt lat="49.00614" lon="1.12394">
        <ele>169.5</ele>
        <time>2018-02-25T09:01:34Z</time>
      </trkpt>
      <trkpt lat="49.0061" lon="1.12411">
        <ele>169.899994</ele>
        <time>2018-02-25T09:01:40Z</time>
      </trkpt>
      <trkpt lat="49.00612" lon="1.12428">
        <ele>169.899994</ele>
        <time>2018-02-25T09:01:44Z</time>
      </trkpt>
      <trkpt lat="49.00609" lon="1.12445">
        <ele>170</ele>
        <time>2018-02-25T09:01:47Z</time>
      </trkpt>
      <trkpt lat="49.00607" lon="1.12463">
        <ele>170.199997</ele>
        <time>2018-02-25T09:01:50Z</time>
      </trkpt>
      <trkpt lat="49.00609" lon="1.12478">
        <ele>170.399994</ele>
        <time>2018-02-25T09:01:53Z</time>
      </trkpt>
      <trkpt lat="49.00603" lon="1.12493">
        <ele>170.399994</ele>
        <time>2018-02-25T09:01:58Z</time>
      </trkpt>
      <trkpt lat="49.00605" lon="1.12506">
        <ele>170.199997</ele>
        <time>2018-02-25T09:02:02Z</time>
      </trkpt>
      <trkpt lat="49.0061" lon="1.12519">
        <ele>170.199997</ele>
        <time>2018-02-25T09:02:07Z</time>
      </trkpt>
      <trkpt lat="49.00615" lon="1.12534">
        <ele>170.300003</ele>
        <time>2018-02-25T09:02:11Z</time>
      </trkpt>
      <trkpt lat="49.00615" lon="1.12549">
        <ele>170.600006</ele>
        <time>2018-02-25T09:02:15Z</time>
      </trkpt>
      <trkpt lat="49.00616" lon="1.12567">
        <ele>170.699997</ele>
        <time>2018-02-25T09:02:19Z</time>
      </trkpt>
      <trkpt lat="49.00611" lon="1.12581">
        <ele>170.800003</ele>
        <time>2018-02-25T09:02:23Z</time>
      </trkpt>
      <trkpt lat="49.00603" lon="1.12593">
        <ele>170.899994</ele>
        <time>2018-02-25T09:02:27Z</time>
      </trkpt>
      <trkpt lat="49.00602" lon="1.12611">
        <ele>170.800003</ele>
        <time>2018-02-25T09:02:31Z</time>
      </trkpt>
      <trkpt lat="49.00594" lon="1.12626">
        <ele>170.800003</ele>
        <time>2018-02-25T09:02:35Z</time>
      </trkpt>
      <trkpt lat="49.00586" lon="1.12633">
        <ele>170.699997</ele>
        <time>2018-02-25T09:02:37Z</time>
      </trkpt>
      <trkpt lat="49.00581" lon="1.12645">
        <ele>170.699997</ele>
        <time>2018-02-25T09:02:39Z</time>
      </trkpt>
      <trkpt lat="49.00576" lon="1.12658">
        <ele>170.600006</ele>
        <time>2018-02-25T09:02:41Z</time>
      </trkpt>
      <trkpt lat="49.00571" lon="1.12669">
        <ele>170.300003</ele>
        <time>2018-02-25T09:02:44Z</time>
      </trkpt>
      <trkpt lat="49.00563" lon="1.12685">
        <ele>169.899994</ele>
        <time>2018-02-25T09:02:47Z</time>
      </trkpt>
      <trkpt lat="49.00557" lon="1.12696">
        <ele>169.800003</ele>
        <time>2018-02-25T09:02:49Z</time>
      </trkpt>
      <trkpt lat="49.00549" lon="1.12706">
        <ele>169.800003</ele>
        <time>2018-02-25T09:02:51Z</time>
      </trkpt>
      <trkpt lat="49.00542" lon="1.12721">
        <ele>169.5</ele>
        <time>2018-02-25T09:02:54Z</time>
      </trkpt>
      <trkpt lat="49.00534" lon="1.12732">
        <ele>169.199997</ele>
        <time>2018-02-25T09:02:57Z</time>
      </trkpt>
      <trkpt lat="49.00525" lon="1.12741">
        <ele>169.199997</ele>
        <time>2018-02-25T09:02:59Z</time>
      </trkpt>
      <trkpt lat="49.00522" lon="1.12756">
        <ele>169.5</ele>
        <time>2018-02-25T09:03:02Z</time>
      </trkpt>
      <trkpt lat="49.00515" lon="1.12771">
        <ele>169.600006</ele>
        <time>2018-02-25T09:03:05Z</time>
      </trkpt>
      <trkpt lat="49.00508" lon="1.12782">
        <ele>169.300003</ele>
        <time>2018-02-25T09:03:08Z</time>
      </trkpt>
      <trkpt lat="49.00508" lon="1.128">
        <ele>169.300003</ele>
        <time>2018-02-25T09:03:11Z</time>
      </trkpt>
      <trkpt lat="49.00508" lon="1.12815">
        <ele>169.300003</ele>
        <time>2018-02-25T09:03:14Z</time>
      </trkpt>
      <trkpt lat="49.00516" lon="1.12823">
        <ele>169.199997</ele>
        <time>2018-02-25T09:03:23Z</time>
      </trkpt>
      <trkpt lat="49.00525" lon="1.12819">
        <ele>168.5</ele>
        <time>2018-02-25T09:04:10Z</time>
      </trkpt>
      <trkpt lat="49.00535" lon="1.12813">
        <ele>168.699997</ele>
        <time>2018-02-25T09:04:14Z</time>
      </trkpt>
      <trkpt lat="49.00545" lon="1.12806">
        <ele>168.699997</ele>
        <time>2018-02-25T09:04:17Z</time>
      </trkpt>
      <trkpt lat="49.00553" lon="1.12801">
        <ele>168.699997</ele>
        <time>2018-02-25T09:04:20Z</time>
      </trkpt>
      <trkpt lat="49.00563" lon="1.12813">
        <ele>169.100006</ele>
        <time>2018-02-25T09:04:24Z</time>
      </trkpt>
      <trkpt lat="49.00568" lon="1.12826">
        <ele>169.100006</ele>
        <time>2018-02-25T09:04:27Z</time>
      </trkpt>
      <trkpt lat="49.00572" lon="1.12842">
        <ele>169.199997</ele>
        <time>2018-02-25T09:04:30Z</time>
      </trkpt>
      <trkpt lat="49.00575" lon="1.12855">
        <ele>168.899994</ele>
        <time>2018-02-25T09:04:33Z</time>
      </trkpt>
      <trkpt lat="49.00581" lon="1.1287">
        <ele>168.899994</ele>
        <time>2018-02-25T09:04:37Z</time>
      </trkpt>
      <trkpt lat="49.00588" lon="1.12884">
        <ele>169</ele>
        <time>2018-02-25T09:04:40Z</time>
      </trkpt>
      <trkpt lat="49.00588" lon="1.12902">
        <ele>169.199997</ele>
        <time>2018-02-25T09:04:43Z</time>
      </trkpt>
      <trkpt lat="49.00591" lon="1.12919">
        <ele>169.199997</ele>
        <time>2018-02-25T09:04:46Z</time>
      </trkpt>
      <trkpt lat="49.00596" lon="1.12936">
        <ele>169.199997</ele>
        <time>2018-02-25T09:04:49Z</time>
      </trkpt>
      <trkpt lat="49.00599" lon="1.1295">
        <ele>168.899994</ele>
        <time>2018-02-25T09:04:51Z</time>
      </trkpt>
      <trkpt lat="49.00601" lon="1.12963">
        <ele>168.800003</ele>
        <time>2018-02-25T09:04:53Z</time>
      </trkpt>
      <trkpt lat="49.00604" lon="1.12978">
        <ele>168.899994</ele>
        <time>2018-02-25T09:04:55Z</time>
      </trkpt>
      <trkpt lat="49.00606" lon="1.12992">
        <ele>168.800003</ele>
        <time>2018-02-25T09:04:57Z</time>
      </trkpt>
      <trkpt lat="49.00611" lon="1.13008">
        <ele>168.699997</ele>
        <time>2018-02-25T09:05:00Z</time>
      </trkpt>
      <trkpt lat="49.00615" lon="1.13022">
        <ele>168.600006</ele>
        <time>2018-02-25T09:05:02Z</time>
      </trkpt>
      <trkpt lat="49.00618" lon="1.13035">
        <ele>168.800003</ele>
        <time>2018-02-25T09:05:04Z</time>
      </trkpt>
      <trkpt lat="49.00621" lon="1.13054">
        <ele>168.699997</ele>
        <time>2018-02-25T09:05:07Z</time>
      </trkpt>
      <trkpt lat="49.00626" lon="1.13071">
        <ele>169.199997</ele>
        <time>2018-02-25T09:05:10Z</time>
      </trkpt>
      <trkpt lat="49.00634" lon="1.13081">
        <ele>169.399994</ele>
        <time>2018-02-25T09:05:13Z</time>
      </trkpt>
      <trkpt lat="49.00642" lon="1.1309">
        <ele>169.699997</ele>
        <time>2018-02-25T09:05:16Z</time>
      </trkpt>
      <trkpt lat="49.00651" lon="1.13098">
        <ele>170.399994</ele>
        <time>2018-02-25T09:05:19Z</time>
      </trkpt>
      <trkpt lat="49.00663" lon="1.13107">
        <ele>170.800003</ele>
        <time>2018-02-25T09:05:22Z</time>
      </trkpt>
      <trkpt lat="49.00671" lon="1.13113">
        <ele>170.899994</ele>
        <time>2018-02-25T09:05:24Z</time>
      </trkpt>
      <trkpt lat="49.0068" lon="1.13121">
        <ele>170.899994</ele>
        <time>2018-02-25T09:05:27Z</time>
      </trkpt>
      <trkpt lat="49.00691" lon="1.13129">
        <ele>171.199997</ele>
        <time>2018-02-25T09:05:30Z</time>
      </trkpt>
      <trkpt lat="49.00702" lon="1.13136">
        <ele>171.199997</ele>
        <time>2018-02-25T09:05:33Z</time>
      </trkpt>
      <trkpt lat="49.0071" lon="1.13142">
        <ele>171.300003</ele>
        <time>2018-02-25T09:05:35Z</time>
      </trkpt>
      <trkpt lat="49.00724" lon="1.13151">
        <ele>171.399994</ele>
        <time>2018-02-25T09:05:38Z</time>
      </trkpt>
      <trkpt lat="49.00732" lon="1.13156">
        <ele>171.5</ele>
        <time>2018-02-25T09:05:40Z</time>
      </trkpt>
      <trkpt lat="49.00745" lon="1.13163">
        <ele>171.899994</ele>
        <time>2018-02-25T09:05:43Z</time>
      </trkpt>
      <trkpt lat="49.00754" lon="1.13169">
        <ele>171.899994</ele>
        <time>2018-02-25T09:05:45Z</time>
      </trkpt>
      <trkpt lat="49.00763" lon="1.13175">
        <ele>171.899994</ele>
        <time>2018-02-25T09:05:47Z</time>
      </trkpt>
      <trkpt lat="49.00771" lon="1.13181">
        <ele>171.699997</ele>
        <time>2018-02-25T09:05:49Z</time>
      </trkpt>
      <trkpt lat="49.0078" lon="1.13187">
        <ele>171.699997</ele>
        <time>2018-02-25T09:05:51Z</time>
      </trkpt>
      <trkpt lat="49.00792" lon="1.13194">
        <ele>171.800003</ele>
        <time>2018-02-25T09:05:54Z</time>
      </trkpt>
      <trkpt lat="49.008" lon="1.132">
        <ele>171.899994</ele>
        <time>2018-02-25T09:05:56Z</time>
      </trkpt>
      <trkpt lat="49.00809" lon="1.13205">
        <ele>171.699997</ele>
        <time>2018-02-25T09:05:58Z</time>
      </trkpt>
      <trkpt lat="49.00822" lon="1.13213">
        <ele>171.5</ele>
        <time>2018-02-25T09:06:01Z</time>
      </trkpt>
      <trkpt lat="49.00831" lon="1.13217">
        <ele>171.399994</ele>
        <time>2018-02-25T09:06:03Z</time>
      </trkpt>
      <trkpt lat="49.00837" lon="1.1323">
        <ele>171.5</ele>
        <time>2018-02-25T09:06:06Z</time>
      </trkpt>
      <trkpt lat="49.00835" lon="1.13244">
        <ele>171.199997</ele>
        <time>2018-02-25T09:06:09Z</time>
      </trkpt>
      <trkpt lat="49.00831" lon="1.1326">
        <ele>171.5</ele>
        <time>2018-02-25T09:06:12Z</time>
      </trkpt>
      <trkpt lat="49.00828" lon="1.13277">
        <ele>171.800003</ele>
        <time>2018-02-25T09:06:15Z</time>
      </trkpt>
      <trkpt lat="49.00825" lon="1.13292">
        <ele>171.899994</ele>
        <time>2018-02-25T09:06:18Z</time>
      </trkpt>
      <trkpt lat="49.0082" lon="1.13306">
        <ele>171.800003</ele>
        <time>2018-02-25T09:06:20Z</time>
      </trkpt>
      <trkpt lat="49.00816" lon="1.13321">
        <ele>171.800003</ele>
        <time>2018-02-25T09:06:22Z</time>
      </trkpt>
      <trkpt lat="49.00812" lon="1.13335">
        <ele>171.899994</ele>
        <time>2018-02-25T09:06:24Z</time>
      </trkpt>
      <trkpt lat="49.00808" lon="1.13349">
        <ele>171.699997</ele>
        <time>2018-02-25T09:06:26Z</time>
      </trkpt>
      <trkpt lat="49.00803" lon="1.13368">
        <ele>171.5</ele>
        <time>2018-02-25T09:06:29Z</time>
      </trkpt>
      <trkpt lat="49.008" lon="1.13384">
        <ele>171.5</ele>
        <time>2018-02-25T09:06:32Z</time>
      </trkpt>
      <trkpt lat="49.00797" lon="1.13402">
        <ele>171.300003</ele>
        <time>2018-02-25T09:06:35Z</time>
      </trkpt>
      <trkpt lat="49.00794" lon="1.13415">
        <ele>171.300003</ele>
        <time>2018-02-25T09:06:37Z</time>
      </trkpt>
      <trkpt lat="49.00789" lon="1.13429">
        <ele>171.199997</ele>
        <time>2018-02-25T09:06:39Z</time>
      </trkpt>
      <trkpt lat="49.00783" lon="1.1345">
        <ele>170.800003</ele>
        <time>2018-02-25T09:06:42Z</time>
      </trkpt>
      <trkpt lat="49.00779" lon="1.13465">
        <ele>170.600006</ele>
        <time>2018-02-25T09:06:44Z</time>
      </trkpt>
      <trkpt lat="49.00774" lon="1.13479">
        <ele>170.600006</ele>
        <time>2018-02-25T09:06:46Z</time>
      </trkpt>
      <trkpt lat="49.00763" lon="1.1349">
        <ele>170.399994</ele>
        <time>2018-02-25T09:06:49Z</time>
      </trkpt>
      <trkpt lat="49.00751" lon="1.13495">
        <ele>170.300003</ele>
        <time>2018-02-25T09:06:52Z</time>
      </trkpt>
      <trkpt lat="49.00744" lon="1.13503">
        <ele>170.199997</ele>
        <time>2018-02-25T09:06:54Z</time>
      </trkpt>
      <trkpt lat="49.00735" lon="1.13494">
        <ele>169.300003</ele>
        <time>2018-02-25T09:06:59Z</time>
      </trkpt>
      <trkpt lat="49.00731" lon="1.13479">
        <ele>169.199997</ele>
        <time>2018-02-25T09:07:02Z</time>
      </trkpt>
      <trkpt lat="49.00726" lon="1.13463">
        <ele>169.5</ele>
        <time>2018-02-25T09:07:05Z</time>
      </trkpt>
      <trkpt lat="49.00722" lon="1.13445">
        <ele>169.5</ele>
        <time>2018-02-25T09:07:08Z</time>
      </trkpt>
      <trkpt lat="49.00717" lon="1.13426">
        <ele>169.899994</ele>
        <time>2018-02-25T09:07:11Z</time>
      </trkpt>
      <trkpt lat="49.00712" lon="1.13408">
        <ele>170.100006</ele>
        <time>2018-02-25T09:07:14Z</time>
      </trkpt>
      <trkpt lat="49.00707" lon="1.1339">
        <ele>170.5</ele>
        <time>2018-02-25T09:07:17Z</time>
      </trkpt>
      <trkpt lat="49.00702" lon="1.13373">
        <ele>170.600006</ele>
        <time>2018-02-25T09:07:20Z</time>
      </trkpt>
      <trkpt lat="49.00691" lon="1.1337">
        <ele>170.600006</ele>
        <time>2018-02-25T09:07:25Z</time>
      </trkpt>
      <trkpt lat="49.00681" lon="1.13374">
        <ele>170.800003</ele>
        <time>2018-02-25T09:07:28Z</time>
      </trkpt>
      <trkpt lat="49.00671" lon="1.13377">
        <ele>170.699997</ele>
        <time>2018-02-25T09:07:30Z</time>
      </trkpt>
      <trkpt lat="49.00663" lon="1.13381">
        <ele>170.600006</ele>
        <time>2018-02-25T09:07:32Z</time>
      </trkpt>
      <trkpt lat="49.00653" lon="1.13381">
        <ele>170.399994</ele>
        <time>2018-02-25T09:07:34Z</time>
      </trkpt>
      <trkpt lat="49.00643" lon="1.1338">
        <ele>169.699997</ele>
        <time>2018-02-25T09:07:36Z</time>
      </trkpt>
      <trkpt lat="49.00633" lon="1.13377">
        <ele>169.699997</ele>
        <time>2018-02-25T09:07:38Z</time>
      </trkpt>
      <trkpt lat="49.00621" lon="1.13371">
        <ele>169.199997</ele>
        <time>2018-02-25T09:07:41Z</time>
      </trkpt>
      <trkpt lat="49.00612" lon="1.13363">
        <ele>168.100006</ele>
        <time>2018-02-25T09:07:45Z</time>
      </trkpt>
      <trkpt lat="49.00609" lon="1.13348">
        <ele>167.800003</ele>
        <time>2018-02-25T09:07:48Z</time>
      </trkpt>
      <trkpt lat="49.00607" lon="1.1333">
        <ele>167.600006</ele>
        <time>2018-02-25T09:07:51Z</time>
      </trkpt>
      <trkpt lat="49.00604" lon="1.13311">
        <ele>167.899994</ele>
        <time>2018-02-25T09:07:54Z</time>
      </trkpt>
      <trkpt lat="49.00596" lon="1.13297">
        <ele>167.699997</ele>
        <time>2018-02-25T09:07:57Z</time>
      </trkpt>
      <trkpt lat="49.00593" lon="1.13282">
        <ele>168.199997</ele>
        <time>2018-02-25T09:08:00Z</time>
      </trkpt>
      <trkpt lat="49.00597" lon="1.13268">
        <ele>168.300003</ele>
        <time>2018-02-25T09:08:04Z</time>
      </trkpt>
      <trkpt lat="49.00606" lon="1.13258">
        <ele>168.300003</ele>
        <time>2018-02-25T09:08:07Z</time>
      </trkpt>
      <trkpt lat="49.0061" lon="1.13242">
        <ele>168</ele>
        <time>2018-02-25T09:08:10Z</time>
      </trkpt>
      <trkpt lat="49.00613" lon="1.13224">
        <ele>168.100006</ele>
        <time>2018-02-25T09:08:13Z</time>
      </trkpt>
      <trkpt lat="49.00609" lon="1.13208">
        <ele>168</ele>
        <time>2018-02-25T09:08:16Z</time>
      </trkpt>
      <trkpt lat="49.00608" lon="1.13194">
        <ele>168.399994</ele>
        <time>2018-02-25T09:08:20Z</time>
      </trkpt>
      <trkpt lat="49.00614" lon="1.13181">
        <ele>168.600006</ele>
        <time>2018-02-25T09:08:24Z</time>
      </trkpt>
      <trkpt lat="49.00618" lon="1.13168">
        <ele>169.199997</ele>
        <time>2018-02-25T09:08:28Z</time>
      </trkpt>
      <trkpt lat="49.00608" lon="1.13163">
        <ele>169.5</ele>
        <time>2018-02-25T09:08:34Z</time>
      </trkpt>
      <trkpt lat="49.00598" lon="1.13162">
        <ele>169.699997</ele>
        <time>2018-02-25T09:08:37Z</time>
      </trkpt>
      <trkpt lat="49.00587" lon="1.13162">
        <ele>169.399994</ele>
        <time>2018-02-25T09:08:40Z</time>
      </trkpt>
      <trkpt lat="49.00578" lon="1.13166">
        <ele>168.899994</ele>
        <time>2018-02-25T09:08:43Z</time>
      </trkpt>
      <trkpt lat="49.00567" lon="1.13165">
        <ele>168.699997</ele>
        <time>2018-02-25T09:08:46Z</time>
      </trkpt>
      <trkpt lat="49.00557" lon="1.13164">
        <ele>168.800003</ele>
        <time>2018-02-25T09:08:49Z</time>
      </trkpt>
      <trkpt lat="49.00547" lon="1.13163">
        <ele>169.100006</ele>
        <time>2018-02-25T09:08:52Z</time>
      </trkpt>
      <trkpt lat="49.00535" lon="1.13164">
        <ele>169.399994</ele>
        <time>2018-02-25T09:08:55Z</time>
      </trkpt>
      <trkpt lat="49.00522" lon="1.13165">
        <ele>169.699997</ele>
        <time>2018-02-25T09:08:58Z</time>
      </trkpt>
      <trkpt lat="49.00509" lon="1.13168">
        <ele>170</ele>
        <time>2018-02-25T09:09:01Z</time>
      </trkpt>
      <trkpt lat="49.00497" lon="1.13169">
        <ele>170.399994</ele>
        <time>2018-02-25T09:09:04Z</time>
      </trkpt>
      <trkpt lat="49.00484" lon="1.13168">
        <ele>170.399994</ele>
        <time>2018-02-25T09:09:07Z</time>
      </trkpt>
      <trkpt lat="49.00471" lon="1.13169">
        <ele>170.5</ele>
        <time>2018-02-25T09:09:10Z</time>
      </trkpt>
      <trkpt lat="49.00459" lon="1.1317">
        <ele>170.699997</ele>
        <time>2018-02-25T09:09:13Z</time>
      </trkpt>
      <trkpt lat="49.00446" lon="1.13171">
        <ele>170.899994</ele>
        <time>2018-02-25T09:09:16Z</time>
      </trkpt>
      <trkpt lat="49.00434" lon="1.13173">
        <ele>171.399994</ele>
        <time>2018-02-25T09:09:19Z</time>
      </trkpt>
      <trkpt lat="49.00425" lon="1.13173">
        <ele>171.699997</ele>
        <time>2018-02-25T09:09:21Z</time>
      </trkpt>
      <trkpt lat="49.00412" lon="1.13174">
        <ele>172.100006</ele>
        <time>2018-02-25T09:09:24Z</time>
      </trkpt>
      <trkpt lat="49.00398" lon="1.13176">
        <ele>172.300003</ele>
        <time>2018-02-25T09:09:27Z</time>
      </trkpt>
      <trkpt lat="49.00386" lon="1.13175">
        <ele>172.199997</ele>
        <time>2018-02-25T09:09:30Z</time>
      </trkpt>
      <trkpt lat="49.00373" lon="1.13177">
        <ele>172.199997</ele>
        <time>2018-02-25T09:09:33Z</time>
      </trkpt>
      <trkpt lat="49.00364" lon="1.13177">
        <ele>172.699997</ele>
        <time>2018-02-25T09:09:36Z</time>
      </trkpt>
      <trkpt lat="49.00354" lon="1.13184">
        <ele>172.800003</ele>
        <time>2018-02-25T09:09:40Z</time>
      </trkpt>
      <trkpt lat="49.00343" lon="1.13183">
        <ele>173.100006</ele>
        <time>2018-02-25T09:09:43Z</time>
      </trkpt>
      <trkpt lat="49.00337" lon="1.1317">
        <ele>173.300003</ele>
        <time>2018-02-25T09:09:47Z</time>
      </trkpt>
      <trkpt lat="49.00334" lon="1.13157">
        <ele>173.5</ele>
        <time>2018-02-25T09:09:50Z</time>
      </trkpt>
      <trkpt lat="49.0033" lon="1.13144">
        <ele>173.699997</ele>
        <time>2018-02-25T09:09:53Z</time>
      </trkpt>
      <trkpt lat="49.00327" lon="1.13131">
        <ele>174</ele>
        <time>2018-02-25T09:09:56Z</time>
      </trkpt>
      <trkpt lat="49.00323" lon="1.13115">
        <ele>174</ele>
        <time>2018-02-25T09:09:59Z</time>
      </trkpt>
      <trkpt lat="49.0032" lon="1.13097">
        <ele>174</ele>
        <time>2018-02-25T09:10:02Z</time>
      </trkpt>
      <trkpt lat="49.00317" lon="1.13081">
        <ele>174.300003</ele>
        <time>2018-02-25T09:10:05Z</time>
      </trkpt>
      <trkpt lat="49.00312" lon="1.13066">
        <ele>174.199997</ele>
        <time>2018-02-25T09:10:08Z</time>
      </trkpt>
      <trkpt lat="49.00308" lon="1.13054">
        <ele>174.300003</ele>
        <time>2018-02-25T09:10:11Z</time>
      </trkpt>
      <trkpt lat="49.00311" lon="1.1304">
        <ele>174.399994</ele>
        <time>2018-02-25T09:10:15Z</time>
      </trkpt>
      <trkpt lat="49.00321" lon="1.13029">
        <ele>174</ele>
        <time>2018-02-25T09:10:19Z</time>
      </trkpt>
      <trkpt lat="49.00328" lon="1.13021">
        <ele>173.600006</ele>
        <time>2018-02-25T09:10:22Z</time>
      </trkpt>
      <trkpt lat="49.00336" lon="1.13013">
        <ele>173.300003</ele>
        <time>2018-02-25T09:10:25Z</time>
      </trkpt>
      <trkpt lat="49.00345" lon="1.13003">
        <ele>172.800003</ele>
        <time>2018-02-25T09:10:28Z</time>
      </trkpt>
      <trkpt lat="49.00353" lon="1.12993">
        <ele>172.399994</ele>
        <time>2018-02-25T09:10:31Z</time>
      </trkpt>
      <trkpt lat="49.00363" lon="1.12982">
        <ele>171.800003</ele>
        <time>2018-02-25T09:10:34Z</time>
      </trkpt>
      <trkpt lat="49.00368" lon="1.1297">
        <ele>171.600006</ele>
        <time>2018-02-25T09:10:37Z</time>
      </trkpt>
      <trkpt lat="49.0037" lon="1.12957">
        <ele>170.899994</ele>
        <time>2018-02-25T09:10:40Z</time>
      </trkpt>
      <trkpt lat="49.00374" lon="1.12943">
        <ele>170.600006</ele>
        <time>2018-02-25T09:10:43Z</time>
      </trkpt>
      <trkpt lat="49.00377" lon="1.1293">
        <ele>170.5</ele>
        <time>2018-02-25T09:10:46Z</time>
      </trkpt>
      <trkpt lat="49.00379" lon="1.1291">
        <ele>170.300003</ele>
        <time>2018-02-25T09:10:49Z</time>
      </trkpt>
      <trkpt lat="49.00383" lon="1.12892">
        <ele>170.399994</ele>
        <time>2018-02-25T09:10:52Z</time>
      </trkpt>
      <trkpt lat="49.00386" lon="1.12876">
        <ele>170.600006</ele>
        <time>2018-02-25T09:10:55Z</time>
      </trkpt>
      <trkpt lat="49.0039" lon="1.12859">
        <ele>170.800003</ele>
        <time>2018-02-25T09:10:58Z</time>
      </trkpt>
      <trkpt lat="49.00395" lon="1.12844">
        <ele>170.899994</ele>
        <time>2018-02-25T09:11:01Z</time>
      </trkpt>
      <trkpt lat="49.00396" lon="1.12831">
        <ele>170.800003</ele>
        <time>2018-02-25T09:11:03Z</time>
      </trkpt>
      <trkpt lat="49.00399" lon="1.12812">
        <ele>170.5</ele>
        <time>2018-02-25T09:11:06Z</time>
      </trkpt>
      <trkpt lat="49.00402" lon="1.12792">
        <ele>170.5</ele>
        <time>2018-02-25T09:11:09Z</time>
      </trkpt>
      <trkpt lat="49.00403" lon="1.12778">
        <ele>170.399994</ele>
        <time>2018-02-25T09:11:11Z</time>
      </trkpt>
      <trkpt lat="49.00407" lon="1.12758">
        <ele>170</ele>
        <time>2018-02-25T09:11:14Z</time>
      </trkpt>
      <trkpt lat="49.00409" lon="1.12744">
        <ele>170.300003</ele>
        <time>2018-02-25T09:11:16Z</time>
      </trkpt>
      <trkpt lat="49.00411" lon="1.1273">
        <ele>170.199997</ele>
        <time>2018-02-25T09:11:18Z</time>
      </trkpt>
      <trkpt lat="49.00411" lon="1.12714">
        <ele>170</ele>
        <time>2018-02-25T09:11:20Z</time>
      </trkpt>
      <trkpt lat="49.00413" lon="1.127">
        <ele>170</ele>
        <time>2018-02-25T09:11:22Z</time>
      </trkpt>
      <trkpt lat="49.00414" lon="1.12684">
        <ele>170.300003</ele>
        <time>2018-02-25T09:11:24Z</time>
      </trkpt>
      <trkpt lat="49.00416" lon="1.12669">
        <ele>170.300003</ele>
        <time>2018-02-25T09:11:26Z</time>
      </trkpt>
      <trkpt lat="49.00418" lon="1.12655">
        <ele>170.300003</ele>
        <time>2018-02-25T09:11:28Z</time>
      </trkpt>
      <trkpt lat="49.00419" lon="1.12639">
        <ele>170.300003</ele>
        <time>2018-02-25T09:11:30Z</time>
      </trkpt>
      <trkpt lat="49.0042" lon="1.12623">
        <ele>170.399994</ele>
        <time>2018-02-25T09:11:32Z</time>
      </trkpt>
      <trkpt lat="49.0042" lon="1.12609">
        <ele>170.600006</ele>
        <time>2018-02-25T09:11:34Z</time>
      </trkpt>
      <trkpt lat="49.00423" lon="1.12591">
        <ele>171</ele>
        <time>2018-02-25T09:11:37Z</time>
      </trkpt>
      <trkpt lat="49.00425" lon="1.12577">
        <ele>171.399994</ele>
        <time>2018-02-25T09:11:39Z</time>
      </trkpt>
      <trkpt lat="49.00427" lon="1.12563">
        <ele>171.699997</ele>
        <time>2018-02-25T09:11:41Z</time>
      </trkpt>
      <trkpt lat="49.00428" lon="1.12547">
        <ele>171.800003</ele>
        <time>2018-02-25T09:11:43Z</time>
      </trkpt>
      <trkpt lat="49.00429" lon="1.12532">
        <ele>171.600006</ele>
        <time>2018-02-25T09:11:45Z</time>
      </trkpt>
      <trkpt lat="49.00431" lon="1.12518">
        <ele>171.699997</ele>
        <time>2018-02-25T09:11:47Z</time>
      </trkpt>
      <trkpt lat="49.00432" lon="1.12502">
        <ele>171.800003</ele>
        <time>2018-02-25T09:11:49Z</time>
      </trkpt>
      <trkpt lat="49.00433" lon="1.12487">
        <ele>171.899994</ele>
        <time>2018-02-25T09:11:51Z</time>
      </trkpt>
      <trkpt lat="49.00435" lon="1.12472">
        <ele>172</ele>
        <time>2018-02-25T09:11:53Z</time>
      </trkpt>
      <trkpt lat="49.00437" lon="1.12457">
        <ele>172.100006</ele>
        <time>2018-02-25T09:11:55Z</time>
      </trkpt>
      <trkpt lat="49.00439" lon="1.1244">
        <ele>172.100006</ele>
        <time>2018-02-25T09:11:57Z</time>
      </trkpt>
      <trkpt lat="49.0044" lon="1.12422">
        <ele>171.899994</ele>
        <time>2018-02-25T09:11:59Z</time>
      </trkpt>
      <trkpt lat="49.00442" lon="1.12403">
        <ele>171.5</ele>
        <time>2018-02-25T09:12:01Z</time>
      </trkpt>
      <trkpt lat="49.00443" lon="1.12385">
        <ele>171.399994</ele>
        <time>2018-02-25T09:12:03Z</time>
      </trkpt>
      <trkpt lat="49.00445" lon="1.12368">
        <ele>170.899994</ele>
        <time>2018-02-25T09:12:05Z</time>
      </trkpt>
      <trkpt lat="49.00447" lon="1.12351">
        <ele>170.699997</ele>
        <time>2018-02-25T09:12:07Z</time>
      </trkpt>
      <trkpt lat="49.00449" lon="1.12333">
        <ele>170.5</ele>
        <time>2018-02-25T09:12:09Z</time>
      </trkpt>
      <trkpt lat="49.00452" lon="1.12311">
        <ele>170.300003</ele>
        <time>2018-02-25T09:12:11Z</time>
      </trkpt>
      <trkpt lat="49.00454" lon="1.12288">
        <ele>169.600006</ele>
        <time>2018-02-25T09:12:13Z</time>
      </trkpt>
      <trkpt lat="49.00457" lon="1.12262">
        <ele>168.5</ele>
        <time>2018-02-25T09:12:15Z</time>
      </trkpt>
      <trkpt lat="49.00459" lon="1.12237">
        <ele>167.5</ele>
        <time>2018-02-25T09:12:17Z</time>
      </trkpt>
      <trkpt lat="49.00464" lon="1.12219">
        <ele>167.199997</ele>
        <time>2018-02-25T09:12:19Z</time>
      </trkpt>
      <trkpt lat="49.00467" lon="1.12201">
        <ele>167.199997</ele>
        <time>2018-02-25T09:12:21Z</time>
      </trkpt>
      <trkpt lat="49.00469" lon="1.12184">
        <ele>167.5</ele>
        <time>2018-02-25T09:12:23Z</time>
      </trkpt>
      <trkpt lat="49.00472" lon="1.12169">
        <ele>167.600006</ele>
        <time>2018-02-25T09:12:25Z</time>
      </trkpt>
      <trkpt lat="49.00472" lon="1.12153">
        <ele>167.699997</ele>
        <time>2018-02-25T09:12:27Z</time>
      </trkpt>
      <trkpt lat="49.00474" lon="1.12136">
        <ele>167.899994</ele>
        <time>2018-02-25T09:12:29Z</time>
      </trkpt>
      <trkpt lat="49.00474" lon="1.12119">
        <ele>168</ele>
        <time>2018-02-25T09:12:31Z</time>
      </trkpt>
      <trkpt lat="49.00475" lon="1.12102">
        <ele>168.100006</ele>
        <time>2018-02-25T09:12:33Z</time>
      </trkpt>
      <trkpt lat="49.00476" lon="1.12088">
        <ele>168.399994</ele>
        <time>2018-02-25T09:12:35Z</time>
      </trkpt>
      <trkpt lat="49.00477" lon="1.12073">
        <ele>168.399994</ele>
        <time>2018-02-25T09:12:37Z</time>
      </trkpt>
      <trkpt lat="49.00478" lon="1.12058">
        <ele>168.800003</ele>
        <time>2018-02-25T09:12:39Z</time>
      </trkpt>
      <trkpt lat="49.00482" lon="1.12041">
        <ele>168.899994</ele>
        <time>2018-02-25T09:12:42Z</time>
      </trkpt>
      <trkpt lat="49.00483" lon="1.12027">
        <ele>168.899994</ele>
        <time>2018-02-25T09:12:44Z</time>
      </trkpt>
      <trkpt lat="49.00475" lon="1.12018">
        <ele>168.300003</ele>
        <time>2018-02-25T09:12:49Z</time>
      </trkpt>
      <trkpt lat="49.00467" lon="1.1203">
        <ele>168.100006</ele>
        <time>2018-02-25T09:12:53Z</time>
      </trkpt>
      <trkpt lat="49.00458" lon="1.12032">
        <ele>168.199997</ele>
        <time>2018-02-25T09:12:56Z</time>
      </trkpt>
      <trkpt lat="49.00445" lon="1.12038">
        <ele>168.699997</ele>
        <time>2018-02-25T09:12:59Z</time>
      </trkpt>
      <trkpt lat="49.00434" lon="1.12047">
        <ele>168.699997</ele>
        <time>2018-02-25T09:13:02Z</time>
      </trkpt>
      <trkpt lat="49.00425" lon="1.12051">
        <ele>168.899994</ele>
        <time>2018-02-25T09:13:04Z</time>
      </trkpt>
      <trkpt lat="49.00411" lon="1.12056">
        <ele>168</ele>
        <time>2018-02-25T09:13:07Z</time>
      </trkpt>
      <trkpt lat="49.00401" lon="1.12057">
        <ele>167.399994</ele>
        <time>2018-02-25T09:13:09Z</time>
      </trkpt>
      <trkpt lat="49.00391" lon="1.1206">
        <ele>167</ele>
        <time>2018-02-25T09:13:11Z</time>
      </trkpt>
      <trkpt lat="49.0038" lon="1.12068">
        <ele>166</ele>
        <time>2018-02-25T09:13:14Z</time>
      </trkpt>
      <trkpt lat="49.00369" lon="1.12063">
        <ele>164.800003</ele>
        <time>2018-02-25T09:13:17Z</time>
      </trkpt>
      <trkpt lat="49.00365" lon="1.12047">
        <ele>163.699997</ele>
        <time>2018-02-25T09:13:20Z</time>
      </trkpt>
      <trkpt lat="49.00356" lon="1.12032">
        <ele>162.399994</ele>
        <time>2018-02-25T09:13:23Z</time>
      </trkpt>
      <trkpt lat="49.00344" lon="1.12034">
        <ele>160.800003</ele>
        <time>2018-02-25T09:13:27Z</time>
      </trkpt>
      <trkpt lat="49.00342" lon="1.12053">
        <ele>159.699997</ele>
        <time>2018-02-25T09:13:33Z</time>
      </trkpt>
      <trkpt lat="49.0034" lon="1.12068">
        <ele>159.199997</ele>
        <time>2018-02-25T09:13:35Z</time>
      </trkpt>
      <trkpt lat="49.00336" lon="1.12083">
        <ele>158.5</ele>
        <time>2018-02-25T09:13:38Z</time>
      </trkpt>
      <trkpt lat="49.00326" lon="1.12085">
        <ele>159</ele>
        <time>2018-02-25T09:13:42Z</time>
      </trkpt>
      <trkpt lat="49.00316" lon="1.12088">
        <ele>159</ele>
        <time>2018-02-25T09:13:45Z</time>
      </trkpt>
      <trkpt lat="49.00305" lon="1.1209">
        <ele>157.899994</ele>
        <time>2018-02-25T09:13:48Z</time>
      </trkpt>
      <trkpt lat="49.003" lon="1.12104">
        <ele>157.800003</ele>
        <time>2018-02-25T09:13:54Z</time>
      </trkpt>
      <trkpt lat="49.00296" lon="1.12119">
        <ele>156.899994</ele>
        <time>2018-02-25T09:13:57Z</time>
      </trkpt>
      <trkpt lat="49.00289" lon="1.1213">
        <ele>155.800003</ele>
        <time>2018-02-25T09:14:01Z</time>
      </trkpt>
      <trkpt lat="49.00279" lon="1.12137">
        <ele>153.899994</ele>
        <time>2018-02-25T09:14:05Z</time>
      </trkpt>
      <trkpt lat="49.00268" lon="1.12141">
        <ele>151.899994</ele>
        <time>2018-02-25T09:14:09Z</time>
      </trkpt>
      <trkpt lat="49.00259" lon="1.12138">
        <ele>149.600006</ele>
        <time>2018-02-25T09:14:13Z</time>
      </trkpt>
      <trkpt lat="49.00253" lon="1.12127">
        <ele>147.100006</ele>
        <time>2018-02-25T09:14:17Z</time>
      </trkpt>
      <trkpt lat="49.00245" lon="1.12118">
        <ele>145.199997</ele>
        <time>2018-02-25T09:14:20Z</time>
      </trkpt>
      <trkpt lat="49.0024" lon="1.12132">
        <ele>143.199997</ele>
        <time>2018-02-25T09:14:27Z</time>
      </trkpt>
      <trkpt lat="49.00245" lon="1.12143">
        <ele>143</ele>
        <time>2018-02-25T09:14:31Z</time>
      </trkpt>
      <trkpt lat="49.00253" lon="1.12156">
        <ele>143.800003</ele>
        <time>2018-02-25T09:14:36Z</time>
      </trkpt>
      <trkpt lat="49.00262" lon="1.12161">
        <ele>144.699997</ele>
        <time>2018-02-25T09:14:40Z</time>
      </trkpt>
      <trkpt lat="49.00271" lon="1.12169">
        <ele>145.800003</ele>
        <time>2018-02-25T09:14:45Z</time>
      </trkpt>
      <trkpt lat="49.00281" lon="1.12175">
        <ele>146.800003</ele>
        <time>2018-02-25T09:14:50Z</time>
      </trkpt>
      <trkpt lat="49.00291" lon="1.12181">
        <ele>148</ele>
        <time>2018-02-25T09:14:55Z</time>
      </trkpt>
      <trkpt lat="49.003" lon="1.12188">
        <ele>149.100006</ele>
        <time>2018-02-25T09:14:59Z</time>
      </trkpt>
      <trkpt lat="49.00308" lon="1.12195">
        <ele>150.199997</ele>
        <time>2018-02-25T09:15:03Z</time>
      </trkpt>
      <trkpt lat="49.00318" lon="1.12202">
        <ele>151.5</ele>
        <time>2018-02-25T09:15:08Z</time>
      </trkpt>
      <trkpt lat="49.00328" lon="1.12209">
        <ele>152.699997</ele>
        <time>2018-02-25T09:15:12Z</time>
      </trkpt>
      <trkpt lat="49.00337" lon="1.12214">
        <ele>153.600006</ele>
        <time>2018-02-25T09:15:16Z</time>
      </trkpt>
      <trkpt lat="49.00339" lon="1.12229">
        <ele>155.399994</ele>
        <time>2018-02-25T09:15:23Z</time>
      </trkpt>
      <trkpt lat="49.00331" lon="1.12241">
        <ele>157.300003</ele>
        <time>2018-02-25T09:15:28Z</time>
      </trkpt>
      <trkpt lat="49.00322" lon="1.12249">
        <ele>159</ele>
        <time>2018-02-25T09:15:33Z</time>
      </trkpt>
      <trkpt lat="49.0031" lon="1.12253">
        <ele>160</ele>
        <time>2018-02-25T09:15:37Z</time>
      </trkpt>
      <trkpt lat="49.00299" lon="1.12255">
        <ele>160.399994</ele>
        <time>2018-02-25T09:15:40Z</time>
      </trkpt>
      <trkpt lat="49.00289" lon="1.12254">
        <ele>160.699997</ele>
        <time>2018-02-25T09:15:43Z</time>
      </trkpt>
      <trkpt lat="49.00279" lon="1.12253">
        <ele>160.800003</ele>
        <time>2018-02-25T09:15:46Z</time>
      </trkpt>
      <trkpt lat="49.00269" lon="1.12251">
        <ele>161</ele>
        <time>2018-02-25T09:15:49Z</time>
      </trkpt>
      <trkpt lat="49.00258" lon="1.12248">
        <ele>161.300003</ele>
        <time>2018-02-25T09:15:52Z</time>
      </trkpt>
      <trkpt lat="49.00249" lon="1.1224">
        <ele>161.300003</ele>
        <time>2018-02-25T09:15:55Z</time>
      </trkpt>
      <trkpt lat="49.00239" lon="1.12228">
        <ele>161.100006</ele>
        <time>2018-02-25T09:15:58Z</time>
      </trkpt>
      <trkpt lat="49.00228" lon="1.12221">
        <ele>160.600006</ele>
        <time>2018-02-25T09:16:01Z</time>
      </trkpt>
      <trkpt lat="49.00217" lon="1.12226">
        <ele>160.199997</ele>
        <time>2018-02-25T09:16:04Z</time>
      </trkpt>
      <trkpt lat="49.0021" lon="1.12235">
        <ele>160.100006</ele>
        <time>2018-02-25T09:16:07Z</time>
      </trkpt>
      <trkpt lat="49.00205" lon="1.12247">
        <ele>160.600006</ele>
        <time>2018-02-25T09:16:10Z</time>
      </trkpt>
      <trkpt lat="49.00198" lon="1.12261">
        <ele>161.399994</ele>
        <time>2018-02-25T09:16:14Z</time>
      </trkpt>
      <trkpt lat="49.0019" lon="1.12273">
        <ele>162.300003</ele>
        <time>2018-02-25T09:16:18Z</time>
      </trkpt>
      <trkpt lat="49.00184" lon="1.12287">
        <ele>162.899994</ele>
        <time>2018-02-25T09:16:22Z</time>
      </trkpt>
      <trkpt lat="49.00179" lon="1.12299">
        <ele>163.300003</ele>
        <time>2018-02-25T09:16:25Z</time>
      </trkpt>
      <trkpt lat="49.0017" lon="1.12311">
        <ele>163.800003</ele>
        <time>2018-02-25T09:16:29Z</time>
      </trkpt>
      <trkpt lat="49.00163" lon="1.12323">
        <ele>163.800003</ele>
        <time>2018-02-25T09:16:32Z</time>
      </trkpt>
      <trkpt lat="49.00164" lon="1.12339">
        <ele>163.899994</ele>
        <time>2018-02-25T09:16:35Z</time>
      </trkpt>
      <trkpt lat="49.00164" lon="1.12356">
        <ele>164.300003</ele>
        <time>2018-02-25T09:16:38Z</time>
      </trkpt>
      <trkpt lat="49.00163" lon="1.12374">
        <ele>164.899994</ele>
        <time>2018-02-25T09:16:41Z</time>
      </trkpt>
      <trkpt lat="49.00164" lon="1.1239">
        <ele>165.699997</ele>
        <time>2018-02-25T09:16:44Z</time>
      </trkpt>
      <trkpt lat="49.00164" lon="1.12405">
        <ele>166.399994</ele>
        <time>2018-02-25T09:16:47Z</time>
      </trkpt>
      <trkpt lat="49.00164" lon="1.12421">
        <ele>167.199997</ele>
        <time>2018-02-25T09:16:50Z</time>
      </trkpt>
      <trkpt lat="49.00164" lon="1.12436">
        <ele>167.800003</ele>
        <time>2018-02-25T09:16:53Z</time>
      </trkpt>
      <trkpt lat="49.00164" lon="1.12452">
        <ele>168.300003</ele>
        <time>2018-02-25T09:16:56Z</time>
      </trkpt>
      <trkpt lat="49.00166" lon="1.12466">
        <ele>168.5</ele>
        <time>2018-02-25T09:16:59Z</time>
      </trkpt>
      <trkpt lat="49.00167" lon="1.12485">
        <ele>168.899994</ele>
        <time>2018-02-25T09:17:02Z</time>
      </trkpt>
      <trkpt lat="49.0017" lon="1.125">
        <ele>169.399994</ele>
        <time>2018-02-25T09:17:05Z</time>
      </trkpt>
      <trkpt lat="49.00174" lon="1.12516">
        <ele>169.600006</ele>
        <time>2018-02-25T09:17:08Z</time>
      </trkpt>
      <trkpt lat="49.00182" lon="1.12529">
        <ele>169.899994</ele>
        <time>2018-02-25T09:17:11Z</time>
      </trkpt>
      <trkpt lat="49.0019" lon="1.12543">
        <ele>170.199997</ele>
        <time>2018-02-25T09:17:14Z</time>
      </trkpt>
      <trkpt lat="49.00198" lon="1.12555">
        <ele>170.5</ele>
        <time>2018-02-25T09:17:17Z</time>
      </trkpt>
      <trkpt lat="49.00207" lon="1.12564">
        <ele>170.899994</ele>
        <time>2018-02-25T09:17:20Z</time>
      </trkpt>
      <trkpt lat="49.00213" lon="1.12576">
        <ele>171.300003</ele>
        <time>2018-02-25T09:17:23Z</time>
      </trkpt>
      <trkpt lat="49.00223" lon="1.12585">
        <ele>171.600006</ele>
        <time>2018-02-25T09:17:26Z</time>
      </trkpt>
      <trkpt lat="49.00231" lon="1.12594">
        <ele>171.899994</ele>
        <time>2018-02-25T09:17:29Z</time>
      </trkpt>
      <trkpt lat="49.00238" lon="1.12606">
        <ele>172.199997</ele>
        <time>2018-02-25T09:17:32Z</time>
      </trkpt>
      <trkpt lat="49.00242" lon="1.12622">
        <ele>172.300003</ele>
        <time>2018-02-25T09:17:35Z</time>
      </trkpt>
      <trkpt lat="49.00249" lon="1.12636">
        <ele>172.399994</ele>
        <time>2018-02-25T09:17:38Z</time>
      </trkpt>
      <trkpt lat="49.00253" lon="1.12654">
        <ele>172.300003</ele>
        <time>2018-02-25T09:17:41Z</time>
      </trkpt>
      <trkpt lat="49.00253" lon="1.12669">
        <ele>172.199997</ele>
        <time>2018-02-25T09:17:43Z</time>
      </trkpt>
      <trkpt lat="49.00257" lon="1.12683">
        <ele>172.100006</ele>
        <time>2018-02-25T09:17:45Z</time>
      </trkpt>
      <trkpt lat="49.00258" lon="1.12701">
        <ele>172.100006</ele>
        <time>2018-02-25T09:17:48Z</time>
      </trkpt>
      <trkpt lat="49.00255" lon="1.12714">
        <ele>172.600006</ele>
        <time>2018-02-25T09:17:50Z</time>
      </trkpt>
      <trkpt lat="49.00252" lon="1.12727">
        <ele>172.600006</ele>
        <time>2018-02-25T09:17:52Z</time>
      </trkpt>
      <trkpt lat="49.00249" lon="1.12741">
        <ele>172.699997</ele>
        <time>2018-02-25T09:17:54Z</time>
      </trkpt>
      <trkpt lat="49.00248" lon="1.12761">
        <ele>173.300003</ele>
        <time>2018-02-25T09:17:57Z</time>
      </trkpt>
      <trkpt lat="49.00246" lon="1.12776">
        <ele>173.300003</ele>
        <time>2018-02-25T09:17:59Z</time>
      </trkpt>
      <trkpt lat="49.00244" lon="1.12791">
        <ele>173.5</ele>
        <time>2018-02-25T09:18:01Z</time>
      </trkpt>
      <trkpt lat="49.00245" lon="1.12808">
        <ele>174</ele>
        <time>2018-02-25T09:18:04Z</time>
      </trkpt>
      <trkpt lat="49.00248" lon="1.12823">
        <ele>174.399994</ele>
        <time>2018-02-25T09:18:07Z</time>
      </trkpt>
      <trkpt lat="49.00249" lon="1.12838">
        <ele>174.399994</ele>
        <time>2018-02-25T09:18:10Z</time>
      </trkpt>
      <trkpt lat="49.00258" lon="1.12845">
        <ele>174.5</ele>
        <time>2018-02-25T09:18:33Z</time>
      </trkpt>
      <trkpt lat="49.00249" lon="1.12843">
        <ele>174.600006</ele>
        <time>2018-02-25T09:18:40Z</time>
      </trkpt>
      <trkpt lat="49.00239" lon="1.1284">
        <ele>175.300003</ele>
        <time>2018-02-25T09:19:08Z</time>
      </trkpt>
      <trkpt lat="49.0023" lon="1.12832">
        <ele>175.699997</ele>
        <time>2018-02-25T09:19:13Z</time>
      </trkpt>
      <trkpt lat="49.00222" lon="1.12824">
        <ele>175.699997</ele>
        <time>2018-02-25T09:19:20Z</time>
      </trkpt>
      <trkpt lat="49.00213" lon="1.12825">
        <ele>175.800003</ele>
        <time>2018-02-25T09:20:07Z</time>
      </trkpt>
      <trkpt lat="49.00223" lon="1.12829">
        <ele>176.399994</ele>
        <time>2018-02-25T09:25:43Z</time>
      </trkpt>
      <trkpt lat="49.00227" lon="1.12841">
        <ele>176.399994</ele>
        <time>2018-02-25T09:25:48Z</time>
      </trkpt>
      <trkpt lat="49.00216" lon="1.12841">
        <ele>176.5</ele>
        <time>2018-02-25T09:25:53Z</time>
      </trkpt>
      <trkpt lat="49.00205" lon="1.12839">
        <ele>176.800003</ele>
        <time>2018-02-25T09:25:57Z</time>
      </trkpt>
      <trkpt lat="49.00193" lon="1.12839">
        <ele>177</ele>
        <time>2018-02-25T09:26:01Z</time>
      </trkpt>
      <trkpt lat="49.00182" lon="1.12839">
        <ele>177</ele>
        <time>2018-02-25T09:26:05Z</time>
      </trkpt>
      <trkpt lat="49.0017" lon="1.12837">
        <ele>177.100006</ele>
        <time>2018-02-25T09:26:09Z</time>
      </trkpt>
      <trkpt lat="49.00161" lon="1.12836">
        <ele>177.300003</ele>
        <time>2018-02-25T09:26:12Z</time>
      </trkpt>
      <trkpt lat="49.00152" lon="1.12837">
        <ele>177.399994</ele>
        <time>2018-02-25T09:26:15Z</time>
      </trkpt>
      <trkpt lat="49.00142" lon="1.12836">
        <ele>177.399994</ele>
        <time>2018-02-25T09:26:19Z</time>
      </trkpt>
      <trkpt lat="49.00131" lon="1.12834">
        <ele>177.600006</ele>
        <time>2018-02-25T09:26:23Z</time>
      </trkpt>
      <trkpt lat="49.0012" lon="1.12834">
        <ele>177.699997</ele>
        <time>2018-02-25T09:26:27Z</time>
      </trkpt>
      <trkpt lat="49.0011" lon="1.12834">
        <ele>178.100006</ele>
        <time>2018-02-25T09:26:30Z</time>
      </trkpt>
      <trkpt lat="49.00101" lon="1.12832">
        <ele>178.100006</ele>
        <time>2018-02-25T09:26:33Z</time>
      </trkpt>
      <trkpt lat="49.0009" lon="1.12829">
        <ele>178.300003</ele>
        <time>2018-02-25T09:26:36Z</time>
      </trkpt>
      <trkpt lat="49.00079" lon="1.12829">
        <ele>178.699997</ele>
        <time>2018-02-25T09:26:39Z</time>
      </trkpt>
      <trkpt lat="49.00068" lon="1.12829">
        <ele>179</ele>
        <time>2018-02-25T09:26:42Z</time>
      </trkpt>
      <trkpt lat="49.00058" lon="1.12827">
        <ele>179.300003</ele>
        <time>2018-02-25T09:26:45Z</time>
      </trkpt>
      <trkpt lat="49.00047" lon="1.12826">
        <ele>179.800003</ele>
        <time>2018-02-25T09:26:48Z</time>
      </trkpt>
      <trkpt lat="49.00036" lon="1.12825">
        <ele>179.899994</ele>
        <time>2018-02-25T09:26:51Z</time>
      </trkpt>
      <trkpt lat="49.00024" lon="1.12823">
        <ele>180.300003</ele>
        <time>2018-02-25T09:26:54Z</time>
      </trkpt>
      <trkpt lat="49.00012" lon="1.12821">
        <ele>180.600006</ele>
        <time>2018-02-25T09:26:57Z</time>
      </trkpt>
      <trkpt lat="48.99999" lon="1.12821">
        <ele>180.699997</ele>
        <time>2018-02-25T09:27:00Z</time>
      </trkpt>
      <trkpt lat="48.99988" lon="1.1282">
        <ele>181</ele>
        <time>2018-02-25T09:27:03Z</time>
      </trkpt>
      <trkpt lat="48.99976" lon="1.12818">
        <ele>181.300003</ele>
        <time>2018-02-25T09:27:06Z</time>
      </trkpt>
      <trkpt lat="48.99965" lon="1.12817">
        <ele>181.699997</ele>
        <time>2018-02-25T09:27:09Z</time>
      </trkpt>
      <trkpt lat="48.99955" lon="1.12819">
        <ele>182.199997</ele>
        <time>2018-02-25T09:27:12Z</time>
      </trkpt>
      <trkpt lat="48.99945" lon="1.12829">
        <ele>182.699997</ele>
        <time>2018-02-25T09:27:16Z</time>
      </trkpt>
      <trkpt lat="48.99936" lon="1.1284">
        <ele>183.199997</ele>
        <time>2018-02-25T09:27:20Z</time>
      </trkpt>
      <trkpt lat="48.99925" lon="1.12844">
        <ele>183.899994</ele>
        <time>2018-02-25T09:27:24Z</time>
      </trkpt>
      <trkpt lat="48.99914" lon="1.12845">
        <ele>184.300003</ele>
        <time>2018-02-25T09:27:28Z</time>
      </trkpt>
      <trkpt lat="48.99904" lon="1.12846">
        <ele>184.800003</ele>
        <time>2018-02-25T09:27:32Z</time>
      </trkpt>
      <trkpt lat="48.99894" lon="1.12844">
        <ele>185.100006</ele>
        <time>2018-02-25T09:27:36Z</time>
      </trkpt>
      <trkpt lat="48.99885" lon="1.12838">
        <ele>185.199997</ele>
        <time>2018-02-25T09:27:40Z</time>
      </trkpt>
      <trkpt lat="48.99878" lon="1.12826">
        <ele>185.100006</ele>
        <time>2018-02-25T09:27:44Z</time>
      </trkpt>
      <trkpt lat="48.99875" lon="1.12811">
        <ele>185</ele>
        <time>2018-02-25T09:27:47Z</time>
      </trkpt>
      <trkpt lat="48.99876" lon="1.12794">
        <ele>184.899994</ele>
        <time>2018-02-25T09:27:50Z</time>
      </trkpt>
      <trkpt lat="48.9988" lon="1.12777">
        <ele>184.800003</ele>
        <time>2018-02-25T09:27:53Z</time>
      </trkpt>
      <trkpt lat="48.99885" lon="1.12764">
        <ele>184.399994</ele>
        <time>2018-02-25T09:27:55Z</time>
      </trkpt>
      <trkpt lat="48.9989" lon="1.1275">
        <ele>184.100006</ele>
        <time>2018-02-25T09:27:57Z</time>
      </trkpt>
      <trkpt lat="48.99896" lon="1.12734">
        <ele>183.399994</ele>
        <time>2018-02-25T09:27:59Z</time>
      </trkpt>
      <trkpt lat="48.999" lon="1.12717">
        <ele>182.800003</ele>
        <time>2018-02-25T09:28:01Z</time>
      </trkpt>
      <trkpt lat="48.99898" lon="1.127">
        <ele>182.199997</ele>
        <time>2018-02-25T09:28:03Z</time>
      </trkpt>
      <trkpt lat="48.99894" lon="1.12684">
        <ele>181.199997</ele>
        <time>2018-02-25T09:28:05Z</time>
      </trkpt>
      <trkpt lat="48.99887" lon="1.12672">
        <ele>180.699997</ele>
        <time>2018-02-25T09:28:07Z</time>
      </trkpt>
      <trkpt lat="48.99878" lon="1.12662">
        <ele>180.600006</ele>
        <time>2018-02-25T09:28:09Z</time>
      </trkpt>
      <trkpt lat="48.99871" lon="1.12651">
        <ele>180.199997</ele>
        <time>2018-02-25T09:28:11Z</time>
      </trkpt>
      <trkpt lat="48.99866" lon="1.12639">
        <ele>179.800003</ele>
        <time>2018-02-25T09:28:13Z</time>
      </trkpt>
      <trkpt lat="48.99862" lon="1.12625">
        <ele>179.5</ele>
        <time>2018-02-25T09:28:15Z</time>
      </trkpt>
      <trkpt lat="48.9986" lon="1.12609">
        <ele>179.5</ele>
        <time>2018-02-25T09:28:17Z</time>
      </trkpt>
      <trkpt lat="48.99858" lon="1.12592">
        <ele>179.100006</ele>
        <time>2018-02-25T09:28:19Z</time>
      </trkpt>
      <trkpt lat="48.9986" lon="1.12572">
        <ele>178.699997</ele>
        <time>2018-02-25T09:28:21Z</time>
      </trkpt>
      <trkpt lat="48.99865" lon="1.12552">
        <ele>177.600006</ele>
        <time>2018-02-25T09:28:23Z</time>
      </trkpt>
      <trkpt lat="48.99872" lon="1.12536">
        <ele>176.800003</ele>
        <time>2018-02-25T09:28:25Z</time>
      </trkpt>
      <trkpt lat="48.99874" lon="1.12522">
        <ele>176.199997</ele>
        <time>2018-02-25T09:28:27Z</time>
      </trkpt>
      <trkpt lat="48.99872" lon="1.12505">
        <ele>175.5</ele>
        <time>2018-02-25T09:28:29Z</time>
      </trkpt>
      <trkpt lat="48.99872" lon="1.12488">
        <ele>174.899994</ele>
        <time>2018-02-25T09:28:31Z</time>
      </trkpt>
      <trkpt lat="48.99871" lon="1.12472">
        <ele>174.5</ele>
        <time>2018-02-25T09:28:33Z</time>
      </trkpt>
      <trkpt lat="48.99871" lon="1.12457">
        <ele>173.899994</ele>
        <time>2018-02-25T09:28:35Z</time>
      </trkpt>
      <trkpt lat="48.99868" lon="1.12441">
        <ele>173.5</ele>
        <time>2018-02-25T09:28:37Z</time>
      </trkpt>
      <trkpt lat="48.99869" lon="1.12427">
        <ele>173.399994</ele>
        <time>2018-02-25T09:28:39Z</time>
      </trkpt>
      <trkpt lat="48.99875" lon="1.12413">
        <ele>173.5</ele>
        <time>2018-02-25T09:28:42Z</time>
      </trkpt>
      <trkpt lat="48.99884" lon="1.12401">
        <ele>173.300003</ele>
        <time>2018-02-25T09:28:45Z</time>
      </trkpt>
      <trkpt lat="48.99891" lon="1.12386">
        <ele>173.199997</ele>
        <time>2018-02-25T09:28:48Z</time>
      </trkpt>
      <trkpt lat="48.99901" lon="1.12372">
        <ele>173</ele>
        <time>2018-02-25T09:28:51Z</time>
      </trkpt>
      <trkpt lat="48.99909" lon="1.12355">
        <ele>172.399994</ele>
        <time>2018-02-25T09:28:54Z</time>
      </trkpt>
      <trkpt lat="48.99918" lon="1.12347">
        <ele>172.199997</ele>
        <time>2018-02-25T09:28:56Z</time>
      </trkpt>
      <trkpt lat="48.99928" lon="1.12341">
        <ele>171.600006</ele>
        <time>2018-02-25T09:28:59Z</time>
      </trkpt>
      <trkpt lat="48.99937" lon="1.12331">
        <ele>171.399994</ele>
        <time>2018-02-25T09:29:01Z</time>
      </trkpt>
      <trkpt lat="48.99946" lon="1.12322">
        <ele>171.100006</ele>
        <time>2018-02-25T09:29:03Z</time>
      </trkpt>
      <trkpt lat="48.99952" lon="1.12311">
        <ele>170.600006</ele>
        <time>2018-02-25T09:29:05Z</time>
      </trkpt>
      <trkpt lat="48.99965" lon="1.12305">
        <ele>170</ele>
        <time>2018-02-25T09:29:08Z</time>
      </trkpt>
      <trkpt lat="48.99977" lon="1.123">
        <ele>170</ele>
        <time>2018-02-25T09:29:11Z</time>
      </trkpt>
      <trkpt lat="48.99989" lon="1.12297">
        <ele>169.600006</ele>
        <time>2018-02-25T09:29:13Z</time>
      </trkpt>
      <trkpt lat="49.00002" lon="1.12296">
        <ele>169</ele>
        <time>2018-02-25T09:29:15Z</time>
      </trkpt>
      <trkpt lat="49.00012" lon="1.12288">
        <ele>168.5</ele>
        <time>2018-02-25T09:29:18Z</time>
      </trkpt>
      <trkpt lat="49.00017" lon="1.12277">
        <ele>167.800003</ele>
        <time>2018-02-25T09:29:20Z</time>
      </trkpt>
      <trkpt lat="49.00022" lon="1.12263">
        <ele>167.100006</ele>
        <time>2018-02-25T09:29:22Z</time>
      </trkpt>
      <trkpt lat="49.0003" lon="1.12256">
        <ele>165.800003</ele>
        <time>2018-02-25T09:29:25Z</time>
      </trkpt>
      <trkpt lat="49.00043" lon="1.12254">
        <ele>165.100006</ele>
        <time>2018-02-25T09:29:29Z</time>
      </trkpt>
      <trkpt lat="49.00054" lon="1.12242">
        <ele>164.399994</ele>
        <time>2018-02-25T09:29:32Z</time>
      </trkpt>
      <trkpt lat="49.00056" lon="1.12228">
        <ele>163.899994</ele>
        <time>2018-02-25T09:29:34Z</time>
      </trkpt>
      <trkpt lat="49.00064" lon="1.12219">
        <ele>163.5</ele>
        <time>2018-02-25T09:29:36Z</time>
      </trkpt>
      <trkpt lat="49.00073" lon="1.12209">
        <ele>162.899994</ele>
        <time>2018-02-25T09:29:38Z</time>
      </trkpt>
      <trkpt lat="49.00079" lon="1.12191">
        <ele>161.699997</ele>
        <time>2018-02-25T09:29:41Z</time>
      </trkpt>
      <trkpt lat="49.00085" lon="1.12178">
        <ele>160.899994</ele>
        <time>2018-02-25T09:29:43Z</time>
      </trkpt>
      <trkpt lat="49.0009" lon="1.12163">
        <ele>160.399994</ele>
        <time>2018-02-25T09:29:45Z</time>
      </trkpt>
      <trkpt lat="49.00095" lon="1.12145">
        <ele>159.899994</ele>
        <time>2018-02-25T09:29:47Z</time>
      </trkpt>
      <trkpt lat="49.00098" lon="1.12127">
        <ele>159.600006</ele>
        <time>2018-02-25T09:29:49Z</time>
      </trkpt>
      <trkpt lat="49.00101" lon="1.12112">
        <ele>159.300003</ele>
        <time>2018-02-25T09:29:51Z</time>
      </trkpt>
      <trkpt lat="49.001" lon="1.12097">
        <ele>158.5</ele>
        <time>2018-02-25T09:29:53Z</time>
      </trkpt>
      <trkpt lat="49.00101" lon="1.12081">
        <ele>157.399994</ele>
        <time>2018-02-25T09:29:56Z</time>
      </trkpt>
      <trkpt lat="49.00102" lon="1.12062">
        <ele>155.199997</ele>
        <time>2018-02-25T09:29:59Z</time>
      </trkpt>
      <trkpt lat="49.0011" lon="1.1205">
        <ele>152.5</ele>
        <time>2018-02-25T09:30:02Z</time>
      </trkpt>
      <trkpt lat="49.00111" lon="1.12034">
        <ele>149.199997</ele>
        <time>2018-02-25T09:30:05Z</time>
      </trkpt>
      <trkpt lat="49.00118" lon="1.12018">
        <ele>146</ele>
        <time>2018-02-25T09:30:08Z</time>
      </trkpt>
      <trkpt lat="49.00123" lon="1.12007">
        <ele>142.699997</ele>
        <time>2018-02-25T09:30:13Z</time>
      </trkpt>
      <trkpt lat="49.00132" lon="1.12012">
        <ele>140.800003</ele>
        <time>2018-02-25T09:30:19Z</time>
      </trkpt>
      <trkpt lat="49.0014" lon="1.12023">
        <ele>139.5</ele>
        <time>2018-02-25T09:31:28Z</time>
      </trkpt>
      <trkpt lat="49.00156" lon="1.12037">
        <ele>139</ele>
        <time>2018-02-25T09:31:32Z</time>
      </trkpt>
      <trkpt lat="49.00175" lon="1.12049">
        <ele>139</ele>
        <time>2018-02-25T09:31:36Z</time>
      </trkpt>
      <trkpt lat="49.00188" lon="1.12055">
        <ele>139.300003</ele>
        <time>2018-02-25T09:31:39Z</time>
      </trkpt>
      <trkpt lat="49.00198" lon="1.12056">
        <ele>139.100006</ele>
        <time>2018-02-25T09:31:42Z</time>
      </trkpt>
      <trkpt lat="49.00206" lon="1.12043">
        <ele>138.899994</ele>
        <time>2018-02-25T09:31:46Z</time>
      </trkpt>
      <trkpt lat="49.00211" lon="1.1203">
        <ele>138.300003</ele>
        <time>2018-02-25T09:31:50Z</time>
      </trkpt>
      <trkpt lat="49.00217" lon="1.1202">
        <ele>138</ele>
        <time>2018-02-25T09:31:58Z</time>
      </trkpt>
      <trkpt lat="49.00223" lon="1.12004">
        <ele>137.899994</ele>
        <time>2018-02-25T09:32:02Z</time>
      </trkpt>
      <trkpt lat="49.00228" lon="1.11992">
        <ele>137.800003</ele>
        <time>2018-02-25T09:32:05Z</time>
      </trkpt>
      <trkpt lat="49.00234" lon="1.11977">
        <ele>137.699997</ele>
        <time>2018-02-25T09:32:08Z</time>
      </trkpt>
      <trkpt lat="49.00238" lon="1.11962">
        <ele>137.699997</ele>
        <time>2018-02-25T09:32:11Z</time>
      </trkpt>
      <trkpt lat="49.00242" lon="1.11947">
        <ele>137.699997</ele>
        <time>2018-02-25T09:32:14Z</time>
      </trkpt>
      <trkpt lat="49.00247" lon="1.11933">
        <ele>137</ele>
        <time>2018-02-25T09:32:17Z</time>
      </trkpt>
      <trkpt lat="49.00252" lon="1.11919">
        <ele>136.699997</ele>
        <time>2018-02-25T09:32:20Z</time>
      </trkpt>
      <trkpt lat="49.00257" lon="1.11906">
        <ele>135.800003</ele>
        <time>2018-02-25T09:32:23Z</time>
      </trkpt>
      <trkpt lat="49.00262" lon="1.11893">
        <ele>135.399994</ele>
        <time>2018-02-25T09:32:31Z</time>
      </trkpt>
      <trkpt lat="49.00265" lon="1.11877">
        <ele>135.100006</ele>
        <time>2018-02-25T09:32:39Z</time>
      </trkpt>
      <trkpt lat="49.00271" lon="1.11866">
        <ele>134.899994</ele>
        <time>2018-02-25T09:32:43Z</time>
      </trkpt>
      <trkpt lat="49.00276" lon="1.1185">
        <ele>135</ele>
        <time>2018-02-25T09:32:47Z</time>
      </trkpt>
      <trkpt lat="49.00281" lon="1.11834">
        <ele>135.100006</ele>
        <time>2018-02-25T09:32:51Z</time>
      </trkpt>
      <trkpt lat="49.00286" lon="1.11822">
        <ele>135.199997</ele>
        <time>2018-02-25T09:32:54Z</time>
      </trkpt>
      <trkpt lat="49.00291" lon="1.11808">
        <ele>135.100006</ele>
        <time>2018-02-25T09:32:57Z</time>
      </trkpt>
      <trkpt lat="49.00296" lon="1.11793">
        <ele>135.100006</ele>
        <time>2018-02-25T09:33:00Z</time>
      </trkpt>
      <trkpt lat="49.00302" lon="1.11778">
        <ele>134.800003</ele>
        <time>2018-02-25T09:33:03Z</time>
      </trkpt>
      <trkpt lat="49.00309" lon="1.11761">
        <ele>134.699997</ele>
        <time>2018-02-25T09:33:06Z</time>
      </trkpt>
      <trkpt lat="49.00315" lon="1.11744">
        <ele>134.600006</ele>
        <time>2018-02-25T09:33:09Z</time>
      </trkpt>
      <trkpt lat="49.00321" lon="1.11726">
        <ele>134.300003</ele>
        <time>2018-02-25T09:33:12Z</time>
      </trkpt>
      <trkpt lat="49.00325" lon="1.11712">
        <ele>134.100006</ele>
        <time>2018-02-25T09:33:14Z</time>
      </trkpt>
      <trkpt lat="49.00327" lon="1.11698">
        <ele>133.899994</ele>
        <time>2018-02-25T09:33:16Z</time>
      </trkpt>
      <trkpt lat="49.00331" lon="1.11679">
        <ele>133.800003</ele>
        <time>2018-02-25T09:33:19Z</time>
      </trkpt>
      <trkpt lat="49.00334" lon="1.11662">
        <ele>133.699997</ele>
        <time>2018-02-25T09:33:22Z</time>
      </trkpt>
      <trkpt lat="49.00338" lon="1.11642">
        <ele>133.600006</ele>
        <time>2018-02-25T09:33:25Z</time>
      </trkpt>
      <trkpt lat="49.00342" lon="1.11625">
        <ele>133.399994</ele>
        <time>2018-02-25T09:33:27Z</time>
      </trkpt>
      <trkpt lat="49.00346" lon="1.11607">
        <ele>132.899994</ele>
        <time>2018-02-25T09:33:29Z</time>
      </trkpt>
      <trkpt lat="49.0035" lon="1.11588">
        <ele>131.699997</ele>
        <time>2018-02-25T09:33:31Z</time>
      </trkpt>
      <trkpt lat="49.00355" lon="1.11569">
        <ele>130.5</ele>
        <time>2018-02-25T09:33:33Z</time>
      </trkpt>
      <trkpt lat="49.00357" lon="1.11553">
        <ele>129.300003</ele>
        <time>2018-02-25T09:33:35Z</time>
      </trkpt>
      <trkpt lat="49.00358" lon="1.11538">
        <ele>127.800003</ele>
        <time>2018-02-25T09:33:37Z</time>
      </trkpt>
      <trkpt lat="49.00358" lon="1.11523">
        <ele>126.199997</ele>
        <time>2018-02-25T09:33:39Z</time>
      </trkpt>
      <trkpt lat="49.00359" lon="1.11506">
        <ele>124.800003</ele>
        <time>2018-02-25T09:33:41Z</time>
      </trkpt>
      <trkpt lat="49.0036" lon="1.1149">
        <ele>124</ele>
        <time>2018-02-25T09:33:43Z</time>
      </trkpt>
      <trkpt lat="49.00362" lon="1.11474">
        <ele>123</ele>
        <time>2018-02-25T09:33:45Z</time>
      </trkpt>
      <trkpt lat="49.00363" lon="1.11459">
        <ele>122.5</ele>
        <time>2018-02-25T09:33:47Z</time>
      </trkpt>
      <trkpt lat="49.00364" lon="1.11443">
        <ele>121.599998</ele>
        <time>2018-02-25T09:33:49Z</time>
      </trkpt>
      <trkpt lat="49.00365" lon="1.11428">
        <ele>121.400002</ele>
        <time>2018-02-25T09:33:51Z</time>
      </trkpt>
      <trkpt lat="49.00364" lon="1.11413">
        <ele>122.099998</ele>
        <time>2018-02-25T09:33:53Z</time>
      </trkpt>
      <trkpt lat="49.00362" lon="1.11399">
        <ele>122.599998</ele>
        <time>2018-02-25T09:33:55Z</time>
      </trkpt>
      <trkpt lat="49.00359" lon="1.11381">
        <ele>123.099998</ele>
        <time>2018-02-25T09:33:58Z</time>
      </trkpt>
      <trkpt lat="49.00355" lon="1.11364">
        <ele>124.599998</ele>
        <time>2018-02-25T09:34:01Z</time>
      </trkpt>
      <trkpt lat="49.00354" lon="1.1135">
        <ele>125.300003</ele>
        <time>2018-02-25T09:34:04Z</time>
      </trkpt>
      <trkpt lat="49.00351" lon="1.11335">
        <ele>125.699997</ele>
        <time>2018-02-25T09:34:08Z</time>
      </trkpt>
      <trkpt lat="49.00341" lon="1.11327">
        <ele>126.5</ele>
        <time>2018-02-25T09:34:13Z</time>
      </trkpt>
      <trkpt lat="49.00332" lon="1.11319">
        <ele>126.800003</ele>
        <time>2018-02-25T09:34:17Z</time>
      </trkpt>
      <trkpt lat="49.00326" lon="1.11308">
        <ele>127.400002</ele>
        <time>2018-02-25T09:34:21Z</time>
      </trkpt>
      <trkpt lat="49.00318" lon="1.11297">
        <ele>127.599998</ele>
        <time>2018-02-25T09:34:25Z</time>
      </trkpt>
      <trkpt lat="49.00308" lon="1.11292">
        <ele>127.900002</ele>
        <time>2018-02-25T09:34:29Z</time>
      </trkpt>
      <trkpt lat="49.00299" lon="1.11285">
        <ele>128.199997</ele>
        <time>2018-02-25T09:34:33Z</time>
      </trkpt>
      <trkpt lat="49.0029" lon="1.11277">
        <ele>128.800003</ele>
        <time>2018-02-25T09:34:37Z</time>
      </trkpt>
      <trkpt lat="49.00286" lon="1.11264">
        <ele>129.600006</ele>
        <time>2018-02-25T09:34:43Z</time>
      </trkpt>
      <trkpt lat="49.00279" lon="1.11256">
        <ele>130</ele>
        <time>2018-02-25T09:34:50Z</time>
      </trkpt>
      <trkpt lat="49.0027" lon="1.11252">
        <ele>130.199997</ele>
        <time>2018-02-25T09:35:30Z</time>
      </trkpt>
      <trkpt lat="49.0026" lon="1.11243">
        <ele>130.100006</ele>
        <time>2018-02-25T09:35:35Z</time>
      </trkpt>
      <trkpt lat="49.0025" lon="1.11234">
        <ele>129.899994</ele>
        <time>2018-02-25T09:35:39Z</time>
      </trkpt>
      <trkpt lat="49.0024" lon="1.11225">
        <ele>129.699997</ele>
        <time>2018-02-25T09:35:42Z</time>
      </trkpt>
      <trkpt lat="49.00232" lon="1.11218">
        <ele>129.800003</ele>
        <time>2018-02-25T09:35:44Z</time>
      </trkpt>
      <trkpt lat="49.00224" lon="1.11212">
        <ele>129.899994</ele>
        <time>2018-02-25T09:35:46Z</time>
      </trkpt>
      <trkpt lat="49.00215" lon="1.11206">
        <ele>130</ele>
        <time>2018-02-25T09:35:48Z</time>
      </trkpt>
      <trkpt lat="49.00204" lon="1.11199">
        <ele>130.399994</ele>
        <time>2018-02-25T09:35:50Z</time>
      </trkpt>
      <trkpt lat="49.00195" lon="1.11193">
        <ele>130.5</ele>
        <time>2018-02-25T09:35:52Z</time>
      </trkpt>
      <trkpt lat="49.00185" lon="1.11187">
        <ele>131.699997</ele>
        <time>2018-02-25T09:35:55Z</time>
      </trkpt>
      <trkpt lat="49.00174" lon="1.11178">
        <ele>132.600006</ele>
        <time>2018-02-25T09:35:58Z</time>
      </trkpt>
      <trkpt lat="49.00165" lon="1.11168">
        <ele>133</ele>
        <time>2018-02-25T09:36:01Z</time>
      </trkpt>
      <trkpt lat="49.00155" lon="1.11156">
        <ele>133.199997</ele>
        <time>2018-02-25T09:36:04Z</time>
      </trkpt>
      <trkpt lat="49.00145" lon="1.11147">
        <ele>133.100006</ele>
        <time>2018-02-25T09:36:07Z</time>
      </trkpt>
      <trkpt lat="49.00135" lon="1.11136">
        <ele>133.199997</ele>
        <time>2018-02-25T09:36:10Z</time>
      </trkpt>
      <trkpt lat="49.00127" lon="1.11125">
        <ele>133.300003</ele>
        <time>2018-02-25T09:36:13Z</time>
      </trkpt>
      <trkpt lat="49.00121" lon="1.11115">
        <ele>133.300003</ele>
        <time>2018-02-25T09:36:15Z</time>
      </trkpt>
      <trkpt lat="49.00111" lon="1.11103">
        <ele>132.399994</ele>
        <time>2018-02-25T09:36:17Z</time>
      </trkpt>
      <trkpt lat="49.00101" lon="1.11092">
        <ele>131.600006</ele>
        <time>2018-02-25T09:36:19Z</time>
      </trkpt>
      <trkpt lat="49.00093" lon="1.11082">
        <ele>130.899994</ele>
        <time>2018-02-25T09:36:21Z</time>
      </trkpt>
      <trkpt lat="49.00085" lon="1.11071">
        <ele>130.5</ele>
        <time>2018-02-25T09:36:23Z</time>
      </trkpt>
      <trkpt lat="49.00076" lon="1.11069">
        <ele>130.300003</ele>
        <time>2018-02-25T09:36:26Z</time>
      </trkpt>
      <trkpt lat="49.00071" lon="1.11081">
        <ele>129.699997</ele>
        <time>2018-02-25T09:36:30Z</time>
      </trkpt>
      <trkpt lat="49.00063" lon="1.11091">
        <ele>129.899994</ele>
        <time>2018-02-25T09:36:35Z</time>
      </trkpt>
      <trkpt lat="49.00063" lon="1.11108">
        <ele>130.600006</ele>
        <time>2018-02-25T09:36:40Z</time>
      </trkpt>
      <trkpt lat="49.00066" lon="1.11123">
        <ele>131.600006</ele>
        <time>2018-02-25T09:36:44Z</time>
      </trkpt>
      <trkpt lat="49.00072" lon="1.11136">
        <ele>132.899994</ele>
        <time>2018-02-25T09:36:48Z</time>
      </trkpt>
      <trkpt lat="49.00077" lon="1.11148">
        <ele>133.800003</ele>
        <time>2018-02-25T09:36:52Z</time>
      </trkpt>
      <trkpt lat="49.00084" lon="1.11159">
        <ele>134.5</ele>
        <time>2018-02-25T09:36:56Z</time>
      </trkpt>
      <trkpt lat="49.00091" lon="1.1117">
        <ele>135.5</ele>
        <time>2018-02-25T09:37:00Z</time>
      </trkpt>
      <trkpt lat="49.00099" lon="1.1118">
        <ele>136.899994</ele>
        <time>2018-02-25T09:37:05Z</time>
      </trkpt>
      <trkpt lat="49.00093" lon="1.11191">
        <ele>140.199997</ele>
        <time>2018-02-25T09:37:16Z</time>
      </trkpt>
      <trkpt lat="49.00086" lon="1.11199">
        <ele>142.300003</ele>
        <time>2018-02-25T09:37:24Z</time>
      </trkpt>
      <trkpt lat="49.00077" lon="1.11195">
        <ele>143.399994</ele>
        <time>2018-02-25T09:37:31Z</time>
      </trkpt>
      <trkpt lat="49.00067" lon="1.11189">
        <ele>143.699997</ele>
        <time>2018-02-25T09:37:35Z</time>
      </trkpt>
      <trkpt lat="49.00058" lon="1.11186">
        <ele>143.800003</ele>
        <time>2018-02-25T09:37:38Z</time>
      </trkpt>
      <trkpt lat="49.00047" lon="1.11182">
        <ele>143.800003</ele>
        <time>2018-02-25T09:37:42Z</time>
      </trkpt>
      <trkpt lat="49.00036" lon="1.11179">
        <ele>143.800003</ele>
        <time>2018-02-25T09:37:46Z</time>
      </trkpt>
      <trkpt lat="49.00029" lon="1.1119">
        <ele>144.100006</ele>
        <time>2018-02-25T09:37:51Z</time>
      </trkpt>
      <trkpt lat="49.00023" lon="1.11202">
        <ele>145.800003</ele>
        <time>2018-02-25T09:37:57Z</time>
      </trkpt>
      <trkpt lat="49.00018" lon="1.11215">
        <ele>147.899994</ele>
        <time>2018-02-25T09:38:03Z</time>
      </trkpt>
      <trkpt lat="49.00017" lon="1.1123">
        <ele>149.699997</ele>
        <time>2018-02-25T09:38:09Z</time>
      </trkpt>
      <trkpt lat="49.00017" lon="1.11245">
        <ele>152.399994</ele>
        <time>2018-02-25T09:38:15Z</time>
      </trkpt>
      <trkpt lat="49.00014" lon="1.11259">
        <ele>154.399994</ele>
        <time>2018-02-25T09:38:22Z</time>
      </trkpt>
      <trkpt lat="49.00019" lon="1.11273">
        <ele>155.800003</ele>
        <time>2018-02-25T09:38:27Z</time>
      </trkpt>
      <trkpt lat="49.0002" lon="1.11287">
        <ele>157.399994</ele>
        <time>2018-02-25T09:38:33Z</time>
      </trkpt>
      <trkpt lat="49.00013" lon="1.11298">
        <ele>159.300003</ele>
        <time>2018-02-25T09:38:38Z</time>
      </trkpt>
      <trkpt lat="49.0001" lon="1.11313">
        <ele>160.699997</ele>
        <time>2018-02-25T09:38:44Z</time>
      </trkpt>
      <trkpt lat="49.00007" lon="1.11328">
        <ele>161.899994</ele>
        <time>2018-02-25T09:38:50Z</time>
      </trkpt>
      <trkpt lat="49.00005" lon="1.11344">
        <ele>163.300003</ele>
        <time>2018-02-25T09:38:56Z</time>
      </trkpt>
      <trkpt lat="49.0001" lon="1.11358">
        <ele>164.199997</ele>
        <time>2018-02-25T09:39:01Z</time>
      </trkpt>
      <trkpt lat="49.00016" lon="1.11369">
        <ele>164.899994</ele>
        <time>2018-02-25T09:39:05Z</time>
      </trkpt>
      <trkpt lat="49.00019" lon="1.11384">
        <ele>165.5</ele>
        <time>2018-02-25T09:39:10Z</time>
      </trkpt>
      <trkpt lat="49.00023" lon="1.11398">
        <ele>166.100006</ele>
        <time>2018-02-25T09:39:14Z</time>
      </trkpt>
      <trkpt lat="49.00028" lon="1.11412">
        <ele>166.800003</ele>
        <time>2018-02-25T09:39:18Z</time>
      </trkpt>
      <trkpt lat="49.00031" lon="1.11428">
        <ele>167.399994</ele>
        <time>2018-02-25T09:39:22Z</time>
      </trkpt>
      <trkpt lat="49.00029" lon="1.11443">
        <ele>168.100006</ele>
        <time>2018-02-25T09:39:26Z</time>
      </trkpt>
      <trkpt lat="49.00031" lon="1.11456">
        <ele>168.399994</ele>
        <time>2018-02-25T09:39:30Z</time>
      </trkpt>
      <trkpt lat="49.00033" lon="1.1147">
        <ele>168.5</ele>
        <time>2018-02-25T09:39:33Z</time>
      </trkpt>
      <trkpt lat="49.00037" lon="1.11484">
        <ele>168.5</ele>
        <time>2018-02-25T09:39:37Z</time>
      </trkpt>
      <trkpt lat="49.0003" lon="1.11496">
        <ele>168.600006</ele>
        <time>2018-02-25T09:39:43Z</time>
      </trkpt>
      <trkpt lat="49.00019" lon="1.11502">
        <ele>168.5</ele>
        <time>2018-02-25T09:39:48Z</time>
      </trkpt>
      <trkpt lat="49.0001" lon="1.11506">
        <ele>168.300003</ele>
        <time>2018-02-25T09:40:38Z</time>
      </trkpt>
      <trkpt lat="49.0001" lon="1.1149">
        <ele>168.100006</ele>
        <time>2018-02-25T09:42:01Z</time>
      </trkpt>
      <trkpt lat="49.00008" lon="1.11476">
        <ele>168.199997</ele>
        <time>2018-02-25T09:42:04Z</time>
      </trkpt>
      <trkpt lat="49.00004" lon="1.1146">
        <ele>168.199997</ele>
        <time>2018-02-25T09:42:07Z</time>
      </trkpt>
      <trkpt lat="49.00002" lon="1.11444">
        <ele>168.100006</ele>
        <time>2018-02-25T09:42:10Z</time>
      </trkpt>
      <trkpt lat="48.99999" lon="1.11427">
        <ele>167.899994</ele>
        <time>2018-02-25T09:42:13Z</time>
      </trkpt>
      <trkpt lat="48.99994" lon="1.11407">
        <ele>167.699997</ele>
        <time>2018-02-25T09:42:16Z</time>
      </trkpt>
      <trkpt lat="48.99988" lon="1.11388">
        <ele>167.5</ele>
        <time>2018-02-25T09:42:19Z</time>
      </trkpt>
      <trkpt lat="48.99984" lon="1.1137">
        <ele>167.199997</ele>
        <time>2018-02-25T09:42:22Z</time>
      </trkpt>
      <trkpt lat="48.9998" lon="1.11351">
        <ele>166.399994</ele>
        <time>2018-02-25T09:42:25Z</time>
      </trkpt>
      <trkpt lat="48.99975" lon="1.11331">
        <ele>165.800003</ele>
        <time>2018-02-25T09:42:27Z</time>
      </trkpt>
      <trkpt lat="48.99973" lon="1.11313">
        <ele>165</ele>
        <time>2018-02-25T09:42:29Z</time>
      </trkpt>
      <trkpt lat="48.99969" lon="1.11295">
        <ele>163.399994</ele>
        <time>2018-02-25T09:42:31Z</time>
      </trkpt>
      <trkpt lat="48.99964" lon="1.11277">
        <ele>162</ele>
        <time>2018-02-25T09:42:33Z</time>
      </trkpt>
      <trkpt lat="48.99959" lon="1.11259">
        <ele>159.800003</ele>
        <time>2018-02-25T09:42:36Z</time>
      </trkpt>
      <trkpt lat="48.99952" lon="1.11251">
        <ele>158</ele>
        <time>2018-02-25T09:42:40Z</time>
      </trkpt>
      <trkpt lat="48.99944" lon="1.11258">
        <ele>157.600006</ele>
        <time>2018-02-25T09:42:44Z</time>
      </trkpt>
      <trkpt lat="48.99934" lon="1.11267">
        <ele>158.100006</ele>
        <time>2018-02-25T09:42:48Z</time>
      </trkpt>
      <trkpt lat="48.99925" lon="1.11274">
        <ele>158.699997</ele>
        <time>2018-02-25T09:42:52Z</time>
      </trkpt>
      <trkpt lat="48.99914" lon="1.1128">
        <ele>159.600006</ele>
        <time>2018-02-25T09:42:56Z</time>
      </trkpt>
      <trkpt lat="48.99906" lon="1.11289">
        <ele>160.300003</ele>
        <time>2018-02-25T09:42:59Z</time>
      </trkpt>
      <trkpt lat="48.99898" lon="1.11297">
        <ele>161.800003</ele>
        <time>2018-02-25T09:43:03Z</time>
      </trkpt>
      <trkpt lat="48.99892" lon="1.11308">
        <ele>163.100006</ele>
        <time>2018-02-25T09:43:07Z</time>
      </trkpt>
      <trkpt lat="48.99885" lon="1.1132">
        <ele>163.5</ele>
        <time>2018-02-25T09:43:10Z</time>
      </trkpt>
      <trkpt lat="48.9988" lon="1.11334">
        <ele>164.199997</ele>
        <time>2018-02-25T09:43:13Z</time>
      </trkpt>
      <trkpt lat="48.99872" lon="1.11343">
        <ele>164.600006</ele>
        <time>2018-02-25T09:43:16Z</time>
      </trkpt>
      <trkpt lat="48.99861" lon="1.1135">
        <ele>164.800003</ele>
        <time>2018-02-25T09:43:19Z</time>
      </trkpt>
      <trkpt lat="48.99851" lon="1.11356">
        <ele>165.199997</ele>
        <time>2018-02-25T09:43:22Z</time>
      </trkpt>
      <trkpt lat="48.99841" lon="1.11362">
        <ele>165.5</ele>
        <time>2018-02-25T09:43:25Z</time>
      </trkpt>
      <trkpt lat="48.99832" lon="1.11371">
        <ele>165.699997</ele>
        <time>2018-02-25T09:43:28Z</time>
      </trkpt>
      <trkpt lat="48.99826" lon="1.11381">
        <ele>165.800003</ele>
        <time>2018-02-25T09:43:31Z</time>
      </trkpt>
      <trkpt lat="48.99821" lon="1.11395">
        <ele>165.899994</ele>
        <time>2018-02-25T09:43:34Z</time>
      </trkpt>
      <trkpt lat="48.99816" lon="1.11412">
        <ele>166.399994</ele>
        <time>2018-02-25T09:43:37Z</time>
      </trkpt>
      <trkpt lat="48.9981" lon="1.1143">
        <ele>166.699997</ele>
        <time>2018-02-25T09:43:40Z</time>
      </trkpt>
      <trkpt lat="48.99804" lon="1.11443">
        <ele>166.800003</ele>
        <time>2018-02-25T09:43:43Z</time>
      </trkpt>
      <trkpt lat="48.99799" lon="1.11459">
        <ele>166.600006</ele>
        <time>2018-02-25T09:43:47Z</time>
      </trkpt>
      <trkpt lat="48.99799" lon="1.11477">
        <ele>166.800003</ele>
        <time>2018-02-25T09:43:50Z</time>
      </trkpt>
      <trkpt lat="48.99799" lon="1.11491">
        <ele>166.800003</ele>
        <time>2018-02-25T09:43:52Z</time>
      </trkpt>
      <trkpt lat="48.99803" lon="1.1151">
        <ele>167</ele>
        <time>2018-02-25T09:43:55Z</time>
      </trkpt>
      <trkpt lat="48.99802" lon="1.11524">
        <ele>167</ele>
        <time>2018-02-25T09:43:57Z</time>
      </trkpt>
      <trkpt lat="48.998" lon="1.1154">
        <ele>166.899994</ele>
        <time>2018-02-25T09:44:00Z</time>
      </trkpt>
      <trkpt lat="48.99799" lon="1.11555">
        <ele>167.100006</ele>
        <time>2018-02-25T09:44:03Z</time>
      </trkpt>
      <trkpt lat="48.99799" lon="1.11574">
        <ele>167</ele>
        <time>2018-02-25T09:44:06Z</time>
      </trkpt>
      <trkpt lat="48.99798" lon="1.11591">
        <ele>166.899994</ele>
        <time>2018-02-25T09:44:09Z</time>
      </trkpt>
      <trkpt lat="48.9979" lon="1.11601">
        <ele>166.5</ele>
        <time>2018-02-25T09:44:13Z</time>
      </trkpt>
      <trkpt lat="48.99781" lon="1.11606">
        <ele>166.300003</ele>
        <time>2018-02-25T09:44:16Z</time>
      </trkpt>
      <trkpt lat="48.99772" lon="1.11611">
        <ele>166.199997</ele>
        <time>2018-02-25T09:44:19Z</time>
      </trkpt>
      <trkpt lat="48.99763" lon="1.11615">
        <ele>166.300003</ele>
        <time>2018-02-25T09:44:22Z</time>
      </trkpt>
      <trkpt lat="48.99753" lon="1.11623">
        <ele>165.699997</ele>
        <time>2018-02-25T09:44:26Z</time>
      </trkpt>
      <trkpt lat="48.99752" lon="1.11639">
        <ele>165.199997</ele>
        <time>2018-02-25T09:44:30Z</time>
      </trkpt>
      <trkpt lat="48.99754" lon="1.11654">
        <ele>164.800003</ele>
        <time>2018-02-25T09:44:33Z</time>
      </trkpt>
      <trkpt lat="48.99756" lon="1.11638">
        <ele>164.100006</ele>
        <time>2018-02-25T09:44:40Z</time>
      </trkpt>
      <trkpt lat="48.99761" lon="1.11625">
        <ele>164.800003</ele>
        <time>2018-02-25T09:44:45Z</time>
      </trkpt>
      <trkpt lat="48.9975" lon="1.11627">
        <ele>165.300003</ele>
        <time>2018-02-25T09:44:49Z</time>
      </trkpt>
      <trkpt lat="48.99742" lon="1.11616">
        <ele>165.100006</ele>
        <time>2018-02-25T09:44:53Z</time>
      </trkpt>
      <trkpt lat="48.9974" lon="1.11602">
        <ele>164.899994</ele>
        <time>2018-02-25T09:44:56Z</time>
      </trkpt>
      <trkpt lat="48.99732" lon="1.11591">
        <ele>164.800003</ele>
        <time>2018-02-25T09:45:00Z</time>
      </trkpt>
      <trkpt lat="48.99723" lon="1.11583">
        <ele>164.399994</ele>
        <time>2018-02-25T09:45:03Z</time>
      </trkpt>
      <trkpt lat="48.99713" lon="1.11574">
        <ele>164.199997</ele>
        <time>2018-02-25T09:45:07Z</time>
      </trkpt>
      <trkpt lat="48.99705" lon="1.11567">
        <ele>164.199997</ele>
        <time>2018-02-25T09:45:10Z</time>
      </trkpt>
      <trkpt lat="48.99696" lon="1.11557">
        <ele>164.199997</ele>
        <time>2018-02-25T09:45:14Z</time>
      </trkpt>
      <trkpt lat="48.99688" lon="1.11552">
        <ele>164.5</ele>
        <time>2018-02-25T09:45:17Z</time>
      </trkpt>
      <trkpt lat="48.99678" lon="1.11553">
        <ele>164.899994</ele>
        <time>2018-02-25T09:45:20Z</time>
      </trkpt>
      <trkpt lat="48.99667" lon="1.1156">
        <ele>165</ele>
        <time>2018-02-25T09:45:23Z</time>
      </trkpt>
      <trkpt lat="48.99655" lon="1.11566">
        <ele>165.399994</ele>
        <time>2018-02-25T09:45:26Z</time>
      </trkpt>
      <trkpt lat="48.99645" lon="1.11571">
        <ele>165.699997</ele>
        <time>2018-02-25T09:45:29Z</time>
      </trkpt>
      <trkpt lat="48.99635" lon="1.11577">
        <ele>166.199997</ele>
        <time>2018-02-25T09:45:32Z</time>
      </trkpt>
      <trkpt lat="48.99625" lon="1.11583">
        <ele>166.699997</ele>
        <time>2018-02-25T09:45:35Z</time>
      </trkpt>
      <trkpt lat="48.99616" lon="1.11589">
        <ele>167.100006</ele>
        <time>2018-02-25T09:45:38Z</time>
      </trkpt>
      <trkpt lat="48.99604" lon="1.11596">
        <ele>167.600006</ele>
        <time>2018-02-25T09:45:42Z</time>
      </trkpt>
      <trkpt lat="48.99593" lon="1.11603">
        <ele>167.800003</ele>
        <time>2018-02-25T09:45:45Z</time>
      </trkpt>
      <trkpt lat="48.99582" lon="1.11611">
        <ele>167.699997</ele>
        <time>2018-02-25T09:45:48Z</time>
      </trkpt>
      <trkpt lat="48.9957" lon="1.11618">
        <ele>167.800003</ele>
        <time>2018-02-25T09:45:51Z</time>
      </trkpt>
      <trkpt lat="48.99561" lon="1.11622">
        <ele>168</ele>
        <time>2018-02-25T09:45:54Z</time>
      </trkpt>
      <trkpt lat="48.99552" lon="1.11626">
        <ele>168.100006</ele>
        <time>2018-02-25T09:45:57Z</time>
      </trkpt>
      <trkpt lat="48.99542" lon="1.11634">
        <ele>167.899994</ele>
        <time>2018-02-25T09:46:00Z</time>
      </trkpt>
      <trkpt lat="48.99531" lon="1.11643">
        <ele>167.699997</ele>
        <time>2018-02-25T09:46:03Z</time>
      </trkpt>
      <trkpt lat="48.99521" lon="1.11652">
        <ele>167.699997</ele>
        <time>2018-02-25T09:46:06Z</time>
      </trkpt>
      <trkpt lat="48.99509" lon="1.11661">
        <ele>167.5</ele>
        <time>2018-02-25T09:46:09Z</time>
      </trkpt>
      <trkpt lat="48.99499" lon="1.11668">
        <ele>167.5</ele>
        <time>2018-02-25T09:46:12Z</time>
      </trkpt>
      <trkpt lat="48.9949" lon="1.11665">
        <ele>167.699997</ele>
        <time>2018-02-25T09:46:17Z</time>
      </trkpt>
      <trkpt lat="48.99494" lon="1.11648">
        <ele>167.399994</ele>
        <time>2018-02-25T09:46:22Z</time>
      </trkpt>
      <trkpt lat="48.99496" lon="1.11632">
        <ele>167.800003</ele>
        <time>2018-02-25T09:46:26Z</time>
      </trkpt>
      <trkpt lat="48.99499" lon="1.11619">
        <ele>168.100006</ele>
        <time>2018-02-25T09:46:30Z</time>
      </trkpt>
      <trkpt lat="48.99505" lon="1.11606">
        <ele>168.100006</ele>
        <time>2018-02-25T09:46:34Z</time>
      </trkpt>
      <trkpt lat="48.99513" lon="1.11594">
        <ele>168.5</ele>
        <time>2018-02-25T09:46:38Z</time>
      </trkpt>
      <trkpt lat="48.9952" lon="1.11582">
        <ele>168.699997</ele>
        <time>2018-02-25T09:46:43Z</time>
      </trkpt>
      <trkpt lat="48.99526" lon="1.11571">
        <ele>168.600006</ele>
        <time>2018-02-25T09:46:47Z</time>
      </trkpt>
      <trkpt lat="48.99536" lon="1.11557">
        <ele>168.699997</ele>
        <time>2018-02-25T09:46:52Z</time>
      </trkpt>
      <trkpt lat="48.99545" lon="1.11545">
        <ele>168.899994</ele>
        <time>2018-02-25T09:46:56Z</time>
      </trkpt>
      <trkpt lat="48.99552" lon="1.11534">
        <ele>169</ele>
        <time>2018-02-25T09:46:59Z</time>
      </trkpt>
      <trkpt lat="48.9956" lon="1.11523">
        <ele>169</ele>
        <time>2018-02-25T09:47:02Z</time>
      </trkpt>
      <trkpt lat="48.99564" lon="1.11509">
        <ele>168.800003</ele>
        <time>2018-02-25T09:47:06Z</time>
      </trkpt>
      <trkpt lat="48.99563" lon="1.11495">
        <ele>168.800003</ele>
        <time>2018-02-25T09:47:10Z</time>
      </trkpt>
      <trkpt lat="48.9956" lon="1.1148">
        <ele>168.600006</ele>
        <time>2018-02-25T09:47:14Z</time>
      </trkpt>
      <trkpt lat="48.9955" lon="1.11469">
        <ele>168.100006</ele>
        <time>2018-02-25T09:47:18Z</time>
      </trkpt>
      <trkpt lat="48.99543" lon="1.1146">
        <ele>167.699997</ele>
        <time>2018-02-25T09:47:21Z</time>
      </trkpt>
      <trkpt lat="48.99537" lon="1.1145">
        <ele>166.899994</ele>
        <time>2018-02-25T09:47:24Z</time>
      </trkpt>
      <trkpt lat="48.99528" lon="1.11442">
        <ele>165.600006</ele>
        <time>2018-02-25T09:47:27Z</time>
      </trkpt>
      <trkpt lat="48.99517" lon="1.11436">
        <ele>163.300003</ele>
        <time>2018-02-25T09:47:31Z</time>
      </trkpt>
      <trkpt lat="48.99508" lon="1.1143">
        <ele>161.600006</ele>
        <time>2018-02-25T09:47:34Z</time>
      </trkpt>
      <trkpt lat="48.99499" lon="1.11425">
        <ele>159.300003</ele>
        <time>2018-02-25T09:47:37Z</time>
      </trkpt>
      <trkpt lat="48.99488" lon="1.11421">
        <ele>157</ele>
        <time>2018-02-25T09:47:40Z</time>
      </trkpt>
      <trkpt lat="48.99478" lon="1.11416">
        <ele>154.199997</ele>
        <time>2018-02-25T09:47:43Z</time>
      </trkpt>
      <trkpt lat="48.99467" lon="1.11411">
        <ele>150.800003</ele>
        <time>2018-02-25T09:47:47Z</time>
      </trkpt>
      <trkpt lat="48.99457" lon="1.11406">
        <ele>148.100006</ele>
        <time>2018-02-25T09:47:50Z</time>
      </trkpt>
      <trkpt lat="48.99448" lon="1.11401">
        <ele>145.399994</ele>
        <time>2018-02-25T09:47:53Z</time>
      </trkpt>
      <trkpt lat="48.99436" lon="1.11398">
        <ele>142.699997</ele>
        <time>2018-02-25T09:47:56Z</time>
      </trkpt>
      <trkpt lat="48.99425" lon="1.11395">
        <ele>140.300003</ele>
        <time>2018-02-25T09:47:59Z</time>
      </trkpt>
      <trkpt lat="48.99414" lon="1.1139">
        <ele>137.199997</ele>
        <time>2018-02-25T09:48:03Z</time>
      </trkpt>
      <trkpt lat="48.99403" lon="1.11385">
        <ele>134</ele>
        <time>2018-02-25T09:48:07Z</time>
      </trkpt>
      <trkpt lat="48.99391" lon="1.1138">
        <ele>131.699997</ele>
        <time>2018-02-25T09:48:10Z</time>
      </trkpt>
      <trkpt lat="48.99377" lon="1.11378">
        <ele>129.100006</ele>
        <time>2018-02-25T09:48:13Z</time>
      </trkpt>
      <trkpt lat="48.99368" lon="1.11383">
        <ele>127.599998</ele>
        <time>2018-02-25T09:48:15Z</time>
      </trkpt>
      <trkpt lat="48.9936" lon="1.11392">
        <ele>125.599998</ele>
        <time>2018-02-25T09:48:19Z</time>
      </trkpt>
      <trkpt lat="48.99348" lon="1.11383">
        <ele>124.400002</ele>
        <time>2018-02-25T09:48:23Z</time>
      </trkpt>
      <trkpt lat="48.99342" lon="1.1137">
        <ele>123.400002</ele>
        <time>2018-02-25T09:48:25Z</time>
      </trkpt>
      <trkpt lat="48.99338" lon="1.11355">
        <ele>122.400002</ele>
        <time>2018-02-25T09:48:27Z</time>
      </trkpt>
      <trkpt lat="48.99334" lon="1.11341">
        <ele>121.599998</ele>
        <time>2018-02-25T09:48:29Z</time>
      </trkpt>
      <trkpt lat="48.9933" lon="1.11328">
        <ele>120.900002</ele>
        <time>2018-02-25T09:48:31Z</time>
      </trkpt>
      <trkpt lat="48.99325" lon="1.1131">
        <ele>120.400002</ele>
        <time>2018-02-25T09:48:34Z</time>
      </trkpt>
      <trkpt lat="48.99321" lon="1.11297">
        <ele>120.099998</ele>
        <time>2018-02-25T09:48:37Z</time>
      </trkpt>
      <trkpt lat="48.99316" lon="1.11285">
        <ele>120.699997</ele>
        <time>2018-02-25T09:48:41Z</time>
      </trkpt>
      <trkpt lat="48.99312" lon="1.11271">
        <ele>121.900002</ele>
        <time>2018-02-25T09:48:46Z</time>
      </trkpt>
      <trkpt lat="48.99308" lon="1.11257">
        <ele>123.699997</ele>
        <time>2018-02-25T09:48:52Z</time>
      </trkpt>
      <trkpt lat="48.99302" lon="1.11244">
        <ele>126.300003</ele>
        <time>2018-02-25T09:48:58Z</time>
      </trkpt>
      <trkpt lat="48.99298" lon="1.11231">
        <ele>128.199997</ele>
        <time>2018-02-25T09:49:04Z</time>
      </trkpt>
      <trkpt lat="48.99292" lon="1.11217">
        <ele>130</ele>
        <time>2018-02-25T09:49:10Z</time>
      </trkpt>
      <trkpt lat="48.99287" lon="1.11205">
        <ele>131.100006</ele>
        <time>2018-02-25T09:49:15Z</time>
      </trkpt>
      <trkpt lat="48.99283" lon="1.11191">
        <ele>132.199997</ele>
        <time>2018-02-25T09:49:20Z</time>
      </trkpt>
      <trkpt lat="48.99278" lon="1.11178">
        <ele>132.899994</ele>
        <time>2018-02-25T09:49:25Z</time>
      </trkpt>
      <trkpt lat="48.99273" lon="1.11164">
        <ele>134</ele>
        <time>2018-02-25T09:49:30Z</time>
      </trkpt>
      <trkpt lat="48.99268" lon="1.1115">
        <ele>134.800003</ele>
        <time>2018-02-25T09:49:35Z</time>
      </trkpt>
      <trkpt lat="48.99262" lon="1.11136">
        <ele>135.5</ele>
        <time>2018-02-25T09:49:40Z</time>
      </trkpt>
      <trkpt lat="48.99256" lon="1.11123">
        <ele>135.800003</ele>
        <time>2018-02-25T09:49:44Z</time>
      </trkpt>
      <trkpt lat="48.99251" lon="1.11109">
        <ele>135.899994</ele>
        <time>2018-02-25T09:49:48Z</time>
      </trkpt>
      <trkpt lat="48.99246" lon="1.11096">
        <ele>136.600006</ele>
        <time>2018-02-25T09:49:52Z</time>
      </trkpt>
      <trkpt lat="48.9924" lon="1.11082">
        <ele>137.399994</ele>
        <time>2018-02-25T09:49:56Z</time>
      </trkpt>
      <trkpt lat="48.99234" lon="1.11069">
        <ele>138</ele>
        <time>2018-02-25T09:50:00Z</time>
      </trkpt>
      <trkpt lat="48.99229" lon="1.11055">
        <ele>139.100006</ele>
        <time>2018-02-25T09:50:04Z</time>
      </trkpt>
      <trkpt lat="48.99223" lon="1.11041">
        <ele>140</ele>
        <time>2018-02-25T09:50:08Z</time>
      </trkpt>
      <trkpt lat="48.99218" lon="1.11026">
        <ele>140.800003</ele>
        <time>2018-02-25T09:50:12Z</time>
      </trkpt>
      <trkpt lat="48.99212" lon="1.11011">
        <ele>141.5</ele>
        <time>2018-02-25T09:50:16Z</time>
      </trkpt>
      <trkpt lat="48.99206" lon="1.10996">
        <ele>142.199997</ele>
        <time>2018-02-25T09:50:20Z</time>
      </trkpt>
      <trkpt lat="48.992" lon="1.1098">
        <ele>142.699997</ele>
        <time>2018-02-25T09:50:24Z</time>
      </trkpt>
      <trkpt lat="48.99194" lon="1.10965">
        <ele>143.399994</ele>
        <time>2018-02-25T09:50:28Z</time>
      </trkpt>
      <trkpt lat="48.99188" lon="1.1095">
        <ele>144.399994</ele>
        <time>2018-02-25T09:50:32Z</time>
      </trkpt>
      <trkpt lat="48.99183" lon="1.10938">
        <ele>145</ele>
        <time>2018-02-25T09:50:35Z</time>
      </trkpt>
      <trkpt lat="48.99178" lon="1.10926">
        <ele>145.699997</ele>
        <time>2018-02-25T09:50:38Z</time>
      </trkpt>
      <trkpt lat="48.99173" lon="1.10914">
        <ele>146.300003</ele>
        <time>2018-02-25T09:50:41Z</time>
      </trkpt>
      <trkpt lat="48.99169" lon="1.10901">
        <ele>147.300003</ele>
        <time>2018-02-25T09:50:44Z</time>
      </trkpt>
      <trkpt lat="48.99164" lon="1.10888">
        <ele>148</ele>
        <time>2018-02-25T09:50:47Z</time>
      </trkpt>
      <trkpt lat="48.99159" lon="1.10875">
        <ele>148.600006</ele>
        <time>2018-02-25T09:50:50Z</time>
      </trkpt>
      <trkpt lat="48.99154" lon="1.10863">
        <ele>149</ele>
        <time>2018-02-25T09:50:53Z</time>
      </trkpt>
      <trkpt lat="48.9915" lon="1.10851">
        <ele>149.5</ele>
        <time>2018-02-25T09:50:56Z</time>
      </trkpt>
      <trkpt lat="48.99145" lon="1.10839">
        <ele>150.100006</ele>
        <time>2018-02-25T09:50:59Z</time>
      </trkpt>
      <trkpt lat="48.9914" lon="1.10823">
        <ele>150.800003</ele>
        <time>2018-02-25T09:51:03Z</time>
      </trkpt>
      <trkpt lat="48.99131" lon="1.10823">
        <ele>152.199997</ele>
        <time>2018-02-25T09:51:10Z</time>
      </trkpt>
      <trkpt lat="48.99121" lon="1.10823">
        <ele>152.699997</ele>
        <time>2018-02-25T09:51:16Z</time>
      </trkpt>
      <trkpt lat="48.99113" lon="1.10833">
        <ele>153.100006</ele>
        <time>2018-02-25T09:51:22Z</time>
      </trkpt>
      <trkpt lat="48.99124" lon="1.10833">
        <ele>152.800003</ele>
        <time>2018-02-25T09:51:29Z</time>
      </trkpt>
      <trkpt lat="48.99132" lon="1.10825">
        <ele>152.600006</ele>
        <time>2018-02-25T09:51:33Z</time>
      </trkpt>
      <trkpt lat="48.99123" lon="1.1083">
        <ele>153.100006</ele>
        <time>2018-02-25T09:52:12Z</time>
      </trkpt>
      <trkpt lat="48.99115" lon="1.10837">
        <ele>153.199997</ele>
        <time>2018-02-25T09:52:16Z</time>
      </trkpt>
      <trkpt lat="48.99107" lon="1.10846">
        <ele>153.600006</ele>
        <time>2018-02-25T09:52:20Z</time>
      </trkpt>
      <trkpt lat="48.99097" lon="1.10855">
        <ele>153.899994</ele>
        <time>2018-02-25T09:52:24Z</time>
      </trkpt>
      <trkpt lat="48.99087" lon="1.10863">
        <ele>154.199997</ele>
        <time>2018-02-25T09:52:28Z</time>
      </trkpt>
      <trkpt lat="48.99077" lon="1.10874">
        <ele>154.699997</ele>
        <time>2018-02-25T09:52:32Z</time>
      </trkpt>
      <trkpt lat="48.99069" lon="1.10882">
        <ele>154.899994</ele>
        <time>2018-02-25T09:52:35Z</time>
      </trkpt>
      <trkpt lat="48.9906" lon="1.10889">
        <ele>155.399994</ele>
        <time>2018-02-25T09:52:38Z</time>
      </trkpt>
      <trkpt lat="48.99053" lon="1.10896">
        <ele>155.899994</ele>
        <time>2018-02-25T09:52:41Z</time>
      </trkpt>
      <trkpt lat="48.99045" lon="1.10903">
        <ele>156.300003</ele>
        <time>2018-02-25T09:52:44Z</time>
      </trkpt>
      <trkpt lat="48.99035" lon="1.10909">
        <ele>156.399994</ele>
        <time>2018-02-25T09:52:47Z</time>
      </trkpt>
      <trkpt lat="48.99026" lon="1.10915">
        <ele>156.600006</ele>
        <time>2018-02-25T09:52:50Z</time>
      </trkpt>
      <trkpt lat="48.99016" lon="1.10921">
        <ele>157.100006</ele>
        <time>2018-02-25T09:52:53Z</time>
      </trkpt>
      <trkpt lat="48.99007" lon="1.10925">
        <ele>157.699997</ele>
        <time>2018-02-25T09:52:56Z</time>
      </trkpt>
      <trkpt lat="48.98998" lon="1.1093">
        <ele>157.800003</ele>
        <time>2018-02-25T09:52:59Z</time>
      </trkpt>
      <trkpt lat="48.98988" lon="1.10934">
        <ele>158.100006</ele>
        <time>2018-02-25T09:53:02Z</time>
      </trkpt>
      <trkpt lat="48.98978" lon="1.1094">
        <ele>158.600006</ele>
        <time>2018-02-25T09:53:05Z</time>
      </trkpt>
      <trkpt lat="48.9897" lon="1.10946">
        <ele>159.199997</ele>
        <time>2018-02-25T09:53:08Z</time>
      </trkpt>
      <trkpt lat="48.98959" lon="1.10953">
        <ele>159.600006</ele>
        <time>2018-02-25T09:53:12Z</time>
      </trkpt>
      <trkpt lat="48.98949" lon="1.10959">
        <ele>160.300003</ele>
        <time>2018-02-25T09:53:16Z</time>
      </trkpt>
      <trkpt lat="48.98938" lon="1.10965">
        <ele>161.199997</ele>
        <time>2018-02-25T09:53:20Z</time>
      </trkpt>
      <trkpt lat="48.98928" lon="1.1097">
        <ele>162.300003</ele>
        <time>2018-02-25T09:53:24Z</time>
      </trkpt>
      <trkpt lat="48.98917" lon="1.10972">
        <ele>163.5</ele>
        <time>2018-02-25T09:53:28Z</time>
      </trkpt>
      <trkpt lat="48.98905" lon="1.10972">
        <ele>164.300003</ele>
        <time>2018-02-25T09:53:32Z</time>
      </trkpt>
      <trkpt lat="48.98895" lon="1.10973">
        <ele>165</ele>
        <time>2018-02-25T09:53:36Z</time>
      </trkpt>
      <trkpt lat="48.98885" lon="1.10973">
        <ele>166.100006</ele>
        <time>2018-02-25T09:53:40Z</time>
      </trkpt>
      <trkpt lat="48.98874" lon="1.10975">
        <ele>166.800003</ele>
        <time>2018-02-25T09:53:44Z</time>
      </trkpt>
      <trkpt lat="48.98863" lon="1.10977">
        <ele>167.5</ele>
        <time>2018-02-25T09:53:48Z</time>
      </trkpt>
      <trkpt lat="48.98851" lon="1.10979">
        <ele>167.899994</ele>
        <time>2018-02-25T09:53:52Z</time>
      </trkpt>
      <trkpt lat="48.9884" lon="1.10981">
        <ele>168.100006</ele>
        <time>2018-02-25T09:53:56Z</time>
      </trkpt>
      <trkpt lat="48.98829" lon="1.10983">
        <ele>168.399994</ele>
        <time>2018-02-25T09:54:00Z</time>
      </trkpt>
      <trkpt lat="48.9882" lon="1.10984">
        <ele>168.899994</ele>
        <time>2018-02-25T09:54:03Z</time>
      </trkpt>
      <trkpt lat="48.98811" lon="1.10986">
        <ele>169.300003</ele>
        <time>2018-02-25T09:54:06Z</time>
      </trkpt>
      <trkpt lat="48.98799" lon="1.10989">
        <ele>169.800003</ele>
        <time>2018-02-25T09:54:10Z</time>
      </trkpt>
      <trkpt lat="48.98789" lon="1.10991">
        <ele>170.100006</ele>
        <time>2018-02-25T09:54:13Z</time>
      </trkpt>
      <trkpt lat="48.9878" lon="1.10992">
        <ele>170.300003</ele>
        <time>2018-02-25T09:54:16Z</time>
      </trkpt>
      <trkpt lat="48.9877" lon="1.10994">
        <ele>170.5</ele>
        <time>2018-02-25T09:54:19Z</time>
      </trkpt>
      <trkpt lat="48.98761" lon="1.10996">
        <ele>170.800003</ele>
        <time>2018-02-25T09:54:22Z</time>
      </trkpt>
      <trkpt lat="48.98751" lon="1.10998">
        <ele>171.300003</ele>
        <time>2018-02-25T09:54:25Z</time>
      </trkpt>
      <trkpt lat="48.98741" lon="1.11001">
        <ele>171.600006</ele>
        <time>2018-02-25T09:54:28Z</time>
      </trkpt>
      <trkpt lat="48.98731" lon="1.11003">
        <ele>171.899994</ele>
        <time>2018-02-25T09:54:31Z</time>
      </trkpt>
      <trkpt lat="48.98721" lon="1.11005">
        <ele>172.300003</ele>
        <time>2018-02-25T09:54:34Z</time>
      </trkpt>
      <trkpt lat="48.98711" lon="1.11008">
        <ele>172.699997</ele>
        <time>2018-02-25T09:54:37Z</time>
      </trkpt>
      <trkpt lat="48.98702" lon="1.1101">
        <ele>173</ele>
        <time>2018-02-25T09:54:40Z</time>
      </trkpt>
      <trkpt lat="48.98692" lon="1.11013">
        <ele>173.100006</ele>
        <time>2018-02-25T09:54:43Z</time>
      </trkpt>
      <trkpt lat="48.98683" lon="1.11016">
        <ele>173.300003</ele>
        <time>2018-02-25T09:54:46Z</time>
      </trkpt>
      <trkpt lat="48.98674" lon="1.11021">
        <ele>173.600006</ele>
        <time>2018-02-25T09:54:49Z</time>
      </trkpt>
      <trkpt lat="48.98665" lon="1.11026">
        <ele>173.899994</ele>
        <time>2018-02-25T09:54:52Z</time>
      </trkpt>
      <trkpt lat="48.98656" lon="1.11034">
        <ele>174.5</ele>
        <time>2018-02-25T09:54:55Z</time>
      </trkpt>
      <trkpt lat="48.98647" lon="1.11043">
        <ele>175.100006</ele>
        <time>2018-02-25T09:54:58Z</time>
      </trkpt>
      <trkpt lat="48.98638" lon="1.11052">
        <ele>175.699997</ele>
        <time>2018-02-25T09:55:01Z</time>
      </trkpt>
      <trkpt lat="48.98627" lon="1.11062">
        <ele>175.699997</ele>
        <time>2018-02-25T09:55:04Z</time>
      </trkpt>
      <trkpt lat="48.98618" lon="1.11072">
        <ele>175.899994</ele>
        <time>2018-02-25T09:55:07Z</time>
      </trkpt>
      <trkpt lat="48.98609" lon="1.11082">
        <ele>176</ele>
        <time>2018-02-25T09:55:10Z</time>
      </trkpt>
      <trkpt lat="48.98599" lon="1.11092">
        <ele>176.300003</ele>
        <time>2018-02-25T09:55:13Z</time>
      </trkpt>
      <trkpt lat="48.9859" lon="1.11101">
        <ele>176.699997</ele>
        <time>2018-02-25T09:55:16Z</time>
      </trkpt>
      <trkpt lat="48.98581" lon="1.1111">
        <ele>177.199997</ele>
        <time>2018-02-25T09:55:19Z</time>
      </trkpt>
      <trkpt lat="48.98573" lon="1.11118">
        <ele>177.5</ele>
        <time>2018-02-25T09:55:22Z</time>
      </trkpt>
      <trkpt lat="48.98565" lon="1.11127">
        <ele>177.800003</ele>
        <time>2018-02-25T09:55:25Z</time>
      </trkpt>
      <trkpt lat="48.98556" lon="1.11136">
        <ele>178.199997</ele>
        <time>2018-02-25T09:55:28Z</time>
      </trkpt>
      <trkpt lat="48.98547" lon="1.11145">
        <ele>178.800003</ele>
        <time>2018-02-25T09:55:31Z</time>
      </trkpt>
      <trkpt lat="48.98538" lon="1.11154">
        <ele>179</ele>
        <time>2018-02-25T09:55:34Z</time>
      </trkpt>
      <trkpt lat="48.9853" lon="1.11162">
        <ele>179.199997</ele>
        <time>2018-02-25T09:55:37Z</time>
      </trkpt>
      <trkpt lat="48.98521" lon="1.11171">
        <ele>179.399994</ele>
        <time>2018-02-25T09:55:40Z</time>
      </trkpt>
      <trkpt lat="48.98513" lon="1.11179">
        <ele>179.600006</ele>
        <time>2018-02-25T09:55:43Z</time>
      </trkpt>
      <trkpt lat="48.98504" lon="1.11188">
        <ele>179.899994</ele>
        <time>2018-02-25T09:55:46Z</time>
      </trkpt>
      <trkpt lat="48.98496" lon="1.11196">
        <ele>180.300003</ele>
        <time>2018-02-25T09:55:49Z</time>
      </trkpt>
      <trkpt lat="48.98487" lon="1.11205">
        <ele>180.300003</ele>
        <time>2018-02-25T09:55:52Z</time>
      </trkpt>
      <trkpt lat="48.98479" lon="1.11214">
        <ele>180.800003</ele>
        <time>2018-02-25T09:55:55Z</time>
      </trkpt>
      <trkpt lat="48.9847" lon="1.11222">
        <ele>181.100006</ele>
        <time>2018-02-25T09:55:58Z</time>
      </trkpt>
      <trkpt lat="48.98462" lon="1.1123">
        <ele>181.199997</ele>
        <time>2018-02-25T09:56:01Z</time>
      </trkpt>
      <trkpt lat="48.98453" lon="1.11239">
        <ele>181.399994</ele>
        <time>2018-02-25T09:56:04Z</time>
      </trkpt>
      <trkpt lat="48.98444" lon="1.11248">
        <ele>181.899994</ele>
        <time>2018-02-25T09:56:07Z</time>
      </trkpt>
      <trkpt lat="48.98436" lon="1.11257">
        <ele>182.199997</ele>
        <time>2018-02-25T09:56:10Z</time>
      </trkpt>
      <trkpt lat="48.98428" lon="1.11265">
        <ele>182.300003</ele>
        <time>2018-02-25T09:56:13Z</time>
      </trkpt>
      <trkpt lat="48.98419" lon="1.11274">
        <ele>183</ele>
        <time>2018-02-25T09:56:16Z</time>
      </trkpt>
      <trkpt lat="48.98411" lon="1.11283">
        <ele>183</ele>
        <time>2018-02-25T09:56:19Z</time>
      </trkpt>
      <trkpt lat="48.98402" lon="1.11291">
        <ele>182.899994</ele>
        <time>2018-02-25T09:56:22Z</time>
      </trkpt>
      <trkpt lat="48.98393" lon="1.113">
        <ele>183.5</ele>
        <time>2018-02-25T09:56:25Z</time>
      </trkpt>
      <trkpt lat="48.98383" lon="1.11309">
        <ele>184.100006</ele>
        <time>2018-02-25T09:56:28Z</time>
      </trkpt>
      <trkpt lat="48.98375" lon="1.11319">
        <ele>184.399994</ele>
        <time>2018-02-25T09:56:31Z</time>
      </trkpt>
      <trkpt lat="48.98367" lon="1.11327">
        <ele>184.5</ele>
        <time>2018-02-25T09:56:34Z</time>
      </trkpt>
      <trkpt lat="48.98358" lon="1.11334">
        <ele>184.699997</ele>
        <time>2018-02-25T09:56:37Z</time>
      </trkpt>
      <trkpt lat="48.9835" lon="1.11343">
        <ele>184.699997</ele>
        <time>2018-02-25T09:56:40Z</time>
      </trkpt>
      <trkpt lat="48.98341" lon="1.1135">
        <ele>184.699997</ele>
        <time>2018-02-25T09:56:43Z</time>
      </trkpt>
      <trkpt lat="48.98333" lon="1.11359">
        <ele>184.600006</ele>
        <time>2018-02-25T09:56:46Z</time>
      </trkpt>
      <trkpt lat="48.98325" lon="1.11368">
        <ele>184.5</ele>
        <time>2018-02-25T09:56:49Z</time>
      </trkpt>
      <trkpt lat="48.98316" lon="1.11377">
        <ele>184.699997</ele>
        <time>2018-02-25T09:56:52Z</time>
      </trkpt>
      <trkpt lat="48.98304" lon="1.11387">
        <ele>184.699997</ele>
        <time>2018-02-25T09:56:55Z</time>
      </trkpt>
      <trkpt lat="48.98294" lon="1.11396">
        <ele>184.600006</ele>
        <time>2018-02-25T09:56:58Z</time>
      </trkpt>
      <trkpt lat="48.98283" lon="1.11406">
        <ele>184.699997</ele>
        <time>2018-02-25T09:57:01Z</time>
      </trkpt>
      <trkpt lat="48.98275" lon="1.11399">
        <ele>184.800003</ele>
        <time>2018-02-25T09:57:06Z</time>
      </trkpt>
      <trkpt lat="48.98278" lon="1.11385">
        <ele>184.699997</ele>
        <time>2018-02-25T09:57:09Z</time>
      </trkpt>
      <trkpt lat="48.98277" lon="1.11371">
        <ele>184.600006</ele>
        <time>2018-02-25T09:57:12Z</time>
      </trkpt>
      <trkpt lat="48.98275" lon="1.11358">
        <ele>184.600006</ele>
        <time>2018-02-25T09:57:15Z</time>
      </trkpt>
      <trkpt lat="48.98266" lon="1.11348">
        <ele>184.5</ele>
        <time>2018-02-25T09:57:19Z</time>
      </trkpt>
      <trkpt lat="48.98255" lon="1.11343">
        <ele>184.5</ele>
        <time>2018-02-25T09:57:23Z</time>
      </trkpt>
      <trkpt lat="48.98246" lon="1.11338">
        <ele>184.600006</ele>
        <time>2018-02-25T09:57:26Z</time>
      </trkpt>
      <trkpt lat="48.98237" lon="1.11329">
        <ele>184.800003</ele>
        <time>2018-02-25T09:57:29Z</time>
      </trkpt>
      <trkpt lat="48.98226" lon="1.11318">
        <ele>184.800003</ele>
        <time>2018-02-25T09:57:32Z</time>
      </trkpt>
      <trkpt lat="48.98216" lon="1.11308">
        <ele>184.800003</ele>
        <time>2018-02-25T09:57:35Z</time>
      </trkpt>
      <trkpt lat="48.98206" lon="1.11296">
        <ele>184.800003</ele>
        <time>2018-02-25T09:57:38Z</time>
      </trkpt>
      <trkpt lat="48.98198" lon="1.11285">
        <ele>184.699997</ele>
        <time>2018-02-25T09:57:41Z</time>
      </trkpt>
      <trkpt lat="48.9819" lon="1.11274">
        <ele>184.600006</ele>
        <time>2018-02-25T09:57:44Z</time>
      </trkpt>
      <trkpt lat="48.98181" lon="1.11267">
        <ele>184.600006</ele>
        <time>2018-02-25T09:57:47Z</time>
      </trkpt>
      <trkpt lat="48.98169" lon="1.11261">
        <ele>184.600006</ele>
        <time>2018-02-25T09:57:50Z</time>
      </trkpt>
      <trkpt lat="48.98161" lon="1.11256">
        <ele>184.5</ele>
        <time>2018-02-25T09:57:53Z</time>
      </trkpt>
      <trkpt lat="48.9815" lon="1.11251">
        <ele>184.5</ele>
        <time>2018-02-25T09:57:56Z</time>
      </trkpt>
      <trkpt lat="48.98138" lon="1.11244">
        <ele>184.300003</ele>
        <time>2018-02-25T09:57:59Z</time>
      </trkpt>
      <trkpt lat="48.9813" lon="1.11232">
        <ele>183.800003</ele>
        <time>2018-02-25T09:58:02Z</time>
      </trkpt>
      <trkpt lat="48.98122" lon="1.11219">
        <ele>183.800003</ele>
        <time>2018-02-25T09:58:05Z</time>
      </trkpt>
      <trkpt lat="48.98113" lon="1.11208">
        <ele>183.5</ele>
        <time>2018-02-25T09:58:08Z</time>
      </trkpt>
      <trkpt lat="48.98104" lon="1.11201">
        <ele>183.5</ele>
        <time>2018-02-25T09:58:10Z</time>
      </trkpt>
      <trkpt lat="48.98095" lon="1.11194">
        <ele>183.300003</ele>
        <time>2018-02-25T09:58:12Z</time>
      </trkpt>
      <trkpt lat="48.98086" lon="1.11185">
        <ele>182.899994</ele>
        <time>2018-02-25T09:58:14Z</time>
      </trkpt>
      <trkpt lat="48.98078" lon="1.11177">
        <ele>182.600006</ele>
        <time>2018-02-25T09:58:16Z</time>
      </trkpt>
      <trkpt lat="48.98069" lon="1.11166">
        <ele>182.300003</ele>
        <time>2018-02-25T09:58:19Z</time>
      </trkpt>
      <trkpt lat="48.98061" lon="1.11154">
        <ele>182.199997</ele>
        <time>2018-02-25T09:58:22Z</time>
      </trkpt>
      <trkpt lat="48.98051" lon="1.1114">
        <ele>181.800003</ele>
        <time>2018-02-25T09:58:25Z</time>
      </trkpt>
      <trkpt lat="48.98044" lon="1.11129">
        <ele>181.5</ele>
        <time>2018-02-25T09:58:27Z</time>
      </trkpt>
      <trkpt lat="48.98038" lon="1.11117">
        <ele>181.300003</ele>
        <time>2018-02-25T09:58:29Z</time>
      </trkpt>
      <trkpt lat="48.98033" lon="1.11106">
        <ele>181</ele>
        <time>2018-02-25T09:58:31Z</time>
      </trkpt>
      <trkpt lat="48.98023" lon="1.11093">
        <ele>180.699997</ele>
        <time>2018-02-25T09:58:34Z</time>
      </trkpt>
      <trkpt lat="48.98016" lon="1.11079">
        <ele>180.5</ele>
        <time>2018-02-25T09:58:37Z</time>
      </trkpt>
      <trkpt lat="48.98007" lon="1.11065">
        <ele>180.5</ele>
        <time>2018-02-25T09:58:40Z</time>
      </trkpt>
      <trkpt lat="48.97998" lon="1.11059">
        <ele>180.300003</ele>
        <time>2018-02-25T09:58:42Z</time>
      </trkpt>
      <trkpt lat="48.97989" lon="1.11053">
        <ele>180.199997</ele>
        <time>2018-02-25T09:58:44Z</time>
      </trkpt>
      <trkpt lat="48.97979" lon="1.11056">
        <ele>179.800003</ele>
        <time>2018-02-25T09:58:48Z</time>
      </trkpt>
      <trkpt lat="48.97978" lon="1.11074">
        <ele>179.5</ele>
        <time>2018-02-25T09:58:53Z</time>
      </trkpt>
      <trkpt lat="48.9798" lon="1.11088">
        <ele>179.399994</ele>
        <time>2018-02-25T09:58:56Z</time>
      </trkpt>
      <trkpt lat="48.97977" lon="1.11105">
        <ele>179.699997</ele>
        <time>2018-02-25T09:58:59Z</time>
      </trkpt>
      <trkpt lat="48.97974" lon="1.11119">
        <ele>179.699997</ele>
        <time>2018-02-25T09:59:03Z</time>
      </trkpt>
      <trkpt lat="48.97974" lon="1.11137">
        <ele>179.699997</ele>
        <time>2018-02-25T09:59:07Z</time>
      </trkpt>
      <trkpt lat="48.97969" lon="1.11151">
        <ele>179.5</ele>
        <time>2018-02-25T09:59:10Z</time>
      </trkpt>
      <trkpt lat="48.97962" lon="1.11161">
        <ele>179.399994</ele>
        <time>2018-02-25T09:59:13Z</time>
      </trkpt>
      <trkpt lat="48.9795" lon="1.11164">
        <ele>179.199997</ele>
        <time>2018-02-25T09:59:17Z</time>
      </trkpt>
      <trkpt lat="48.97938" lon="1.11167">
        <ele>178.5</ele>
        <time>2018-02-25T09:59:20Z</time>
      </trkpt>
      <trkpt lat="48.9793" lon="1.11171">
        <ele>178.399994</ele>
        <time>2018-02-25T09:59:22Z</time>
      </trkpt>
      <trkpt lat="48.97918" lon="1.11177">
        <ele>178.100006</ele>
        <time>2018-02-25T09:59:25Z</time>
      </trkpt>
      <trkpt lat="48.97907" lon="1.11179">
        <ele>177.699997</ele>
        <time>2018-02-25T09:59:27Z</time>
      </trkpt>
      <trkpt lat="48.97896" lon="1.11183">
        <ele>177.399994</ele>
        <time>2018-02-25T09:59:29Z</time>
      </trkpt>
      <trkpt lat="48.97886" lon="1.1119">
        <ele>176.899994</ele>
        <time>2018-02-25T09:59:31Z</time>
      </trkpt>
      <trkpt lat="48.97877" lon="1.11196">
        <ele>176.800003</ele>
        <time>2018-02-25T09:59:33Z</time>
      </trkpt>
      <trkpt lat="48.97868" lon="1.11209">
        <ele>175.899994</ele>
        <time>2018-02-25T09:59:36Z</time>
      </trkpt>
      <trkpt lat="48.97866" lon="1.11225">
        <ele>175.399994</ele>
        <time>2018-02-25T09:59:39Z</time>
      </trkpt>
      <trkpt lat="48.97866" lon="1.1124">
        <ele>175.300003</ele>
        <time>2018-02-25T09:59:42Z</time>
      </trkpt>
      <trkpt lat="48.97868" lon="1.11255">
        <ele>175.199997</ele>
        <time>2018-02-25T09:59:45Z</time>
      </trkpt>
      <trkpt lat="48.97873" lon="1.11271">
        <ele>174.899994</ele>
        <time>2018-02-25T09:59:49Z</time>
      </trkpt>
      <trkpt lat="48.97879" lon="1.11282">
        <ele>174.899994</ele>
        <time>2018-02-25T09:59:52Z</time>
      </trkpt>
      <trkpt lat="48.97882" lon="1.11297">
        <ele>174.899994</ele>
        <time>2018-02-25T09:59:55Z</time>
      </trkpt>
      <trkpt lat="48.97885" lon="1.11314">
        <ele>174.800003</ele>
        <time>2018-02-25T09:59:59Z</time>
      </trkpt>
      <trkpt lat="48.97886" lon="1.1133">
        <ele>174.699997</ele>
        <time>2018-02-25T10:00:02Z</time>
      </trkpt>
      <trkpt lat="48.97887" lon="1.11347">
        <ele>174.5</ele>
        <time>2018-02-25T10:00:05Z</time>
      </trkpt>
      <trkpt lat="48.9789" lon="1.11363">
        <ele>174.199997</ele>
        <time>2018-02-25T10:00:08Z</time>
      </trkpt>
      <trkpt lat="48.97896" lon="1.1138">
        <ele>173.600006</ele>
        <time>2018-02-25T10:00:11Z</time>
      </trkpt>
      <trkpt lat="48.97899" lon="1.11397">
        <ele>173.300003</ele>
        <time>2018-02-25T10:00:14Z</time>
      </trkpt>
      <trkpt lat="48.97902" lon="1.11413">
        <ele>172.899994</ele>
        <time>2018-02-25T10:00:17Z</time>
      </trkpt>
      <trkpt lat="48.97909" lon="1.11427">
        <ele>172.800003</ele>
        <time>2018-02-25T10:00:20Z</time>
      </trkpt>
      <trkpt lat="48.97916" lon="1.11444">
        <ele>172.600006</ele>
        <time>2018-02-25T10:00:23Z</time>
      </trkpt>
      <trkpt lat="48.97923" lon="1.11461">
        <ele>172.5</ele>
        <time>2018-02-25T10:00:26Z</time>
      </trkpt>
      <trkpt lat="48.97927" lon="1.11477">
        <ele>172.300003</ele>
        <time>2018-02-25T10:00:29Z</time>
      </trkpt>
      <trkpt lat="48.97931" lon="1.11491">
        <ele>172.300003</ele>
        <time>2018-02-25T10:00:32Z</time>
      </trkpt>
      <trkpt lat="48.97933" lon="1.11505">
        <ele>172.399994</ele>
        <time>2018-02-25T10:00:35Z</time>
      </trkpt>
      <trkpt lat="48.97939" lon="1.11519">
        <ele>172.300003</ele>
        <time>2018-02-25T10:00:38Z</time>
      </trkpt>
      <trkpt lat="48.97945" lon="1.1153">
        <ele>172.300003</ele>
        <time>2018-02-25T10:00:41Z</time>
      </trkpt>
      <trkpt lat="48.97948" lon="1.11543">
        <ele>172.199997</ele>
        <time>2018-02-25T10:00:44Z</time>
      </trkpt>
      <trkpt lat="48.97953" lon="1.11557">
        <ele>172.399994</ele>
        <time>2018-02-25T10:00:47Z</time>
      </trkpt>
      <trkpt lat="48.97958" lon="1.11573">
        <ele>172.5</ele>
        <time>2018-02-25T10:00:50Z</time>
      </trkpt>
      <trkpt lat="48.97961" lon="1.11588">
        <ele>172.5</ele>
        <time>2018-02-25T10:00:53Z</time>
      </trkpt>
      <trkpt lat="48.97961" lon="1.11602">
        <ele>172.300003</ele>
        <time>2018-02-25T10:00:56Z</time>
      </trkpt>
      <trkpt lat="48.97963" lon="1.11616">
        <ele>172.300003</ele>
        <time>2018-02-25T10:00:59Z</time>
      </trkpt>
      <trkpt lat="48.97967" lon="1.1163">
        <ele>172.199997</ele>
        <time>2018-02-25T10:01:02Z</time>
      </trkpt>
      <trkpt lat="48.97971" lon="1.11645">
        <ele>172.100006</ele>
        <time>2018-02-25T10:01:06Z</time>
      </trkpt>
      <trkpt lat="48.97975" lon="1.1166">
        <ele>172</ele>
        <time>2018-02-25T10:01:10Z</time>
      </trkpt>
      <trkpt lat="48.97981" lon="1.11673">
        <ele>171.699997</ele>
        <time>2018-02-25T10:01:14Z</time>
      </trkpt>
      <trkpt lat="48.97987" lon="1.11684">
        <ele>171.600006</ele>
        <time>2018-02-25T10:01:18Z</time>
      </trkpt>
      <trkpt lat="48.97994" lon="1.11698">
        <ele>171.699997</ele>
        <time>2018-02-25T10:01:23Z</time>
      </trkpt>
      <trkpt lat="48.98002" lon="1.11707">
        <ele>171.699997</ele>
        <time>2018-02-25T10:01:27Z</time>
      </trkpt>
      <trkpt lat="48.9801" lon="1.11714">
        <ele>171.699997</ele>
        <time>2018-02-25T10:01:30Z</time>
      </trkpt>
      <trkpt lat="48.98021" lon="1.11721">
        <ele>171.699997</ele>
        <time>2018-02-25T10:01:35Z</time>
      </trkpt>
      <trkpt lat="48.98032" lon="1.11726">
        <ele>172.300003</ele>
        <time>2018-02-25T10:01:39Z</time>
      </trkpt>
      <trkpt lat="48.98041" lon="1.11733">
        <ele>172.899994</ele>
        <time>2018-02-25T10:01:43Z</time>
      </trkpt>
      <trkpt lat="48.98051" lon="1.11737">
        <ele>173.399994</ele>
        <time>2018-02-25T10:01:48Z</time>
      </trkpt>
      <trkpt lat="48.98062" lon="1.11735">
        <ele>173.600006</ele>
        <time>2018-02-25T10:01:52Z</time>
      </trkpt>
      <trkpt lat="48.98071" lon="1.11732">
        <ele>174.100006</ele>
        <time>2018-02-25T10:01:56Z</time>
      </trkpt>
      <trkpt lat="48.98082" lon="1.1173">
        <ele>174.699997</ele>
        <time>2018-02-25T10:02:01Z</time>
      </trkpt>
      <trkpt lat="48.98094" lon="1.11733">
        <ele>175.300003</ele>
        <time>2018-02-25T10:02:05Z</time>
      </trkpt>
      <trkpt lat="48.98104" lon="1.11735">
        <ele>175.699997</ele>
        <time>2018-02-25T10:02:09Z</time>
      </trkpt>
      <trkpt lat="48.98114" lon="1.11737">
        <ele>176.100006</ele>
        <time>2018-02-25T10:02:14Z</time>
      </trkpt>
      <trkpt lat="48.98125" lon="1.11738">
        <ele>176.300003</ele>
        <time>2018-02-25T10:02:18Z</time>
      </trkpt>
      <trkpt lat="48.98135" lon="1.11738">
        <ele>176.5</ele>
        <time>2018-02-25T10:02:22Z</time>
      </trkpt>
      <trkpt lat="48.98144" lon="1.11738">
        <ele>176.600006</ele>
        <time>2018-02-25T10:02:28Z</time>
      </trkpt>
      <trkpt lat="48.98153" lon="1.11735">
        <ele>176.699997</ele>
        <time>2018-02-25T10:02:45Z</time>
      </trkpt>
      <trkpt lat="48.98163" lon="1.11734">
        <ele>176.600006</ele>
        <time>2018-02-25T10:03:10Z</time>
      </trkpt>
      <trkpt lat="48.98173" lon="1.1174">
        <ele>176.800003</ele>
        <time>2018-02-25T10:03:14Z</time>
      </trkpt>
      <trkpt lat="48.98183" lon="1.11748">
        <ele>177.100006</ele>
        <time>2018-02-25T10:03:17Z</time>
      </trkpt>
      <trkpt lat="48.98189" lon="1.1176">
        <ele>177.399994</ele>
        <time>2018-02-25T10:03:21Z</time>
      </trkpt>
      <trkpt lat="48.98191" lon="1.11775">
        <ele>177.300003</ele>
        <time>2018-02-25T10:03:30Z</time>
      </trkpt>
      <trkpt lat="48.98197" lon="1.11791">
        <ele>177</ele>
        <time>2018-02-25T10:03:35Z</time>
      </trkpt>
      <trkpt lat="48.982" lon="1.11806">
        <ele>176.800003</ele>
        <time>2018-02-25T10:03:38Z</time>
      </trkpt>
      <trkpt lat="48.98202" lon="1.11822">
        <ele>176.600006</ele>
        <time>2018-02-25T10:03:41Z</time>
      </trkpt>
      <trkpt lat="48.98209" lon="1.11837">
        <ele>176.100006</ele>
        <time>2018-02-25T10:03:44Z</time>
      </trkpt>
      <trkpt lat="48.98213" lon="1.11849">
        <ele>175.600006</ele>
        <time>2018-02-25T10:03:46Z</time>
      </trkpt>
      <trkpt lat="48.98217" lon="1.11863">
        <ele>175.5</ele>
        <time>2018-02-25T10:03:48Z</time>
      </trkpt>
      <trkpt lat="48.98221" lon="1.11876">
        <ele>175.300003</ele>
        <time>2018-02-25T10:03:50Z</time>
      </trkpt>
      <trkpt lat="48.98225" lon="1.1189">
        <ele>175.199997</ele>
        <time>2018-02-25T10:03:52Z</time>
      </trkpt>
      <trkpt lat="48.9823" lon="1.11903">
        <ele>175.100006</ele>
        <time>2018-02-25T10:03:54Z</time>
      </trkpt>
      <trkpt lat="48.98235" lon="1.11915">
        <ele>175</ele>
        <time>2018-02-25T10:03:56Z</time>
      </trkpt>
      <trkpt lat="48.98242" lon="1.11931">
        <ele>174.800003</ele>
        <time>2018-02-25T10:03:59Z</time>
      </trkpt>
      <trkpt lat="48.98251" lon="1.11943">
        <ele>174.199997</ele>
        <time>2018-02-25T10:04:02Z</time>
      </trkpt>
      <trkpt lat="48.98255" lon="1.11962">
        <ele>173.800003</ele>
        <time>2018-02-25T10:04:05Z</time>
      </trkpt>
      <trkpt lat="48.98262" lon="1.11977">
        <ele>173.300003</ele>
        <time>2018-02-25T10:04:08Z</time>
      </trkpt>
      <trkpt lat="48.98268" lon="1.11992">
        <ele>172.800003</ele>
        <time>2018-02-25T10:04:11Z</time>
      </trkpt>
      <trkpt lat="48.98278" lon="1.12003">
        <ele>172.600006</ele>
        <time>2018-02-25T10:04:14Z</time>
      </trkpt>
      <trkpt lat="48.98288" lon="1.12013">
        <ele>172.399994</ele>
        <time>2018-02-25T10:04:17Z</time>
      </trkpt>
      <trkpt lat="48.98298" lon="1.1202">
        <ele>172.699997</ele>
        <time>2018-02-25T10:04:21Z</time>
      </trkpt>
      <trkpt lat="48.98308" lon="1.12024">
        <ele>172.5</ele>
        <time>2018-02-25T10:04:26Z</time>
      </trkpt>
      <trkpt lat="48.98316" lon="1.12038">
        <ele>172.199997</ele>
        <time>2018-02-25T10:04:30Z</time>
      </trkpt>
      <trkpt lat="48.98325" lon="1.12052">
        <ele>171.800003</ele>
        <time>2018-02-25T10:04:33Z</time>
      </trkpt>
      <trkpt lat="48.98333" lon="1.12064">
        <ele>171.600006</ele>
        <time>2018-02-25T10:04:35Z</time>
      </trkpt>
      <trkpt lat="48.98341" lon="1.12078">
        <ele>171</ele>
        <time>2018-02-25T10:04:37Z</time>
      </trkpt>
      <trkpt lat="48.98351" lon="1.12092">
        <ele>170.5</ele>
        <time>2018-02-25T10:04:39Z</time>
      </trkpt>
      <trkpt lat="48.9836" lon="1.12108">
        <ele>169.5</ele>
        <time>2018-02-25T10:04:41Z</time>
      </trkpt>
      <trkpt lat="48.98367" lon="1.1213">
        <ele>168.399994</ele>
        <time>2018-02-25T10:04:43Z</time>
      </trkpt>
      <trkpt lat="48.98371" lon="1.12154">
        <ele>167.100006</ele>
        <time>2018-02-25T10:04:45Z</time>
      </trkpt>
      <trkpt lat="48.98373" lon="1.12168">
        <ele>166.300003</ele>
        <time>2018-02-25T10:04:46Z</time>
      </trkpt>
      <trkpt lat="48.98376" lon="1.12182">
        <ele>165.5</ele>
        <time>2018-02-25T10:04:47Z</time>
      </trkpt>
      <trkpt lat="48.98378" lon="1.12209">
        <ele>163.300003</ele>
        <time>2018-02-25T10:04:49Z</time>
      </trkpt>
      <trkpt lat="48.98383" lon="1.12234">
        <ele>161.100006</ele>
        <time>2018-02-25T10:04:51Z</time>
      </trkpt>
      <trkpt lat="48.98389" lon="1.1226">
        <ele>159</ele>
        <time>2018-02-25T10:04:53Z</time>
      </trkpt>
      <trkpt lat="48.98397" lon="1.12282">
        <ele>157.100006</ele>
        <time>2018-02-25T10:04:55Z</time>
      </trkpt>
      <trkpt lat="48.98403" lon="1.12303">
        <ele>155.199997</ele>
        <time>2018-02-25T10:04:57Z</time>
      </trkpt>
      <trkpt lat="48.98411" lon="1.12323">
        <ele>152.699997</ele>
        <time>2018-02-25T10:04:59Z</time>
      </trkpt>
      <trkpt lat="48.98416" lon="1.12336">
        <ele>150.199997</ele>
        <time>2018-02-25T10:05:01Z</time>
      </trkpt>
      <trkpt lat="48.98425" lon="1.12332">
        <ele>146.699997</ele>
        <time>2018-02-25T10:05:05Z</time>
      </trkpt>
      <trkpt lat="48.98433" lon="1.12319">
        <ele>145.5</ele>
        <time>2018-02-25T10:05:07Z</time>
      </trkpt>
      <trkpt lat="48.98441" lon="1.12304">
        <ele>144.199997</ele>
        <time>2018-02-25T10:05:09Z</time>
      </trkpt>
      <trkpt lat="48.98452" lon="1.12292">
        <ele>142.600006</ele>
        <time>2018-02-25T10:05:11Z</time>
      </trkpt>
      <trkpt lat="48.9846" lon="1.12281">
        <ele>141.100006</ele>
        <time>2018-02-25T10:05:13Z</time>
      </trkpt>
      <trkpt lat="48.98467" lon="1.12267">
        <ele>139.199997</ele>
        <time>2018-02-25T10:05:15Z</time>
      </trkpt>
      <trkpt lat="48.98474" lon="1.12255">
        <ele>135.800003</ele>
        <time>2018-02-25T10:05:19Z</time>
      </trkpt>
      <trkpt lat="48.98479" lon="1.12243">
        <ele>131.899994</ele>
        <time>2018-02-25T10:05:57Z</time>
      </trkpt>
      <trkpt lat="48.98477" lon="1.12227">
        <ele>132.5</ele>
        <time>2018-02-25T10:06:27Z</time>
      </trkpt>
      <trkpt lat="48.98479" lon="1.12211">
        <ele>132.5</ele>
        <time>2018-02-25T10:06:31Z</time>
      </trkpt>
      <trkpt lat="48.98483" lon="1.12197">
        <ele>132.5</ele>
        <time>2018-02-25T10:06:34Z</time>
      </trkpt>
      <trkpt lat="48.98488" lon="1.12183">
        <ele>132.100006</ele>
        <time>2018-02-25T10:06:37Z</time>
      </trkpt>
      <trkpt lat="48.98491" lon="1.12169">
        <ele>132.199997</ele>
        <time>2018-02-25T10:06:40Z</time>
      </trkpt>
      <trkpt lat="48.98498" lon="1.12155">
        <ele>131.699997</ele>
        <time>2018-02-25T10:06:43Z</time>
      </trkpt>
      <trkpt lat="48.98503" lon="1.12137">
        <ele>131.399994</ele>
        <time>2018-02-25T10:06:46Z</time>
      </trkpt>
      <trkpt lat="48.9851" lon="1.12122">
        <ele>131.100006</ele>
        <time>2018-02-25T10:06:49Z</time>
      </trkpt>
      <trkpt lat="48.98518" lon="1.12112">
        <ele>130.699997</ele>
        <time>2018-02-25T10:06:52Z</time>
      </trkpt>
      <trkpt lat="48.98524" lon="1.12101">
        <ele>130.100006</ele>
        <time>2018-02-25T10:06:55Z</time>
      </trkpt>
      <trkpt lat="48.98532" lon="1.12089">
        <ele>130.199997</ele>
        <time>2018-02-25T10:06:58Z</time>
      </trkpt>
      <trkpt lat="48.98541" lon="1.1208">
        <ele>130.300003</ele>
        <time>2018-02-25T10:07:01Z</time>
      </trkpt>
      <trkpt lat="48.98551" lon="1.1207">
        <ele>130.199997</ele>
        <time>2018-02-25T10:07:04Z</time>
      </trkpt>
      <trkpt lat="48.98561" lon="1.12061">
        <ele>130.100006</ele>
        <time>2018-02-25T10:07:07Z</time>
      </trkpt>
      <trkpt lat="48.98569" lon="1.12055">
        <ele>130.199997</ele>
        <time>2018-02-25T10:07:10Z</time>
      </trkpt>
      <trkpt lat="48.98581" lon="1.12048">
        <ele>130</ele>
        <time>2018-02-25T10:07:13Z</time>
      </trkpt>
      <trkpt lat="48.9859" lon="1.12043">
        <ele>130.199997</ele>
        <time>2018-02-25T10:07:16Z</time>
      </trkpt>
      <trkpt lat="48.98603" lon="1.12039">
        <ele>130.300003</ele>
        <time>2018-02-25T10:07:19Z</time>
      </trkpt>
      <trkpt lat="48.98613" lon="1.12036">
        <ele>130.100006</ele>
        <time>2018-02-25T10:07:21Z</time>
      </trkpt>
      <trkpt lat="48.98623" lon="1.12033">
        <ele>130</ele>
        <time>2018-02-25T10:07:23Z</time>
      </trkpt>
      <trkpt lat="48.98633" lon="1.12029">
        <ele>129.899994</ele>
        <time>2018-02-25T10:07:26Z</time>
      </trkpt>
      <trkpt lat="48.98646" lon="1.12024">
        <ele>129.300003</ele>
        <time>2018-02-25T10:07:29Z</time>
      </trkpt>
      <trkpt lat="48.98654" lon="1.12018">
        <ele>129.300003</ele>
        <time>2018-02-25T10:07:31Z</time>
      </trkpt>
      <trkpt lat="48.98663" lon="1.12011">
        <ele>129.300003</ele>
        <time>2018-02-25T10:07:34Z</time>
      </trkpt>
      <trkpt lat="48.98672" lon="1.12005">
        <ele>128.899994</ele>
        <time>2018-02-25T10:07:36Z</time>
      </trkpt>
      <trkpt lat="48.98683" lon="1.11999">
        <ele>129</ele>
        <time>2018-02-25T10:07:38Z</time>
      </trkpt>
      <trkpt lat="48.98691" lon="1.11994">
        <ele>129</ele>
        <time>2018-02-25T10:07:40Z</time>
      </trkpt>
      <trkpt lat="48.98701" lon="1.11986">
        <ele>129.199997</ele>
        <time>2018-02-25T10:07:43Z</time>
      </trkpt>
      <trkpt lat="48.9871" lon="1.11979">
        <ele>129.199997</ele>
        <time>2018-02-25T10:07:45Z</time>
      </trkpt>
      <trkpt lat="48.98721" lon="1.11968">
        <ele>129.300003</ele>
        <time>2018-02-25T10:07:48Z</time>
      </trkpt>
      <trkpt lat="48.9873" lon="1.11957">
        <ele>129.399994</ele>
        <time>2018-02-25T10:07:51Z</time>
      </trkpt>
      <trkpt lat="48.98743" lon="1.11949">
        <ele>129.100006</ele>
        <time>2018-02-25T10:07:54Z</time>
      </trkpt>
      <trkpt lat="48.98751" lon="1.11942">
        <ele>128.899994</ele>
        <time>2018-02-25T10:07:56Z</time>
      </trkpt>
      <trkpt lat="48.98759" lon="1.11934">
        <ele>128.699997</ele>
        <time>2018-02-25T10:07:58Z</time>
      </trkpt>
      <trkpt lat="48.98771" lon="1.11922">
        <ele>128.300003</ele>
        <time>2018-02-25T10:08:01Z</time>
      </trkpt>
      <trkpt lat="48.98781" lon="1.1191">
        <ele>128.199997</ele>
        <time>2018-02-25T10:08:04Z</time>
      </trkpt>
      <trkpt lat="48.9879" lon="1.11898">
        <ele>127.699997</ele>
        <time>2018-02-25T10:08:07Z</time>
      </trkpt>
      <trkpt lat="48.98798" lon="1.11888">
        <ele>127.699997</ele>
        <time>2018-02-25T10:08:10Z</time>
      </trkpt>
      <trkpt lat="48.98806" lon="1.11875">
        <ele>127.800003</ele>
        <time>2018-02-25T10:08:13Z</time>
      </trkpt>
      <trkpt lat="48.98812" lon="1.11863">
        <ele>127.699997</ele>
        <time>2018-02-25T10:08:15Z</time>
      </trkpt>
      <trkpt lat="48.98819" lon="1.11848">
        <ele>127.599998</ele>
        <time>2018-02-25T10:08:18Z</time>
      </trkpt>
      <trkpt lat="48.98827" lon="1.11834">
        <ele>127.5</ele>
        <time>2018-02-25T10:08:21Z</time>
      </trkpt>
      <trkpt lat="48.98836" lon="1.11821">
        <ele>127.300003</ele>
        <time>2018-02-25T10:08:24Z</time>
      </trkpt>
      <trkpt lat="48.98845" lon="1.11808">
        <ele>127</ele>
        <time>2018-02-25T10:08:27Z</time>
      </trkpt>
      <trkpt lat="48.98855" lon="1.11799">
        <ele>127.099998</ele>
        <time>2018-02-25T10:08:29Z</time>
      </trkpt>
      <trkpt lat="48.98864" lon="1.11786">
        <ele>127.099998</ele>
        <time>2018-02-25T10:08:32Z</time>
      </trkpt>
      <trkpt lat="48.98874" lon="1.11774">
        <ele>127.300003</ele>
        <time>2018-02-25T10:08:35Z</time>
      </trkpt>
      <trkpt lat="48.98885" lon="1.11766">
        <ele>127.300003</ele>
        <time>2018-02-25T10:08:38Z</time>
      </trkpt>
      <trkpt lat="48.98895" lon="1.11761">
        <ele>127.199997</ele>
        <time>2018-02-25T10:08:41Z</time>
      </trkpt>
      <trkpt lat="48.98906" lon="1.11758">
        <ele>126.900002</ele>
        <time>2018-02-25T10:08:44Z</time>
      </trkpt>
      <trkpt lat="48.98918" lon="1.11757">
        <ele>126.599998</ele>
        <time>2018-02-25T10:08:48Z</time>
      </trkpt>
      <trkpt lat="48.98927" lon="1.11758">
        <ele>126.599998</ele>
        <time>2018-02-25T10:08:52Z</time>
      </trkpt>
      <trkpt lat="48.98936" lon="1.11756">
        <ele>126.900002</ele>
        <time>2018-02-25T10:08:58Z</time>
      </trkpt>
      <trkpt lat="48.98946" lon="1.11758">
        <ele>127.800003</ele>
        <time>2018-02-25T10:09:05Z</time>
      </trkpt>
      <trkpt lat="48.98953" lon="1.11767">
        <ele>128.399994</ele>
        <time>2018-02-25T10:09:11Z</time>
      </trkpt>
      <trkpt lat="48.98962" lon="1.11773">
        <ele>130.199997</ele>
        <time>2018-02-25T10:09:18Z</time>
      </trkpt>
      <trkpt lat="48.9897" lon="1.11779">
        <ele>132</ele>
        <time>2018-02-25T10:09:25Z</time>
      </trkpt>
      <trkpt lat="48.98979" lon="1.11785">
        <ele>133.399994</ele>
        <time>2018-02-25T10:09:31Z</time>
      </trkpt>
      <trkpt lat="48.98988" lon="1.1179">
        <ele>134.600006</ele>
        <time>2018-02-25T10:09:37Z</time>
      </trkpt>
      <trkpt lat="48.98997" lon="1.11795">
        <ele>136</ele>
        <time>2018-02-25T10:09:43Z</time>
      </trkpt>
      <trkpt lat="48.99006" lon="1.11801">
        <ele>137.600006</ele>
        <time>2018-02-25T10:09:49Z</time>
      </trkpt>
      <trkpt lat="48.99014" lon="1.11809">
        <ele>139.199997</ele>
        <time>2018-02-25T10:09:55Z</time>
      </trkpt>
      <trkpt lat="48.9902" lon="1.1182">
        <ele>140.399994</ele>
        <time>2018-02-25T10:10:01Z</time>
      </trkpt>
      <trkpt lat="48.99027" lon="1.11831">
        <ele>141.699997</ele>
        <time>2018-02-25T10:10:07Z</time>
      </trkpt>
      <trkpt lat="48.99029" lon="1.11846">
        <ele>143.100006</ele>
        <time>2018-02-25T10:10:14Z</time>
      </trkpt>
      <trkpt lat="48.99021" lon="1.11853">
        <ele>145.199997</ele>
        <time>2018-02-25T10:10:23Z</time>
      </trkpt>
      <trkpt lat="48.99011" lon="1.11854">
        <ele>147</ele>
        <time>2018-02-25T10:10:30Z</time>
      </trkpt>
      <trkpt lat="48.99001" lon="1.11856">
        <ele>148</ele>
        <time>2018-02-25T10:10:36Z</time>
      </trkpt>
      <trkpt lat="48.98993" lon="1.11862">
        <ele>149.199997</ele>
        <time>2018-02-25T10:10:41Z</time>
      </trkpt>
      <trkpt lat="48.98984" lon="1.11871">
        <ele>150.5</ele>
        <time>2018-02-25T10:10:48Z</time>
      </trkpt>
      <trkpt lat="48.98976" lon="1.11881">
        <ele>151.899994</ele>
        <time>2018-02-25T10:10:54Z</time>
      </trkpt>
      <trkpt lat="48.98973" lon="1.11896">
        <ele>154.399994</ele>
        <time>2018-02-25T10:11:01Z</time>
      </trkpt>
      <trkpt lat="48.98978" lon="1.11909">
        <ele>157.399994</ele>
        <time>2018-02-25T10:11:09Z</time>
      </trkpt>
      <trkpt lat="48.98986" lon="1.11916">
        <ele>160.199997</ele>
        <time>2018-02-25T10:11:16Z</time>
      </trkpt>
      <trkpt lat="48.98994" lon="1.11925">
        <ele>162.800003</ele>
        <time>2018-02-25T10:11:23Z</time>
      </trkpt>
      <trkpt lat="48.99001" lon="1.11937">
        <ele>164.800003</ele>
        <time>2018-02-25T10:11:30Z</time>
      </trkpt>
      <trkpt lat="48.99006" lon="1.1195">
        <ele>166.399994</ele>
        <time>2018-02-25T10:11:36Z</time>
      </trkpt>
      <trkpt lat="48.99008" lon="1.11963">
        <ele>167.899994</ele>
        <time>2018-02-25T10:11:42Z</time>
      </trkpt>
      <trkpt lat="48.99013" lon="1.11977">
        <ele>169.199997</ele>
        <time>2018-02-25T10:11:47Z</time>
      </trkpt>
      <trkpt lat="48.99014" lon="1.1199">
        <ele>169.899994</ele>
        <time>2018-02-25T10:11:51Z</time>
      </trkpt>
      <trkpt lat="48.99009" lon="1.12004">
        <ele>170.800003</ele>
        <time>2018-02-25T10:11:56Z</time>
      </trkpt>
      <trkpt lat="48.99002" lon="1.12015">
        <ele>171.100006</ele>
        <time>2018-02-25T10:12:00Z</time>
      </trkpt>
      <trkpt lat="48.98999" lon="1.12031">
        <ele>171.5</ele>
        <time>2018-02-25T10:12:05Z</time>
      </trkpt>
      <trkpt lat="48.98992" lon="1.12042">
        <ele>171.899994</ele>
        <time>2018-02-25T10:12:10Z</time>
      </trkpt>
      <trkpt lat="48.98999" lon="1.1203">
        <ele>171.600006</ele>
        <time>2018-02-25T10:12:20Z</time>
      </trkpt>
      <trkpt lat="48.99007" lon="1.12017">
        <ele>171.199997</ele>
        <time>2018-02-25T10:12:25Z</time>
      </trkpt>
      <trkpt lat="48.99014" lon="1.12005">
        <ele>171.300003</ele>
        <time>2018-02-25T10:12:28Z</time>
      </trkpt>
      <trkpt lat="48.99015" lon="1.1199">
        <ele>171.199997</ele>
        <time>2018-02-25T10:12:31Z</time>
      </trkpt>
      <trkpt lat="48.99011" lon="1.11978">
        <ele>170.899994</ele>
        <time>2018-02-25T10:12:34Z</time>
      </trkpt>
      <trkpt lat="48.99007" lon="1.11961">
        <ele>170.199997</ele>
        <time>2018-02-25T10:12:38Z</time>
      </trkpt>
      <trkpt lat="48.99004" lon="1.11947">
        <ele>168.600006</ele>
        <time>2018-02-25T10:12:43Z</time>
      </trkpt>
      <trkpt lat="48.98998" lon="1.11935">
        <ele>166.800003</ele>
        <time>2018-02-25T10:12:46Z</time>
      </trkpt>
      <trkpt lat="48.9899" lon="1.11926">
        <ele>165.100006</ele>
        <time>2018-02-25T10:12:50Z</time>
      </trkpt>
      <trkpt lat="48.98982" lon="1.11917">
        <ele>162.5</ele>
        <time>2018-02-25T10:12:55Z</time>
      </trkpt>
      <trkpt lat="48.98991" lon="1.11923">
        <ele>160.800003</ele>
        <time>2018-02-25T10:13:22Z</time>
      </trkpt>
      <trkpt lat="48.98998" lon="1.11934">
        <ele>162.800003</ele>
        <time>2018-02-25T10:13:28Z</time>
      </trkpt>
      <trkpt lat="48.99004" lon="1.11946">
        <ele>164.800003</ele>
        <time>2018-02-25T10:13:35Z</time>
      </trkpt>
      <trkpt lat="48.99009" lon="1.11959">
        <ele>167</ele>
        <time>2018-02-25T10:13:42Z</time>
      </trkpt>
      <trkpt lat="48.99014" lon="1.11972">
        <ele>168.899994</ele>
        <time>2018-02-25T10:13:49Z</time>
      </trkpt>
      <trkpt lat="48.99016" lon="1.11986">
        <ele>169.300003</ele>
        <time>2018-02-25T10:13:56Z</time>
      </trkpt>
      <trkpt lat="48.99014" lon="1.12001">
        <ele>170.199997</ele>
        <time>2018-02-25T10:14:01Z</time>
      </trkpt>
      <trkpt lat="48.99006" lon="1.12011">
        <ele>170.800003</ele>
        <time>2018-02-25T10:14:05Z</time>
      </trkpt>
      <trkpt lat="48.99002" lon="1.12024">
        <ele>170.899994</ele>
        <time>2018-02-25T10:14:10Z</time>
      </trkpt>
      <trkpt lat="48.98997" lon="1.12036">
        <ele>171.5</ele>
        <time>2018-02-25T10:14:15Z</time>
      </trkpt>
      <trkpt lat="48.98994" lon="1.12051">
        <ele>171.699997</ele>
        <time>2018-02-25T10:14:34Z</time>
      </trkpt>
      <trkpt lat="48.98989" lon="1.12063">
        <ele>171.5</ele>
        <time>2018-02-25T10:15:19Z</time>
      </trkpt>
      <trkpt lat="48.98995" lon="1.12078">
        <ele>171.600006</ele>
        <time>2018-02-25T10:15:23Z</time>
      </trkpt>
      <trkpt lat="48.99" lon="1.12094">
        <ele>171.5</ele>
        <time>2018-02-25T10:15:27Z</time>
      </trkpt>
      <trkpt lat="48.99003" lon="1.1211">
        <ele>171.399994</ele>
        <time>2018-02-25T10:15:30Z</time>
      </trkpt>
      <trkpt lat="48.99007" lon="1.12126">
        <ele>171</ele>
        <time>2018-02-25T10:15:33Z</time>
      </trkpt>
      <trkpt lat="48.99013" lon="1.12141">
        <ele>170.600006</ele>
        <time>2018-02-25T10:15:36Z</time>
      </trkpt>
      <trkpt lat="48.99019" lon="1.12158">
        <ele>170.199997</ele>
        <time>2018-02-25T10:15:39Z</time>
      </trkpt>
      <trkpt lat="48.99025" lon="1.12174">
        <ele>170.100006</ele>
        <time>2018-02-25T10:15:42Z</time>
      </trkpt>
      <trkpt lat="48.99026" lon="1.12189">
        <ele>170.100006</ele>
        <time>2018-02-25T10:15:44Z</time>
      </trkpt>
      <trkpt lat="48.99029" lon="1.12208">
        <ele>170.399994</ele>
        <time>2018-02-25T10:15:47Z</time>
      </trkpt>
      <trkpt lat="48.99032" lon="1.12225">
        <ele>170.199997</ele>
        <time>2018-02-25T10:15:50Z</time>
      </trkpt>
      <trkpt lat="48.99034" lon="1.12239">
        <ele>169.899994</ele>
        <time>2018-02-25T10:15:52Z</time>
      </trkpt>
      <trkpt lat="48.99037" lon="1.12253">
        <ele>169.600006</ele>
        <time>2018-02-25T10:15:55Z</time>
      </trkpt>
      <trkpt lat="48.99048" lon="1.12254">
        <ele>169.199997</ele>
        <time>2018-02-25T10:15:58Z</time>
      </trkpt>
      <trkpt lat="48.9906" lon="1.12245">
        <ele>168.600006</ele>
        <time>2018-02-25T10:16:01Z</time>
      </trkpt>
      <trkpt lat="48.99068" lon="1.12237">
        <ele>168.199997</ele>
        <time>2018-02-25T10:16:03Z</time>
      </trkpt>
      <trkpt lat="48.99078" lon="1.12226">
        <ele>167.5</ele>
        <time>2018-02-25T10:16:06Z</time>
      </trkpt>
      <trkpt lat="48.99086" lon="1.12218">
        <ele>167.100006</ele>
        <time>2018-02-25T10:16:08Z</time>
      </trkpt>
      <trkpt lat="48.99097" lon="1.1221">
        <ele>166.899994</ele>
        <time>2018-02-25T10:16:11Z</time>
      </trkpt>
      <trkpt lat="48.99105" lon="1.12202">
        <ele>166.800003</ele>
        <time>2018-02-25T10:16:13Z</time>
      </trkpt>
      <trkpt lat="48.99113" lon="1.12194">
        <ele>166.800003</ele>
        <time>2018-02-25T10:16:15Z</time>
      </trkpt>
      <trkpt lat="48.99122" lon="1.12183">
        <ele>166.300003</ele>
        <time>2018-02-25T10:16:18Z</time>
      </trkpt>
      <trkpt lat="48.99131" lon="1.12176">
        <ele>166</ele>
        <time>2018-02-25T10:16:20Z</time>
      </trkpt>
      <trkpt lat="48.99143" lon="1.12165">
        <ele>165.800003</ele>
        <time>2018-02-25T10:16:23Z</time>
      </trkpt>
      <trkpt lat="48.99154" lon="1.12153">
        <ele>165.600006</ele>
        <time>2018-02-25T10:16:26Z</time>
      </trkpt>
      <trkpt lat="48.99165" lon="1.12142">
        <ele>165.699997</ele>
        <time>2018-02-25T10:16:29Z</time>
      </trkpt>
      <trkpt lat="48.99175" lon="1.12132">
        <ele>165.5</ele>
        <time>2018-02-25T10:16:32Z</time>
      </trkpt>
      <trkpt lat="48.99186" lon="1.12121">
        <ele>165.899994</ele>
        <time>2018-02-25T10:16:35Z</time>
      </trkpt>
      <trkpt lat="48.99194" lon="1.12113">
        <ele>165.899994</ele>
        <time>2018-02-25T10:16:37Z</time>
      </trkpt>
      <trkpt lat="48.99201" lon="1.12104">
        <ele>166</ele>
        <time>2018-02-25T10:16:39Z</time>
      </trkpt>
      <trkpt lat="48.99208" lon="1.12093">
        <ele>166</ele>
        <time>2018-02-25T10:16:42Z</time>
      </trkpt>
      <trkpt lat="48.99218" lon="1.1208">
        <ele>165.600006</ele>
        <time>2018-02-25T10:16:45Z</time>
      </trkpt>
      <trkpt lat="48.99228" lon="1.12068">
        <ele>165.100006</ele>
        <time>2018-02-25T10:16:48Z</time>
      </trkpt>
      <trkpt lat="48.99236" lon="1.12074">
        <ele>164.800003</ele>
        <time>2018-02-25T10:16:52Z</time>
      </trkpt>
      <trkpt lat="48.99245" lon="1.12083">
        <ele>164.399994</ele>
        <time>2018-02-25T10:16:55Z</time>
      </trkpt>
      <trkpt lat="48.99253" lon="1.12094">
        <ele>164</ele>
        <time>2018-02-25T10:16:58Z</time>
      </trkpt>
      <trkpt lat="48.99261" lon="1.12104">
        <ele>163.699997</ele>
        <time>2018-02-25T10:17:01Z</time>
      </trkpt>
      <trkpt lat="48.99269" lon="1.12118">
        <ele>163.100006</ele>
        <time>2018-02-25T10:17:04Z</time>
      </trkpt>
      <trkpt lat="48.99279" lon="1.12131">
        <ele>162.5</ele>
        <time>2018-02-25T10:17:07Z</time>
      </trkpt>
      <trkpt lat="48.99285" lon="1.12143">
        <ele>162</ele>
        <time>2018-02-25T10:17:10Z</time>
      </trkpt>
      <trkpt lat="48.9929" lon="1.12155">
        <ele>161.600006</ele>
        <time>2018-02-25T10:17:13Z</time>
      </trkpt>
      <trkpt lat="48.99295" lon="1.12167">
        <ele>161.199997</ele>
        <time>2018-02-25T10:17:16Z</time>
      </trkpt>
      <trkpt lat="48.99302" lon="1.12177">
        <ele>161.5</ele>
        <time>2018-02-25T10:17:21Z</time>
      </trkpt>
      <trkpt lat="48.99312" lon="1.12176">
        <ele>162.5</ele>
        <time>2018-02-25T10:17:25Z</time>
      </trkpt>
      <trkpt lat="48.99323" lon="1.12174">
        <ele>163.699997</ele>
        <time>2018-02-25T10:17:29Z</time>
      </trkpt>
      <trkpt lat="48.99333" lon="1.12173">
        <ele>164.699997</ele>
        <time>2018-02-25T10:17:33Z</time>
      </trkpt>
      <trkpt lat="48.99343" lon="1.12171">
        <ele>165.5</ele>
        <time>2018-02-25T10:17:37Z</time>
      </trkpt>
      <trkpt lat="48.99353" lon="1.12169">
        <ele>166.199997</ele>
        <time>2018-02-25T10:17:41Z</time>
      </trkpt>
      <trkpt lat="48.99364" lon="1.12169">
        <ele>166.800003</ele>
        <time>2018-02-25T10:17:45Z</time>
      </trkpt>
      <trkpt lat="48.99372" lon="1.12178">
        <ele>167.5</ele>
        <time>2018-02-25T10:17:50Z</time>
      </trkpt>
      <trkpt lat="48.99375" lon="1.12193">
        <ele>168.300003</ele>
        <time>2018-02-25T10:17:55Z</time>
      </trkpt>
      <trkpt lat="48.99378" lon="1.12206">
        <ele>169</ele>
        <time>2018-02-25T10:18:00Z</time>
      </trkpt>
      <trkpt lat="48.99381" lon="1.12222">
        <ele>169.5</ele>
        <time>2018-02-25T10:18:05Z</time>
      </trkpt>
      <trkpt lat="48.99385" lon="1.12237">
        <ele>169.800003</ele>
        <time>2018-02-25T10:18:10Z</time>
      </trkpt>
      <trkpt lat="48.9939" lon="1.1225">
        <ele>170.100006</ele>
        <time>2018-02-25T10:18:14Z</time>
      </trkpt>
      <trkpt lat="48.99395" lon="1.12265">
        <ele>170.399994</ele>
        <time>2018-02-25T10:18:19Z</time>
      </trkpt>
      <trkpt lat="48.99397" lon="1.12279">
        <ele>170.699997</ele>
        <time>2018-02-25T10:18:23Z</time>
      </trkpt>
      <trkpt lat="48.994" lon="1.12293">
        <ele>170.899994</ele>
        <time>2018-02-25T10:18:27Z</time>
      </trkpt>
      <trkpt lat="48.99402" lon="1.12307">
        <ele>171.5</ele>
        <time>2018-02-25T10:18:31Z</time>
      </trkpt>
      <trkpt lat="48.99405" lon="1.12322">
        <ele>172.100006</ele>
        <time>2018-02-25T10:18:35Z</time>
      </trkpt>
      <trkpt lat="48.99407" lon="1.12339">
        <ele>172.800003</ele>
        <time>2018-02-25T10:18:39Z</time>
      </trkpt>
      <trkpt lat="48.99409" lon="1.12356">
        <ele>173</ele>
        <time>2018-02-25T10:18:43Z</time>
      </trkpt>
      <trkpt lat="48.99412" lon="1.12371">
        <ele>173</ele>
        <time>2018-02-25T10:18:47Z</time>
      </trkpt>
      <trkpt lat="48.99414" lon="1.12388">
        <ele>173.199997</ele>
        <time>2018-02-25T10:18:51Z</time>
      </trkpt>
      <trkpt lat="48.99417" lon="1.12404">
        <ele>173.300003</ele>
        <time>2018-02-25T10:18:55Z</time>
      </trkpt>
      <trkpt lat="48.99419" lon="1.1242">
        <ele>173.600006</ele>
        <time>2018-02-25T10:18:59Z</time>
      </trkpt>
      <trkpt lat="48.99422" lon="1.12436">
        <ele>174</ele>
        <time>2018-02-25T10:19:03Z</time>
      </trkpt>
      <trkpt lat="48.99425" lon="1.12452">
        <ele>174.300003</ele>
        <time>2018-02-25T10:19:07Z</time>
      </trkpt>
      <trkpt lat="48.99427" lon="1.12467">
        <ele>174.600006</ele>
        <time>2018-02-25T10:19:11Z</time>
      </trkpt>
      <trkpt lat="48.9943" lon="1.12483">
        <ele>174.899994</ele>
        <time>2018-02-25T10:19:15Z</time>
      </trkpt>
      <trkpt lat="48.99432" lon="1.125">
        <ele>175.100006</ele>
        <time>2018-02-25T10:19:19Z</time>
      </trkpt>
      <trkpt lat="48.99434" lon="1.12519">
        <ele>175.5</ele>
        <time>2018-02-25T10:19:23Z</time>
      </trkpt>
      <trkpt lat="48.99436" lon="1.12536">
        <ele>175.600006</ele>
        <time>2018-02-25T10:19:27Z</time>
      </trkpt>
      <trkpt lat="48.99438" lon="1.12552">
        <ele>175.899994</ele>
        <time>2018-02-25T10:19:31Z</time>
      </trkpt>
      <trkpt lat="48.99442" lon="1.12569">
        <ele>176.199997</ele>
        <time>2018-02-25T10:19:35Z</time>
      </trkpt>
      <trkpt lat="48.99445" lon="1.12582">
        <ele>176.600006</ele>
        <time>2018-02-25T10:19:38Z</time>
      </trkpt>
      <trkpt lat="48.99448" lon="1.12598">
        <ele>177</ele>
        <time>2018-02-25T10:19:42Z</time>
      </trkpt>
      <trkpt lat="48.9945" lon="1.12614">
        <ele>177.300003</ele>
        <time>2018-02-25T10:19:46Z</time>
      </trkpt>
      <trkpt lat="48.99451" lon="1.12628">
        <ele>177.300003</ele>
        <time>2018-02-25T10:19:49Z</time>
      </trkpt>
      <trkpt lat="48.99453" lon="1.12645">
        <ele>177.600006</ele>
        <time>2018-02-25T10:19:53Z</time>
      </trkpt>
      <trkpt lat="48.99456" lon="1.12661">
        <ele>177.600006</ele>
        <time>2018-02-25T10:19:57Z</time>
      </trkpt>
      <trkpt lat="48.99461" lon="1.12675">
        <ele>177.699997</ele>
        <time>2018-02-25T10:20:01Z</time>
      </trkpt>
      <trkpt lat="48.99472" lon="1.12671">
        <ele>178.5</ele>
        <time>2018-02-25T10:20:06Z</time>
      </trkpt>
      <trkpt lat="48.9948" lon="1.1266">
        <ele>178.5</ele>
        <time>2018-02-25T10:20:10Z</time>
      </trkpt>
      <trkpt lat="48.99489" lon="1.12648">
        <ele>178.5</ele>
        <time>2018-02-25T10:20:14Z</time>
      </trkpt>
      <trkpt lat="48.99496" lon="1.12638">
        <ele>178.5</ele>
        <time>2018-02-25T10:20:17Z</time>
      </trkpt>
      <trkpt lat="48.99505" lon="1.12625">
        <ele>178.5</ele>
        <time>2018-02-25T10:20:20Z</time>
      </trkpt>
      <trkpt lat="48.99512" lon="1.12614">
        <ele>178.600006</ele>
        <time>2018-02-25T10:20:22Z</time>
      </trkpt>
      <trkpt lat="48.99518" lon="1.12602">
        <ele>178.5</ele>
        <time>2018-02-25T10:20:24Z</time>
      </trkpt>
      <trkpt lat="48.99526" lon="1.12587">
        <ele>178.199997</ele>
        <time>2018-02-25T10:20:27Z</time>
      </trkpt>
      <trkpt lat="48.99535" lon="1.12573">
        <ele>178.199997</ele>
        <time>2018-02-25T10:20:30Z</time>
      </trkpt>
      <trkpt lat="48.99545" lon="1.1256">
        <ele>178.300003</ele>
        <time>2018-02-25T10:20:33Z</time>
      </trkpt>
      <trkpt lat="48.99554" lon="1.12549">
        <ele>177.899994</ele>
        <time>2018-02-25T10:20:36Z</time>
      </trkpt>
      <trkpt lat="48.99563" lon="1.12536">
        <ele>177.300003</ele>
        <time>2018-02-25T10:20:39Z</time>
      </trkpt>
      <trkpt lat="48.99572" lon="1.12523">
        <ele>176.899994</ele>
        <time>2018-02-25T10:20:42Z</time>
      </trkpt>
      <trkpt lat="48.99581" lon="1.12508">
        <ele>176.699997</ele>
        <time>2018-02-25T10:20:45Z</time>
      </trkpt>
      <trkpt lat="48.9959" lon="1.12493">
        <ele>176.399994</ele>
        <time>2018-02-25T10:20:48Z</time>
      </trkpt>
      <trkpt lat="48.99598" lon="1.12479">
        <ele>176</ele>
        <time>2018-02-25T10:20:51Z</time>
      </trkpt>
      <trkpt lat="48.99604" lon="1.12468">
        <ele>175.800003</ele>
        <time>2018-02-25T10:20:56Z</time>
      </trkpt>
      <trkpt lat="48.99614" lon="1.12456">
        <ele>176</ele>
        <time>2018-02-25T10:21:00Z</time>
      </trkpt>
      <trkpt lat="48.99621" lon="1.12447">
        <ele>176</ele>
        <time>2018-02-25T10:21:03Z</time>
      </trkpt>
      <trkpt lat="48.99629" lon="1.12436">
        <ele>176.100006</ele>
        <time>2018-02-25T10:21:06Z</time>
      </trkpt>
      <trkpt lat="48.99636" lon="1.12422">
        <ele>176.300003</ele>
        <time>2018-02-25T10:21:09Z</time>
      </trkpt>
      <trkpt lat="48.99643" lon="1.12407">
        <ele>176.100006</ele>
        <time>2018-02-25T10:21:12Z</time>
      </trkpt>
      <trkpt lat="48.99652" lon="1.12396">
        <ele>175.800003</ele>
        <time>2018-02-25T10:21:15Z</time>
      </trkpt>
      <trkpt lat="48.99662" lon="1.12399">
        <ele>175.5</ele>
        <time>2018-02-25T10:21:20Z</time>
      </trkpt>
      <trkpt lat="48.99668" lon="1.12415">
        <ele>175.5</ele>
        <time>2018-02-25T10:21:25Z</time>
      </trkpt>
      <trkpt lat="48.99671" lon="1.12429">
        <ele>175.600006</ele>
        <time>2018-02-25T10:21:28Z</time>
      </trkpt>
      <trkpt lat="48.99674" lon="1.12441">
        <ele>175.699997</ele>
        <time>2018-02-25T10:21:31Z</time>
      </trkpt>
      <trkpt lat="48.99679" lon="1.12456">
        <ele>175.699997</ele>
        <time>2018-02-25T10:21:35Z</time>
      </trkpt>
      <trkpt lat="48.99682" lon="1.12475">
        <ele>175.600006</ele>
        <time>2018-02-25T10:21:39Z</time>
      </trkpt>
      <trkpt lat="48.99685" lon="1.1249">
        <ele>175.600006</ele>
        <time>2018-02-25T10:21:42Z</time>
      </trkpt>
      <trkpt lat="48.99688" lon="1.12505">
        <ele>175.699997</ele>
        <time>2018-02-25T10:21:45Z</time>
      </trkpt>
      <trkpt lat="48.99691" lon="1.12521">
        <ele>176</ele>
        <time>2018-02-25T10:21:48Z</time>
      </trkpt>
      <trkpt lat="48.99695" lon="1.12537">
        <ele>175.699997</ele>
        <time>2018-02-25T10:21:51Z</time>
      </trkpt>
      <trkpt lat="48.99699" lon="1.12552">
        <ele>175.899994</ele>
        <time>2018-02-25T10:21:54Z</time>
      </trkpt>
      <trkpt lat="48.99703" lon="1.12567">
        <ele>176.199997</ele>
        <time>2018-02-25T10:21:57Z</time>
      </trkpt>
      <trkpt lat="48.99705" lon="1.12583">
        <ele>176.800003</ele>
        <time>2018-02-25T10:22:00Z</time>
      </trkpt>
      <trkpt lat="48.99706" lon="1.12599">
        <ele>177.199997</ele>
        <time>2018-02-25T10:22:03Z</time>
      </trkpt>
      <trkpt lat="48.99708" lon="1.12612">
        <ele>177.899994</ele>
        <time>2018-02-25T10:22:06Z</time>
      </trkpt>
      <trkpt lat="48.99712" lon="1.12627">
        <ele>178.5</ele>
        <time>2018-02-25T10:22:10Z</time>
      </trkpt>
      <trkpt lat="48.99715" lon="1.12643">
        <ele>178.800003</ele>
        <time>2018-02-25T10:22:13Z</time>
      </trkpt>
      <trkpt lat="48.99719" lon="1.12656">
        <ele>179.300003</ele>
        <time>2018-02-25T10:22:16Z</time>
      </trkpt>
      <trkpt lat="48.9972" lon="1.12671">
        <ele>179.600006</ele>
        <time>2018-02-25T10:22:19Z</time>
      </trkpt>
      <trkpt lat="48.99721" lon="1.12687">
        <ele>180</ele>
        <time>2018-02-25T10:22:22Z</time>
      </trkpt>
      <trkpt lat="48.99722" lon="1.12701">
        <ele>180.600006</ele>
        <time>2018-02-25T10:22:25Z</time>
      </trkpt>
      <trkpt lat="48.99724" lon="1.12716">
        <ele>180.800003</ele>
        <time>2018-02-25T10:22:28Z</time>
      </trkpt>
      <trkpt lat="48.99726" lon="1.12729">
        <ele>181.100006</ele>
        <time>2018-02-25T10:22:31Z</time>
      </trkpt>
      <trkpt lat="48.99726" lon="1.12743">
        <ele>181.300003</ele>
        <time>2018-02-25T10:22:34Z</time>
      </trkpt>
      <trkpt lat="48.99726" lon="1.12758">
        <ele>181.5</ele>
        <time>2018-02-25T10:22:37Z</time>
      </trkpt>
      <trkpt lat="48.99724" lon="1.12773">
        <ele>181.699997</ele>
        <time>2018-02-25T10:22:41Z</time>
      </trkpt>
      <trkpt lat="48.99734" lon="1.12781">
        <ele>182.5</ele>
        <time>2018-02-25T10:22:47Z</time>
      </trkpt>
      <trkpt lat="48.99745" lon="1.12785">
        <ele>182.399994</ele>
        <time>2018-02-25T10:22:51Z</time>
      </trkpt>
      <trkpt lat="48.99754" lon="1.12788">
        <ele>182.300003</ele>
        <time>2018-02-25T10:22:54Z</time>
      </trkpt>
      <trkpt lat="48.99763" lon="1.1279">
        <ele>182.399994</ele>
        <time>2018-02-25T10:22:57Z</time>
      </trkpt>
      <trkpt lat="48.99773" lon="1.12792">
        <ele>182.5</ele>
        <time>2018-02-25T10:23:00Z</time>
      </trkpt>
      <trkpt lat="48.99783" lon="1.12793">
        <ele>182.399994</ele>
        <time>2018-02-25T10:23:03Z</time>
      </trkpt>
      <trkpt lat="48.99794" lon="1.12795">
        <ele>182.699997</ele>
        <time>2018-02-25T10:23:06Z</time>
      </trkpt>
      <trkpt lat="48.99805" lon="1.12798">
        <ele>182.899994</ele>
        <time>2018-02-25T10:23:09Z</time>
      </trkpt>
      <trkpt lat="48.99817" lon="1.128">
        <ele>183</ele>
        <time>2018-02-25T10:23:12Z</time>
      </trkpt>
      <trkpt lat="48.9983" lon="1.12801">
        <ele>183.199997</ele>
        <time>2018-02-25T10:23:15Z</time>
      </trkpt>
      <trkpt lat="48.99841" lon="1.12803">
        <ele>183.100006</ele>
        <time>2018-02-25T10:23:18Z</time>
      </trkpt>
      <trkpt lat="48.99852" lon="1.12805">
        <ele>182.800003</ele>
        <time>2018-02-25T10:23:21Z</time>
      </trkpt>
      <trkpt lat="48.99863" lon="1.12806">
        <ele>183</ele>
        <time>2018-02-25T10:23:24Z</time>
      </trkpt>
      <trkpt lat="48.99872" lon="1.12813">
        <ele>182.899994</ele>
        <time>2018-02-25T10:23:27Z</time>
      </trkpt>
      <trkpt lat="48.99878" lon="1.12826">
        <ele>183.199997</ele>
        <time>2018-02-25T10:23:30Z</time>
      </trkpt>
      <trkpt lat="48.99884" lon="1.12839">
        <ele>183.100006</ele>
        <time>2018-02-25T10:23:33Z</time>
      </trkpt>
      <trkpt lat="48.99891" lon="1.12847">
        <ele>183.300003</ele>
        <time>2018-02-25T10:23:36Z</time>
      </trkpt>
      <trkpt lat="48.99901" lon="1.12851">
        <ele>183.5</ele>
        <time>2018-02-25T10:23:39Z</time>
      </trkpt>
      <trkpt lat="48.99911" lon="1.12851">
        <ele>183.399994</ele>
        <time>2018-02-25T10:23:42Z</time>
      </trkpt>
      <trkpt lat="48.99923" lon="1.12849">
        <ele>183.399994</ele>
        <time>2018-02-25T10:23:45Z</time>
      </trkpt>
      <trkpt lat="48.99932" lon="1.12847">
        <ele>183.399994</ele>
        <time>2018-02-25T10:23:47Z</time>
      </trkpt>
      <trkpt lat="48.99942" lon="1.1284">
        <ele>183.399994</ele>
        <time>2018-02-25T10:23:50Z</time>
      </trkpt>
      <trkpt lat="48.99951" lon="1.12828">
        <ele>183</ele>
        <time>2018-02-25T10:23:53Z</time>
      </trkpt>
      <trkpt lat="48.99958" lon="1.12819">
        <ele>182.899994</ele>
        <time>2018-02-25T10:23:55Z</time>
      </trkpt>
      <trkpt lat="48.99967" lon="1.12816">
        <ele>182.800003</ele>
        <time>2018-02-25T10:23:57Z</time>
      </trkpt>
      <trkpt lat="48.99977" lon="1.12817">
        <ele>182.399994</ele>
        <time>2018-02-25T10:23:59Z</time>
      </trkpt>
      <trkpt lat="48.99986" lon="1.12819">
        <ele>182.100006</ele>
        <time>2018-02-25T10:24:01Z</time>
      </trkpt>
      <trkpt lat="48.99995" lon="1.1282">
        <ele>181.600006</ele>
        <time>2018-02-25T10:24:03Z</time>
      </trkpt>
      <trkpt lat="49.00005" lon="1.12822">
        <ele>181.399994</ele>
        <time>2018-02-25T10:24:05Z</time>
      </trkpt>
      <trkpt lat="49.00014" lon="1.12824">
        <ele>180.899994</ele>
        <time>2018-02-25T10:24:07Z</time>
      </trkpt>
      <trkpt lat="49.00028" lon="1.12826">
        <ele>180.199997</ele>
        <time>2018-02-25T10:24:10Z</time>
      </trkpt>
      <trkpt lat="49.00037" lon="1.12827">
        <ele>180</ele>
        <time>2018-02-25T10:24:12Z</time>
      </trkpt>
      <trkpt lat="49.00047" lon="1.12827">
        <ele>179.800003</ele>
        <time>2018-02-25T10:24:14Z</time>
      </trkpt>
      <trkpt lat="49.00056" lon="1.12828">
        <ele>179.300003</ele>
        <time>2018-02-25T10:24:16Z</time>
      </trkpt>
      <trkpt lat="49.00066" lon="1.12829">
        <ele>179.100006</ele>
        <time>2018-02-25T10:24:18Z</time>
      </trkpt>
      <trkpt lat="49.00076" lon="1.12831">
        <ele>178.800003</ele>
        <time>2018-02-25T10:24:20Z</time>
      </trkpt>
      <trkpt lat="49.00087" lon="1.12832">
        <ele>178.600006</ele>
        <time>2018-02-25T10:24:22Z</time>
      </trkpt>
      <trkpt lat="49.00098" lon="1.12833">
        <ele>178</ele>
        <time>2018-02-25T10:24:24Z</time>
      </trkpt>
      <trkpt lat="49.00109" lon="1.12835">
        <ele>177.800003</ele>
        <time>2018-02-25T10:24:26Z</time>
      </trkpt>
      <trkpt lat="49.00122" lon="1.12836">
        <ele>177.600006</ele>
        <time>2018-02-25T10:24:28Z</time>
      </trkpt>
      <trkpt lat="49.00134" lon="1.12837">
        <ele>177.300003</ele>
        <time>2018-02-25T10:24:30Z</time>
      </trkpt>
      <trkpt lat="49.00146" lon="1.12838">
        <ele>177</ele>
        <time>2018-02-25T10:24:32Z</time>
      </trkpt>
      <trkpt lat="49.00158" lon="1.1284">
        <ele>176.5</ele>
        <time>2018-02-25T10:24:34Z</time>
      </trkpt>
      <trkpt lat="49.00169" lon="1.12841">
        <ele>176.199997</ele>
        <time>2018-02-25T10:24:36Z</time>
      </trkpt>
      <trkpt lat="49.0018" lon="1.12842">
        <ele>176</ele>
        <time>2018-02-25T10:24:38Z</time>
      </trkpt>
      <trkpt lat="49.0019" lon="1.12843">
        <ele>175.800003</ele>
        <time>2018-02-25T10:24:40Z</time>
      </trkpt>
      <trkpt lat="49.00201" lon="1.12843">
        <ele>175.399994</ele>
        <time>2018-02-25T10:24:42Z</time>
      </trkpt>
      <trkpt lat="49.00211" lon="1.12844">
        <ele>175.199997</ele>
        <time>2018-02-25T10:24:44Z</time>
      </trkpt>
      <trkpt lat="49.00221" lon="1.12845">
        <ele>175.300003</ele>
        <time>2018-02-25T10:24:46Z</time>
      </trkpt>
      <trkpt lat="49.0023" lon="1.12848">
        <ele>175</ele>
        <time>2018-02-25T10:24:49Z</time>
      </trkpt>
      <trkpt lat="49.00239" lon="1.1285">
        <ele>173.800003</ele>
        <time>2018-02-25T10:25:24Z</time>
      </trkpt>
      <trkpt lat="49.00247" lon="1.12858">
        <ele>173.800003</ele>
        <time>2018-02-25T10:25:28Z</time>
      </trkpt>
      <trkpt lat="49.00254" lon="1.1287">
        <ele>173.899994</ele>
        <time>2018-02-25T10:25:31Z</time>
      </trkpt>
      <trkpt lat="49.00258" lon="1.12884">
        <ele>173.600006</ele>
        <time>2018-02-25T10:25:34Z</time>
      </trkpt>
      <trkpt lat="49.00263" lon="1.12899">
        <ele>173.699997</ele>
        <time>2018-02-25T10:25:37Z</time>
      </trkpt>
      <trkpt lat="49.00269" lon="1.12914">
        <ele>173.5</ele>
        <time>2018-02-25T10:25:40Z</time>
      </trkpt>
      <trkpt lat="49.00274" lon="1.1293">
        <ele>173.300003</ele>
        <time>2018-02-25T10:25:44Z</time>
      </trkpt>
      <trkpt lat="49.00281" lon="1.12945">
        <ele>173.100006</ele>
        <time>2018-02-25T10:25:47Z</time>
      </trkpt>
      <trkpt lat="49.00284" lon="1.12961">
        <ele>173.199997</ele>
        <time>2018-02-25T10:25:50Z</time>
      </trkpt>
      <trkpt lat="49.00289" lon="1.12979">
        <ele>173.100006</ele>
        <time>2018-02-25T10:25:53Z</time>
      </trkpt>
      <trkpt lat="49.00295" lon="1.12993">
        <ele>172.899994</ele>
        <time>2018-02-25T10:25:55Z</time>
      </trkpt>
      <trkpt lat="49.00299" lon="1.13008">
        <ele>173</ele>
        <time>2018-02-25T10:25:57Z</time>
      </trkpt>
      <trkpt lat="49.00302" lon="1.13026">
        <ele>172.800003</ele>
        <time>2018-02-25T10:26:00Z</time>
      </trkpt>
      <trkpt lat="49.00307" lon="1.13038">
        <ele>172.699997</ele>
        <time>2018-02-25T10:26:02Z</time>
      </trkpt>
      <trkpt lat="49.00312" lon="1.13059">
        <ele>172.899994</ele>
        <time>2018-02-25T10:26:05Z</time>
      </trkpt>
      <trkpt lat="49.00315" lon="1.13073">
        <ele>173.100006</ele>
        <time>2018-02-25T10:26:07Z</time>
      </trkpt>
      <trkpt lat="49.00318" lon="1.13088">
        <ele>173.199997</ele>
        <time>2018-02-25T10:26:09Z</time>
      </trkpt>
      <trkpt lat="49.00321" lon="1.13103">
        <ele>173.199997</ele>
        <time>2018-02-25T10:26:11Z</time>
      </trkpt>
      <trkpt lat="49.00323" lon="1.13119">
        <ele>173.300003</ele>
        <time>2018-02-25T10:26:13Z</time>
      </trkpt>
      <trkpt lat="49.00327" lon="1.13134">
        <ele>173.100006</ele>
        <time>2018-02-25T10:26:15Z</time>
      </trkpt>
      <trkpt lat="49.0033" lon="1.1315">
        <ele>173</ele>
        <time>2018-02-25T10:26:17Z</time>
      </trkpt>
      <trkpt lat="49.00337" lon="1.13169">
        <ele>173.300003</ele>
        <time>2018-02-25T10:26:20Z</time>
      </trkpt>
      <trkpt lat="49.00341" lon="1.13184">
        <ele>173.399994</ele>
        <time>2018-02-25T10:26:22Z</time>
      </trkpt>
      <trkpt lat="49.00345" lon="1.13199">
        <ele>173.399994</ele>
        <time>2018-02-25T10:26:24Z</time>
      </trkpt>
      <trkpt lat="49.00351" lon="1.13214">
        <ele>173.600006</ele>
        <time>2018-02-25T10:26:26Z</time>
      </trkpt>
      <trkpt lat="49.00356" lon="1.13234">
        <ele>173.399994</ele>
        <time>2018-02-25T10:26:29Z</time>
      </trkpt>
      <trkpt lat="49.0036" lon="1.13252">
        <ele>173.100006</ele>
        <time>2018-02-25T10:26:32Z</time>
      </trkpt>
      <trkpt lat="49.00364" lon="1.13268">
        <ele>173.399994</ele>
        <time>2018-02-25T10:26:34Z</time>
      </trkpt>
      <trkpt lat="49.00365" lon="1.13282">
        <ele>173.5</ele>
        <time>2018-02-25T10:26:36Z</time>
      </trkpt>
      <trkpt lat="49.00365" lon="1.13301">
        <ele>173.100006</ele>
        <time>2018-02-25T10:26:38Z</time>
      </trkpt>
      <trkpt lat="49.0037" lon="1.13319">
        <ele>172.899994</ele>
        <time>2018-02-25T10:26:40Z</time>
      </trkpt>
      <trkpt lat="49.00373" lon="1.13334">
        <ele>172.699997</ele>
        <time>2018-02-25T10:26:42Z</time>
      </trkpt>
      <trkpt lat="49.00377" lon="1.13349">
        <ele>172.699997</ele>
        <time>2018-02-25T10:26:44Z</time>
      </trkpt>
      <trkpt lat="49.00381" lon="1.13367">
        <ele>172.699997</ele>
        <time>2018-02-25T10:26:46Z</time>
      </trkpt>
      <trkpt lat="49.00385" lon="1.13385">
        <ele>172.5</ele>
        <time>2018-02-25T10:26:48Z</time>
      </trkpt>
      <trkpt lat="49.00391" lon="1.13403">
        <ele>172.399994</ele>
        <time>2018-02-25T10:26:50Z</time>
      </trkpt>
      <trkpt lat="49.00396" lon="1.1342">
        <ele>172.100006</ele>
        <time>2018-02-25T10:26:52Z</time>
      </trkpt>
      <trkpt lat="49.00401" lon="1.13437">
        <ele>171.800003</ele>
        <time>2018-02-25T10:26:54Z</time>
      </trkpt>
      <trkpt lat="49.00405" lon="1.13453">
        <ele>171.399994</ele>
        <time>2018-02-25T10:26:56Z</time>
      </trkpt>
      <trkpt lat="49.0041" lon="1.13469">
        <ele>171.199997</ele>
        <time>2018-02-25T10:26:58Z</time>
      </trkpt>
      <trkpt lat="49.00414" lon="1.13484">
        <ele>170.899994</ele>
        <time>2018-02-25T10:27:00Z</time>
      </trkpt>
      <trkpt lat="49.00419" lon="1.13502">
        <ele>170.899994</ele>
        <time>2018-02-25T10:27:02Z</time>
      </trkpt>
      <trkpt lat="49.00421" lon="1.1352">
        <ele>170.5</ele>
        <time>2018-02-25T10:27:04Z</time>
      </trkpt>
      <trkpt lat="49.00427" lon="1.13535">
        <ele>169.899994</ele>
        <time>2018-02-25T10:27:06Z</time>
      </trkpt>
      <trkpt lat="49.00431" lon="1.13551">
        <ele>169.5</ele>
        <time>2018-02-25T10:27:08Z</time>
      </trkpt>
      <trkpt lat="49.00437" lon="1.13566">
        <ele>169.399994</ele>
        <time>2018-02-25T10:27:10Z</time>
      </trkpt>
      <trkpt lat="49.00441" lon="1.13584">
        <ele>169.199997</ele>
        <time>2018-02-25T10:27:12Z</time>
      </trkpt>
      <trkpt lat="49.00446" lon="1.13604">
        <ele>169</ele>
        <time>2018-02-25T10:27:14Z</time>
      </trkpt>
      <trkpt lat="49.00452" lon="1.13623">
        <ele>168.800003</ele>
        <time>2018-02-25T10:27:16Z</time>
      </trkpt>
      <trkpt lat="49.00456" lon="1.13642">
        <ele>168.699997</ele>
        <time>2018-02-25T10:27:18Z</time>
      </trkpt>
      <trkpt lat="49.00458" lon="1.13659">
        <ele>168.300003</ele>
        <time>2018-02-25T10:27:20Z</time>
      </trkpt>
      <trkpt lat="49.00463" lon="1.13677">
        <ele>168.100006</ele>
        <time>2018-02-25T10:27:22Z</time>
      </trkpt>
      <trkpt lat="49.00469" lon="1.13693">
        <ele>168.100006</ele>
        <time>2018-02-25T10:27:24Z</time>
      </trkpt>
      <trkpt lat="49.00475" lon="1.1371">
        <ele>168</ele>
        <time>2018-02-25T10:27:26Z</time>
      </trkpt>
      <trkpt lat="49.00478" lon="1.13727">
        <ele>167.699997</ele>
        <time>2018-02-25T10:27:28Z</time>
      </trkpt>
      <trkpt lat="49.00482" lon="1.13743">
        <ele>167.399994</ele>
        <time>2018-02-25T10:27:30Z</time>
      </trkpt>
      <trkpt lat="49.00484" lon="1.13762">
        <ele>167.399994</ele>
        <time>2018-02-25T10:27:32Z</time>
      </trkpt>
      <trkpt lat="49.00485" lon="1.13782">
        <ele>167.600006</ele>
        <time>2018-02-25T10:27:34Z</time>
      </trkpt>
      <trkpt lat="49.00488" lon="1.13798">
        <ele>167.699997</ele>
        <time>2018-02-25T10:27:36Z</time>
      </trkpt>
      <trkpt lat="49.00492" lon="1.13813">
        <ele>167.699997</ele>
        <time>2018-02-25T10:27:38Z</time>
      </trkpt>
      <trkpt lat="49.00498" lon="1.13831">
        <ele>167.199997</ele>
        <time>2018-02-25T10:27:40Z</time>
      </trkpt>
      <trkpt lat="49.00503" lon="1.13847">
        <ele>166.899994</ele>
        <time>2018-02-25T10:27:42Z</time>
      </trkpt>
      <trkpt lat="49.00507" lon="1.13863">
        <ele>166.5</ele>
        <time>2018-02-25T10:27:44Z</time>
      </trkpt>
      <trkpt lat="49.0051" lon="1.13878">
        <ele>166.199997</ele>
        <time>2018-02-25T10:27:46Z</time>
      </trkpt>
      <trkpt lat="49.00516" lon="1.13892">
        <ele>166.300003</ele>
        <time>2018-02-25T10:27:48Z</time>
      </trkpt>
      <trkpt lat="49.00519" lon="1.13909">
        <ele>166.300003</ele>
        <time>2018-02-25T10:27:50Z</time>
      </trkpt>
      <trkpt lat="49.00522" lon="1.13927">
        <ele>166.100006</ele>
        <time>2018-02-25T10:27:52Z</time>
      </trkpt>
      <trkpt lat="49.00527" lon="1.13941">
        <ele>165.899994</ele>
        <time>2018-02-25T10:27:54Z</time>
      </trkpt>
      <trkpt lat="49.00531" lon="1.13958">
        <ele>165.800003</ele>
        <time>2018-02-25T10:27:56Z</time>
      </trkpt>
      <trkpt lat="49.00533" lon="1.13973">
        <ele>165.699997</ele>
        <time>2018-02-25T10:27:58Z</time>
      </trkpt>
      <trkpt lat="49.00536" lon="1.13986">
        <ele>165.699997</ele>
        <time>2018-02-25T10:28:00Z</time>
      </trkpt>
      <trkpt lat="49.0054" lon="1.14001">
        <ele>165.800003</ele>
        <time>2018-02-25T10:28:02Z</time>
      </trkpt>
      <trkpt lat="49.00544" lon="1.14015">
        <ele>166.100006</ele>
        <time>2018-02-25T10:28:04Z</time>
      </trkpt>
      <trkpt lat="49.00548" lon="1.14031">
        <ele>166.100006</ele>
        <time>2018-02-25T10:28:06Z</time>
      </trkpt>
      <trkpt lat="49.00556" lon="1.14041">
        <ele>166.100006</ele>
        <time>2018-02-25T10:28:08Z</time>
      </trkpt>
      <trkpt lat="49.00561" lon="1.14052">
        <ele>165.800003</ele>
        <time>2018-02-25T10:28:10Z</time>
      </trkpt>
      <trkpt lat="49.00564" lon="1.14067">
        <ele>165.699997</ele>
        <time>2018-02-25T10:28:13Z</time>
      </trkpt>
      <trkpt lat="49.00567" lon="1.14081">
        <ele>165.5</ele>
        <time>2018-02-25T10:28:16Z</time>
      </trkpt>
      <trkpt lat="49.00565" lon="1.14099">
        <ele>165.5</ele>
        <time>2018-02-25T10:28:19Z</time>
      </trkpt>
      <trkpt lat="49.00566" lon="1.1412">
        <ele>165.800003</ele>
        <time>2018-02-25T10:28:22Z</time>
      </trkpt>
      <trkpt lat="49.0057" lon="1.14133">
        <ele>166</ele>
        <time>2018-02-25T10:28:24Z</time>
      </trkpt>
      <trkpt lat="49.00574" lon="1.14148">
        <ele>166.199997</ele>
        <time>2018-02-25T10:28:26Z</time>
      </trkpt>
      <trkpt lat="49.00577" lon="1.14164">
        <ele>166.300003</ele>
        <time>2018-02-25T10:28:28Z</time>
      </trkpt>
      <trkpt lat="49.00581" lon="1.14179">
        <ele>166.399994</ele>
        <time>2018-02-25T10:28:30Z</time>
      </trkpt>
      <trkpt lat="49.00585" lon="1.14193">
        <ele>166.800003</ele>
        <time>2018-02-25T10:28:32Z</time>
      </trkpt>
      <trkpt lat="49.0059" lon="1.14212">
        <ele>167</ele>
        <time>2018-02-25T10:28:35Z</time>
      </trkpt>
      <trkpt lat="49.00594" lon="1.14226">
        <ele>166.899994</ele>
        <time>2018-02-25T10:28:37Z</time>
      </trkpt>
      <trkpt lat="49.00598" lon="1.1424">
        <ele>166.800003</ele>
        <time>2018-02-25T10:28:39Z</time>
      </trkpt>
      <trkpt lat="49.00602" lon="1.14253">
        <ele>166.600006</ele>
        <time>2018-02-25T10:28:41Z</time>
      </trkpt>
      <trkpt lat="49.00605" lon="1.14268">
        <ele>166.600006</ele>
        <time>2018-02-25T10:28:43Z</time>
      </trkpt>
      <trkpt lat="49.00609" lon="1.14284">
        <ele>166.699997</ele>
        <time>2018-02-25T10:28:45Z</time>
      </trkpt>
      <trkpt lat="49.00612" lon="1.14298">
        <ele>166.699997</ele>
        <time>2018-02-25T10:28:47Z</time>
      </trkpt>
      <trkpt lat="49.00615" lon="1.14314">
        <ele>166.899994</ele>
        <time>2018-02-25T10:28:49Z</time>
      </trkpt>
      <trkpt lat="49.00618" lon="1.1433">
        <ele>166.899994</ele>
        <time>2018-02-25T10:28:51Z</time>
      </trkpt>
      <trkpt lat="49.00622" lon="1.14345">
        <ele>167.100006</ele>
        <time>2018-02-25T10:28:53Z</time>
      </trkpt>
      <trkpt lat="49.00626" lon="1.1436">
        <ele>167.100006</ele>
        <time>2018-02-25T10:28:55Z</time>
      </trkpt>
      <trkpt lat="49.00629" lon="1.14374">
        <ele>167.300003</ele>
        <time>2018-02-25T10:28:57Z</time>
      </trkpt>
      <trkpt lat="49.00632" lon="1.14388">
        <ele>167.399994</ele>
        <time>2018-02-25T10:28:59Z</time>
      </trkpt>
      <trkpt lat="49.00635" lon="1.14402">
        <ele>167.600006</ele>
        <time>2018-02-25T10:29:01Z</time>
      </trkpt>
      <trkpt lat="49.00639" lon="1.1442">
        <ele>167.800003</ele>
        <time>2018-02-25T10:29:04Z</time>
      </trkpt>
      <trkpt lat="49.00645" lon="1.14438">
        <ele>167.800003</ele>
        <time>2018-02-25T10:29:07Z</time>
      </trkpt>
      <trkpt lat="49.00656" lon="1.14448">
        <ele>167.899994</ele>
        <time>2018-02-25T10:29:10Z</time>
      </trkpt>
      <trkpt lat="49.00666" lon="1.14446">
        <ele>167.600006</ele>
        <time>2018-02-25T10:29:12Z</time>
      </trkpt>
      <trkpt lat="49.00675" lon="1.14437">
        <ele>167.5</ele>
        <time>2018-02-25T10:29:14Z</time>
      </trkpt>
      <trkpt lat="49.00685" lon="1.14427">
        <ele>167.399994</ele>
        <time>2018-02-25T10:29:16Z</time>
      </trkpt>
      <trkpt lat="49.00696" lon="1.14417">
        <ele>167.199997</ele>
        <time>2018-02-25T10:29:18Z</time>
      </trkpt>
      <trkpt lat="49.00708" lon="1.14408">
        <ele>166.899994</ele>
        <time>2018-02-25T10:29:20Z</time>
      </trkpt>
      <trkpt lat="49.0072" lon="1.14399">
        <ele>166.199997</ele>
        <time>2018-02-25T10:29:22Z</time>
      </trkpt>
      <trkpt lat="49.00733" lon="1.1439">
        <ele>165.399994</ele>
        <time>2018-02-25T10:29:24Z</time>
      </trkpt>
      <trkpt lat="49.00746" lon="1.14382">
        <ele>164.600006</ele>
        <time>2018-02-25T10:29:26Z</time>
      </trkpt>
      <trkpt lat="49.00761" lon="1.14374">
        <ele>163.899994</ele>
        <time>2018-02-25T10:29:28Z</time>
      </trkpt>
      <trkpt lat="49.00775" lon="1.14366">
        <ele>163.300003</ele>
        <time>2018-02-25T10:29:30Z</time>
      </trkpt>
      <trkpt lat="49.0079" lon="1.14358">
        <ele>162.800003</ele>
        <time>2018-02-25T10:29:32Z</time>
      </trkpt>
      <trkpt lat="49.00801" lon="1.14345">
        <ele>162</ele>
        <time>2018-02-25T10:29:34Z</time>
      </trkpt>
      <trkpt lat="49.00812" lon="1.14342">
        <ele>161</ele>
        <time>2018-02-25T10:29:36Z</time>
      </trkpt>
      <trkpt lat="49.00824" lon="1.14344">
        <ele>160.199997</ele>
        <time>2018-02-25T10:29:38Z</time>
      </trkpt>
      <trkpt lat="49.00839" lon="1.14341">
        <ele>159.300003</ele>
        <time>2018-02-25T10:29:40Z</time>
      </trkpt>
      <trkpt lat="49.00854" lon="1.14337">
        <ele>158.5</ele>
        <time>2018-02-25T10:29:42Z</time>
      </trkpt>
      <trkpt lat="49.00869" lon="1.14333">
        <ele>157.800003</ele>
        <time>2018-02-25T10:29:44Z</time>
      </trkpt>
      <trkpt lat="49.00886" lon="1.14328">
        <ele>156.699997</ele>
        <time>2018-02-25T10:29:46Z</time>
      </trkpt>
      <trkpt lat="49.00904" lon="1.14321">
        <ele>155.699997</ele>
        <time>2018-02-25T10:29:48Z</time>
      </trkpt>
      <trkpt lat="49.00921" lon="1.14312">
        <ele>154.5</ele>
        <time>2018-02-25T10:29:50Z</time>
      </trkpt>
      <trkpt lat="49.0093" lon="1.14308">
        <ele>154</ele>
        <time>2018-02-25T10:29:51Z</time>
      </trkpt>
      <trkpt lat="49.00947" lon="1.14299">
        <ele>153.300003</ele>
        <time>2018-02-25T10:29:53Z</time>
      </trkpt>
      <trkpt lat="49.00956" lon="1.14293">
        <ele>152.699997</ele>
        <time>2018-02-25T10:29:54Z</time>
      </trkpt>
      <trkpt lat="49.00964" lon="1.14288">
        <ele>152.199997</ele>
        <time>2018-02-25T10:29:55Z</time>
      </trkpt>
      <trkpt lat="49.00973" lon="1.14282">
        <ele>151.699997</ele>
        <time>2018-02-25T10:29:56Z</time>
      </trkpt>
      <trkpt lat="49.00981" lon="1.14276">
        <ele>151</ele>
        <time>2018-02-25T10:29:57Z</time>
      </trkpt>
      <trkpt lat="49.00989" lon="1.1427">
        <ele>150.5</ele>
        <time>2018-02-25T10:29:58Z</time>
      </trkpt>
      <trkpt lat="49.01006" lon="1.14258">
        <ele>149.399994</ele>
        <time>2018-02-25T10:30:00Z</time>
      </trkpt>
      <trkpt lat="49.01014" lon="1.14251">
        <ele>148.800003</ele>
        <time>2018-02-25T10:30:01Z</time>
      </trkpt>
      <trkpt lat="49.01022" lon="1.14245">
        <ele>148.300003</ele>
        <time>2018-02-25T10:30:02Z</time>
      </trkpt>
      <trkpt lat="49.0103" lon="1.14239">
        <ele>147.899994</ele>
        <time>2018-02-25T10:30:03Z</time>
      </trkpt>
      <trkpt lat="49.01039" lon="1.14233">
        <ele>147.5</ele>
        <time>2018-02-25T10:30:04Z</time>
      </trkpt>
      <trkpt lat="49.01055" lon="1.14221">
        <ele>146.600006</ele>
        <time>2018-02-25T10:30:06Z</time>
      </trkpt>
      <trkpt lat="49.01071" lon="1.1421">
        <ele>145.899994</ele>
        <time>2018-02-25T10:30:08Z</time>
      </trkpt>
      <trkpt lat="49.01087" lon="1.14199">
        <ele>145.300003</ele>
        <time>2018-02-25T10:30:10Z</time>
      </trkpt>
      <trkpt lat="49.01102" lon="1.14188">
        <ele>144.899994</ele>
        <time>2018-02-25T10:30:12Z</time>
      </trkpt>
      <trkpt lat="49.01117" lon="1.1418">
        <ele>144.300003</ele>
        <time>2018-02-25T10:30:14Z</time>
      </trkpt>
      <trkpt lat="49.01133" lon="1.14173">
        <ele>143.5</ele>
        <time>2018-02-25T10:30:16Z</time>
      </trkpt>
      <trkpt lat="49.01149" lon="1.14168">
        <ele>142.800003</ele>
        <time>2018-02-25T10:30:18Z</time>
      </trkpt>
      <trkpt lat="49.01164" lon="1.14165">
        <ele>142.199997</ele>
        <time>2018-02-25T10:30:20Z</time>
      </trkpt>
      <trkpt lat="49.01179" lon="1.14163">
        <ele>141.800003</ele>
        <time>2018-02-25T10:30:22Z</time>
      </trkpt>
      <trkpt lat="49.01194" lon="1.14162">
        <ele>140.899994</ele>
        <time>2018-02-25T10:30:24Z</time>
      </trkpt>
      <trkpt lat="49.0121" lon="1.14163">
        <ele>140.399994</ele>
        <time>2018-02-25T10:30:26Z</time>
      </trkpt>
      <trkpt lat="49.01225" lon="1.14165">
        <ele>139.899994</ele>
        <time>2018-02-25T10:30:28Z</time>
      </trkpt>
      <trkpt lat="49.01239" lon="1.14169">
        <ele>139.5</ele>
        <time>2018-02-25T10:30:30Z</time>
      </trkpt>
      <trkpt lat="49.01254" lon="1.14174">
        <ele>139.100006</ele>
        <time>2018-02-25T10:30:32Z</time>
      </trkpt>
      <trkpt lat="49.01268" lon="1.1418">
        <ele>138.699997</ele>
        <time>2018-02-25T10:30:34Z</time>
      </trkpt>
      <trkpt lat="49.01281" lon="1.14187">
        <ele>138.199997</ele>
        <time>2018-02-25T10:30:36Z</time>
      </trkpt>
      <trkpt lat="49.01295" lon="1.14195">
        <ele>137.399994</ele>
        <time>2018-02-25T10:30:38Z</time>
      </trkpt>
      <trkpt lat="49.01307" lon="1.14205">
        <ele>137.100006</ele>
        <time>2018-02-25T10:30:40Z</time>
      </trkpt>
      <trkpt lat="49.01319" lon="1.14216">
        <ele>136.899994</ele>
        <time>2018-02-25T10:30:42Z</time>
      </trkpt>
      <trkpt lat="49.0133" lon="1.14228">
        <ele>136.399994</ele>
        <time>2018-02-25T10:30:44Z</time>
      </trkpt>
      <trkpt lat="49.01341" lon="1.14241">
        <ele>135.800003</ele>
        <time>2018-02-25T10:30:46Z</time>
      </trkpt>
      <trkpt lat="49.01353" lon="1.14255">
        <ele>135.300003</ele>
        <time>2018-02-25T10:30:48Z</time>
      </trkpt>
      <trkpt lat="49.01365" lon="1.1427">
        <ele>134.800003</ele>
        <time>2018-02-25T10:30:50Z</time>
      </trkpt>
      <trkpt lat="49.01376" lon="1.14284">
        <ele>134.5</ele>
        <time>2018-02-25T10:30:52Z</time>
      </trkpt>
      <trkpt lat="49.01388" lon="1.14298">
        <ele>133.800003</ele>
        <time>2018-02-25T10:30:54Z</time>
      </trkpt>
      <trkpt lat="49.01399" lon="1.14311">
        <ele>133.300003</ele>
        <time>2018-02-25T10:30:56Z</time>
      </trkpt>
      <trkpt lat="49.01409" lon="1.14325">
        <ele>132.600006</ele>
        <time>2018-02-25T10:30:58Z</time>
      </trkpt>
      <trkpt lat="49.01419" lon="1.14338">
        <ele>131.699997</ele>
        <time>2018-02-25T10:31:00Z</time>
      </trkpt>
      <trkpt lat="49.01429" lon="1.14351">
        <ele>130.800003</ele>
        <time>2018-02-25T10:31:02Z</time>
      </trkpt>
      <trkpt lat="49.01439" lon="1.14364">
        <ele>129.899994</ele>
        <time>2018-02-25T10:31:04Z</time>
      </trkpt>
      <trkpt lat="49.0145" lon="1.14376">
        <ele>128.899994</ele>
        <time>2018-02-25T10:31:06Z</time>
      </trkpt>
      <trkpt lat="49.01462" lon="1.14387">
        <ele>128.300003</ele>
        <time>2018-02-25T10:31:08Z</time>
      </trkpt>
      <trkpt lat="49.01475" lon="1.14397">
        <ele>127.699997</ele>
        <time>2018-02-25T10:31:10Z</time>
      </trkpt>
      <trkpt lat="49.0149" lon="1.14404">
        <ele>127</ele>
        <time>2018-02-25T10:31:12Z</time>
      </trkpt>
      <trkpt lat="49.01505" lon="1.1441">
        <ele>126.199997</ele>
        <time>2018-02-25T10:31:14Z</time>
      </trkpt>
      <trkpt lat="49.01519" lon="1.14415">
        <ele>125.599998</ele>
        <time>2018-02-25T10:31:16Z</time>
      </trkpt>
      <trkpt lat="49.01533" lon="1.14418">
        <ele>124.800003</ele>
        <time>2018-02-25T10:31:18Z</time>
      </trkpt>
      <trkpt lat="49.01545" lon="1.14419">
        <ele>123.800003</ele>
        <time>2018-02-25T10:31:20Z</time>
      </trkpt>
      <trkpt lat="49.01554" lon="1.14422">
        <ele>122.599998</ele>
        <time>2018-02-25T10:31:23Z</time>
      </trkpt>
      <trkpt lat="49.01564" lon="1.14434">
        <ele>121.699997</ele>
        <time>2018-02-25T10:31:26Z</time>
      </trkpt>
      <trkpt lat="49.01573" lon="1.1444">
        <ele>121.5</ele>
        <time>2018-02-25T10:31:28Z</time>
      </trkpt>
      <trkpt lat="49.01584" lon="1.14439">
        <ele>121.300003</ele>
        <time>2018-02-25T10:31:30Z</time>
      </trkpt>
      <trkpt lat="49.01597" lon="1.14434">
        <ele>121.099998</ele>
        <time>2018-02-25T10:31:32Z</time>
      </trkpt>
      <trkpt lat="49.01611" lon="1.14428">
        <ele>120.599998</ele>
        <time>2018-02-25T10:31:34Z</time>
      </trkpt>
      <trkpt lat="49.01626" lon="1.1442">
        <ele>120.199997</ele>
        <time>2018-02-25T10:31:36Z</time>
      </trkpt>
      <trkpt lat="49.01642" lon="1.1441">
        <ele>119.599998</ele>
        <time>2018-02-25T10:31:38Z</time>
      </trkpt>
      <trkpt lat="49.01657" lon="1.14399">
        <ele>118.900002</ele>
        <time>2018-02-25T10:31:40Z</time>
      </trkpt>
      <trkpt lat="49.01672" lon="1.14388">
        <ele>118.099998</ele>
        <time>2018-02-25T10:31:42Z</time>
      </trkpt>
      <trkpt lat="49.01687" lon="1.14378">
        <ele>117.400002</ele>
        <time>2018-02-25T10:31:44Z</time>
      </trkpt>
      <trkpt lat="49.01702" lon="1.14368">
        <ele>116.699997</ele>
        <time>2018-02-25T10:31:46Z</time>
      </trkpt>
      <trkpt lat="49.01717" lon="1.1436">
        <ele>115.900002</ele>
        <time>2018-02-25T10:31:48Z</time>
      </trkpt>
      <trkpt lat="49.01732" lon="1.14353">
        <ele>115</ele>
        <time>2018-02-25T10:31:50Z</time>
      </trkpt>
      <trkpt lat="49.01746" lon="1.14347">
        <ele>114.400002</ele>
        <time>2018-02-25T10:31:52Z</time>
      </trkpt>
      <trkpt lat="49.01759" lon="1.14341">
        <ele>113.800003</ele>
        <time>2018-02-25T10:31:54Z</time>
      </trkpt>
      <trkpt lat="49.01772" lon="1.14336">
        <ele>113.199997</ele>
        <time>2018-02-25T10:31:56Z</time>
      </trkpt>
      <trkpt lat="49.01785" lon="1.14324">
        <ele>112.199997</ele>
        <time>2018-02-25T10:31:58Z</time>
      </trkpt>
      <trkpt lat="49.01796" lon="1.14317">
        <ele>111.699997</ele>
        <time>2018-02-25T10:32:00Z</time>
      </trkpt>
      <trkpt lat="49.01807" lon="1.14311">
        <ele>110.800003</ele>
        <time>2018-02-25T10:32:03Z</time>
      </trkpt>
      <trkpt lat="49.01819" lon="1.14305">
        <ele>109.699997</ele>
        <time>2018-02-25T10:32:08Z</time>
      </trkpt>
      <trkpt lat="49.01832" lon="1.14301">
        <ele>109.5</ele>
        <time>2018-02-25T10:32:11Z</time>
      </trkpt>
      <trkpt lat="49.01842" lon="1.14297">
        <ele>109.5</ele>
        <time>2018-02-25T10:32:13Z</time>
      </trkpt>
      <trkpt lat="49.01852" lon="1.1429">
        <ele>109.400002</ele>
        <time>2018-02-25T10:32:15Z</time>
      </trkpt>
      <trkpt lat="49.01863" lon="1.14279">
        <ele>109.099998</ele>
        <time>2018-02-25T10:32:17Z</time>
      </trkpt>
      <trkpt lat="49.01874" lon="1.14263">
        <ele>109</ele>
        <time>2018-02-25T10:32:19Z</time>
      </trkpt>
      <trkpt lat="49.01884" lon="1.14248">
        <ele>108.800003</ele>
        <time>2018-02-25T10:32:21Z</time>
      </trkpt>
      <trkpt lat="49.01896" lon="1.14235">
        <ele>108.400002</ele>
        <time>2018-02-25T10:32:23Z</time>
      </trkpt>
      <trkpt lat="49.0191" lon="1.14225">
        <ele>107.699997</ele>
        <time>2018-02-25T10:32:25Z</time>
      </trkpt>
      <trkpt lat="49.01924" lon="1.14217">
        <ele>107.400002</ele>
        <time>2018-02-25T10:32:27Z</time>
      </trkpt>
      <trkpt lat="49.01937" lon="1.14211">
        <ele>107</ele>
        <time>2018-02-25T10:32:29Z</time>
      </trkpt>
      <trkpt lat="49.01951" lon="1.14206">
        <ele>106.800003</ele>
        <time>2018-02-25T10:32:31Z</time>
      </trkpt>
      <trkpt lat="49.01965" lon="1.142">
        <ele>106.300003</ele>
        <time>2018-02-25T10:32:33Z</time>
      </trkpt>
      <trkpt lat="49.01979" lon="1.14194">
        <ele>105.900002</ele>
        <time>2018-02-25T10:32:35Z</time>
      </trkpt>
      <trkpt lat="49.01993" lon="1.14188">
        <ele>105.699997</ele>
        <time>2018-02-25T10:32:37Z</time>
      </trkpt>
      <trkpt lat="49.02008" lon="1.14182">
        <ele>105.5</ele>
        <time>2018-02-25T10:32:39Z</time>
      </trkpt>
      <trkpt lat="49.02022" lon="1.14176">
        <ele>105.300003</ele>
        <time>2018-02-25T10:32:41Z</time>
      </trkpt>
      <trkpt lat="49.02036" lon="1.1417">
        <ele>105</ele>
        <time>2018-02-25T10:32:43Z</time>
      </trkpt>
      <trkpt lat="49.0205" lon="1.14164">
        <ele>104.699997</ele>
        <time>2018-02-25T10:32:45Z</time>
      </trkpt>
      <trkpt lat="49.02065" lon="1.14157">
        <ele>104.5</ele>
        <time>2018-02-25T10:32:47Z</time>
      </trkpt>
      <trkpt lat="49.02077" lon="1.14147">
        <ele>104.699997</ele>
        <time>2018-02-25T10:32:49Z</time>
      </trkpt>
      <trkpt lat="49.02088" lon="1.14136">
        <ele>104.400002</ele>
        <time>2018-02-25T10:32:51Z</time>
      </trkpt>
      <trkpt lat="49.021" lon="1.14131">
        <ele>104.099998</ele>
        <time>2018-02-25T10:32:53Z</time>
      </trkpt>
      <trkpt lat="49.02109" lon="1.14125">
        <ele>103.800003</ele>
        <time>2018-02-25T10:32:55Z</time>
      </trkpt>
      <trkpt lat="49.02118" lon="1.1412">
        <ele>103.5</ele>
        <time>2018-02-25T10:32:57Z</time>
      </trkpt>
      <trkpt lat="49.0213" lon="1.1412">
        <ele>103.199997</ele>
        <time>2018-02-25T10:33:00Z</time>
      </trkpt>
      <trkpt lat="49.02141" lon="1.14117">
        <ele>103.199997</ele>
        <time>2018-02-25T10:33:03Z</time>
      </trkpt>
      <trkpt lat="49.02152" lon="1.14114">
        <ele>102.900002</ele>
        <time>2018-02-25T10:33:08Z</time>
      </trkpt>
      <trkpt lat="49.02163" lon="1.1411">
        <ele>103.5</ele>
        <time>2018-02-25T10:33:31Z</time>
      </trkpt>
      <trkpt lat="49.02174" lon="1.14107">
        <ele>103.400002</ele>
        <time>2018-02-25T10:33:35Z</time>
      </trkpt>
      <trkpt lat="49.02183" lon="1.14103">
        <ele>103.099998</ele>
        <time>2018-02-25T10:33:38Z</time>
      </trkpt>
      <trkpt lat="49.02194" lon="1.14099">
        <ele>102.900002</ele>
        <time>2018-02-25T10:33:42Z</time>
      </trkpt>
      <trkpt lat="49.02204" lon="1.14092">
        <ele>102.900002</ele>
        <time>2018-02-25T10:33:46Z</time>
      </trkpt>
      <trkpt lat="49.02212" lon="1.14085">
        <ele>102.900002</ele>
        <time>2018-02-25T10:33:52Z</time>
      </trkpt>
      <trkpt lat="49.02223" lon="1.14085">
        <ele>103.099998</ele>
        <time>2018-02-25T10:33:58Z</time>
      </trkpt>
      <trkpt lat="49.02232" lon="1.14081">
        <ele>102.900002</ele>
        <time>2018-02-25T10:34:04Z</time>
      </trkpt>
      <trkpt lat="49.02228" lon="1.14068">
        <ele>102.800003</ele>
        <time>2018-02-25T10:34:33Z</time>
      </trkpt>
      <trkpt lat="49.0223" lon="1.14069">
        <ele>103.099998</ele>
        <time>2018-02-25T10:34:54Z</time>
      </trkpt>
    </trkseg>
  </trk>
</gpx>